<?xml version="1.0" encoding="UTF-8" standalone="no" ?>
<gpx xmlns="http://www.topografix.com/GPX/1/1" xmlns:xsi="http://www.w3.org/2001/XMLSchema-instance" xsi:schemaLocation="http://www.topografix.com/GPX/1/1 http://www.topografix.com/GPX/1/1/gpx.xsd" version="1.1" creator="VisuGPX - https://www.visugpx.com">
  <metadata>
    <name>VTT montmiandon croix de chirol</name>
  </metadata>
  <trk>
    <name><![CDATA[VTT montmiandon croix de chirol]]></name>
    <trkseg>
      <trkpt lat="45.29253" lon="4.73425">
        <ele>384.20001220703</ele>
        <time>2022-01-26T07:42:03Z</time>
      </trkpt>
      <trkpt lat="45.29253" lon="4.73425">
        <ele>384.39999389648</ele>
        <time>2022-01-26T07:42:04Z</time>
      </trkpt>
      <trkpt lat="45.29252" lon="4.73426">
        <ele>384.39999389648</ele>
        <time>2022-01-26T07:43:11Z</time>
      </trkpt>
      <trkpt lat="45.29255" lon="4.73425">
        <ele>383.79998779297</ele>
        <time>2022-01-26T07:44:56Z</time>
      </trkpt>
      <trkpt lat="45.29253" lon="4.73403">
        <ele>383.79998779297</ele>
        <time>2022-01-26T07:45:02Z</time>
      </trkpt>
      <trkpt lat="45.29242" lon="4.73385">
        <ele>384</ele>
        <time>2022-01-26T07:45:09Z</time>
      </trkpt>
      <trkpt lat="45.29232" lon="4.73391">
        <ele>384.20001220703</ele>
        <time>2022-01-26T07:45:14Z</time>
      </trkpt>
      <trkpt lat="45.29199" lon="4.73427">
        <ele>383.39999389648</ele>
        <time>2022-01-26T07:45:24Z</time>
      </trkpt>
      <trkpt lat="45.29187" lon="4.73436">
        <ele>382.60000610352</ele>
        <time>2022-01-26T07:45:28Z</time>
      </trkpt>
      <trkpt lat="45.29177" lon="4.73427">
        <ele>382</ele>
        <time>2022-01-26T07:45:33Z</time>
      </trkpt>
      <trkpt lat="45.29169" lon="4.73416">
        <ele>381.60000610352</ele>
        <time>2022-01-26T07:45:37Z</time>
      </trkpt>
      <trkpt lat="45.29146" lon="4.73402">
        <ele>381.60000610352</ele>
        <time>2022-01-26T07:45:47Z</time>
      </trkpt>
      <trkpt lat="45.29139" lon="4.73415">
        <ele>381.60000610352</ele>
        <time>2022-01-26T07:45:50Z</time>
      </trkpt>
      <trkpt lat="45.29131" lon="4.73423">
        <ele>378.20001220703</ele>
        <time>2022-01-26T07:46:01Z</time>
      </trkpt>
      <trkpt lat="45.29132" lon="4.73423">
        <ele>378</ele>
        <time>2022-01-26T07:46:03Z</time>
      </trkpt>
      <trkpt lat="45.29121" lon="4.73429">
        <ele>377.39999389648</ele>
        <time>2022-01-26T07:46:42Z</time>
      </trkpt>
      <trkpt lat="45.2908" lon="4.73397">
        <ele>376.60000610352</ele>
        <time>2022-01-26T07:46:52Z</time>
      </trkpt>
      <trkpt lat="45.29059" lon="4.73369">
        <ele>376.20001220703</ele>
        <time>2022-01-26T07:46:57Z</time>
      </trkpt>
      <trkpt lat="45.28989" lon="4.73275">
        <ele>374.20001220703</ele>
        <time>2022-01-26T07:47:13Z</time>
      </trkpt>
      <trkpt lat="45.28934" lon="4.73193">
        <ele>373.20001220703</ele>
        <time>2022-01-26T07:47:26Z</time>
      </trkpt>
      <trkpt lat="45.28894" lon="4.73131">
        <ele>373</ele>
        <time>2022-01-26T07:47:36Z</time>
      </trkpt>
      <trkpt lat="45.28874" lon="4.73094">
        <ele>373</ele>
        <time>2022-01-26T07:47:41Z</time>
      </trkpt>
      <trkpt lat="45.28853" lon="4.73042">
        <ele>372.79998779297</ele>
        <time>2022-01-26T07:47:48Z</time>
      </trkpt>
      <trkpt lat="45.28832" lon="4.72974">
        <ele>372.79998779297</ele>
        <time>2022-01-26T07:47:57Z</time>
      </trkpt>
      <trkpt lat="45.28821" lon="4.72947">
        <ele>373</ele>
        <time>2022-01-26T07:48:01Z</time>
      </trkpt>
      <trkpt lat="45.28806" lon="4.72923">
        <ele>373.20001220703</ele>
        <time>2022-01-26T07:48:05Z</time>
      </trkpt>
      <trkpt lat="45.2879" lon="4.7291">
        <ele>373.39999389648</ele>
        <time>2022-01-26T07:48:09Z</time>
      </trkpt>
      <trkpt lat="45.28786" lon="4.72908">
        <ele>373.39999389648</ele>
        <time>2022-01-26T07:48:10Z</time>
      </trkpt>
      <trkpt lat="45.28782" lon="4.72903">
        <ele>374</ele>
        <time>2022-01-26T07:48:12Z</time>
      </trkpt>
      <trkpt lat="45.28754" lon="4.72883">
        <ele>374.39999389648</ele>
        <time>2022-01-26T07:48:18Z</time>
      </trkpt>
      <trkpt lat="45.28759" lon="4.72859">
        <ele>375</ele>
        <time>2022-01-26T07:48:24Z</time>
      </trkpt>
      <trkpt lat="45.28763" lon="4.72852">
        <ele>375.60000610352</ele>
        <time>2022-01-26T07:48:26Z</time>
      </trkpt>
      <trkpt lat="45.28777" lon="4.72805">
        <ele>377.20001220703</ele>
        <time>2022-01-26T07:48:36Z</time>
      </trkpt>
      <trkpt lat="45.28781" lon="4.72754">
        <ele>378.60000610352</ele>
        <time>2022-01-26T07:48:46Z</time>
      </trkpt>
      <trkpt lat="45.28781" lon="4.72685">
        <ele>381</ele>
        <time>2022-01-26T07:49:00Z</time>
      </trkpt>
      <trkpt lat="45.28793" lon="4.72631">
        <ele>382.60000610352</ele>
        <time>2022-01-26T07:49:11Z</time>
      </trkpt>
      <trkpt lat="45.28793" lon="4.72621">
        <ele>383</ele>
        <time>2022-01-26T07:49:13Z</time>
      </trkpt>
      <trkpt lat="45.2879" lon="4.72599">
        <ele>383.39999389648</ele>
        <time>2022-01-26T07:49:17Z</time>
      </trkpt>
      <trkpt lat="45.28783" lon="4.72528">
        <ele>385.79998779297</ele>
        <time>2022-01-26T07:49:31Z</time>
      </trkpt>
      <trkpt lat="45.28794" lon="4.72472">
        <ele>387.79998779297</ele>
        <time>2022-01-26T07:49:43Z</time>
      </trkpt>
      <trkpt lat="45.28782" lon="4.72436">
        <ele>388</ele>
        <time>2022-01-26T07:49:49Z</time>
      </trkpt>
      <trkpt lat="45.28751" lon="4.72371">
        <ele>389.60000610352</ele>
        <time>2022-01-26T07:50:03Z</time>
      </trkpt>
      <trkpt lat="45.28719" lon="4.72323">
        <ele>391.39999389648</ele>
        <time>2022-01-26T07:50:16Z</time>
      </trkpt>
      <trkpt lat="45.28692" lon="4.72273">
        <ele>392.20001220703</ele>
        <time>2022-01-26T07:50:29Z</time>
      </trkpt>
      <trkpt lat="45.28678" lon="4.72235">
        <ele>394</ele>
        <time>2022-01-26T07:50:40Z</time>
      </trkpt>
      <trkpt lat="45.28662" lon="4.72191">
        <ele>397</ele>
        <time>2022-01-26T07:50:53Z</time>
      </trkpt>
      <trkpt lat="45.28644" lon="4.72144">
        <ele>399</ele>
        <time>2022-01-26T07:51:07Z</time>
      </trkpt>
      <trkpt lat="45.28628" lon="4.72098">
        <ele>402</ele>
        <time>2022-01-26T07:51:21Z</time>
      </trkpt>
      <trkpt lat="45.28611" lon="4.72044">
        <ele>403.60000610352</ele>
        <time>2022-01-26T07:51:35Z</time>
      </trkpt>
      <trkpt lat="45.28594" lon="4.71991">
        <ele>405.60000610352</ele>
        <time>2022-01-26T07:51:48Z</time>
      </trkpt>
      <trkpt lat="45.28576" lon="4.71932">
        <ele>407.60000610352</ele>
        <time>2022-01-26T07:52:03Z</time>
      </trkpt>
      <trkpt lat="45.28547" lon="4.7186">
        <ele>410</ele>
        <time>2022-01-26T07:52:21Z</time>
      </trkpt>
      <trkpt lat="45.28527" lon="4.71799">
        <ele>411.20001220703</ele>
        <time>2022-01-26T07:52:36Z</time>
      </trkpt>
      <trkpt lat="45.28507" lon="4.71737">
        <ele>413.39999389648</ele>
        <time>2022-01-26T07:52:52Z</time>
      </trkpt>
      <trkpt lat="45.28493" lon="4.71667">
        <ele>416.39999389648</ele>
        <time>2022-01-26T07:53:09Z</time>
      </trkpt>
      <trkpt lat="45.28483" lon="4.71604">
        <ele>418.60000610352</ele>
        <time>2022-01-26T07:53:25Z</time>
      </trkpt>
      <trkpt lat="45.28479" lon="4.71563">
        <ele>421.60000610352</ele>
        <time>2022-01-26T07:53:36Z</time>
      </trkpt>
      <trkpt lat="45.28478" lon="4.71525">
        <ele>424.79998779297</ele>
        <time>2022-01-26T07:53:50Z</time>
      </trkpt>
      <trkpt lat="45.28477" lon="4.71502">
        <ele>427.79998779297</ele>
        <time>2022-01-26T07:54:01Z</time>
      </trkpt>
      <trkpt lat="45.28474" lon="4.71465">
        <ele>430.60000610352</ele>
        <time>2022-01-26T07:54:16Z</time>
      </trkpt>
      <trkpt lat="45.28469" lon="4.71426">
        <ele>433.79998779297</ele>
        <time>2022-01-26T07:54:32Z</time>
      </trkpt>
      <trkpt lat="45.28468" lon="4.71394">
        <ele>436.60000610352</ele>
        <time>2022-01-26T07:54:46Z</time>
      </trkpt>
      <trkpt lat="45.28466" lon="4.71369">
        <ele>439.60000610352</ele>
        <time>2022-01-26T07:54:58Z</time>
      </trkpt>
      <trkpt lat="45.28464" lon="4.71347">
        <ele>442.79998779297</ele>
        <time>2022-01-26T07:55:09Z</time>
      </trkpt>
      <trkpt lat="45.28462" lon="4.71325">
        <ele>445.79998779297</ele>
        <time>2022-01-26T07:55:20Z</time>
      </trkpt>
      <trkpt lat="45.28461" lon="4.71314">
        <ele>447</ele>
        <time>2022-01-26T07:55:25Z</time>
      </trkpt>
      <trkpt lat="45.28457" lon="4.71292">
        <ele>449</ele>
        <time>2022-01-26T07:55:35Z</time>
      </trkpt>
      <trkpt lat="45.28455" lon="4.71266">
        <ele>450.20001220703</ele>
        <time>2022-01-26T07:55:47Z</time>
      </trkpt>
      <trkpt lat="45.28454" lon="4.71238">
        <ele>452</ele>
        <time>2022-01-26T07:55:59Z</time>
      </trkpt>
      <trkpt lat="45.28457" lon="4.71206">
        <ele>455.20001220703</ele>
        <time>2022-01-26T07:56:13Z</time>
      </trkpt>
      <trkpt lat="45.28461" lon="4.71175">
        <ele>458.20001220703</ele>
        <time>2022-01-26T07:56:25Z</time>
      </trkpt>
      <trkpt lat="45.28463" lon="4.71137">
        <ele>460.20001220703</ele>
        <time>2022-01-26T07:56:38Z</time>
      </trkpt>
      <trkpt lat="45.28468" lon="4.71097">
        <ele>461.79998779297</ele>
        <time>2022-01-26T07:56:52Z</time>
      </trkpt>
      <trkpt lat="45.28467" lon="4.71061">
        <ele>463.60000610352</ele>
        <time>2022-01-26T07:57:04Z</time>
      </trkpt>
      <trkpt lat="45.28466" lon="4.71029">
        <ele>466.60000610352</ele>
        <time>2022-01-26T07:57:16Z</time>
      </trkpt>
      <trkpt lat="45.28466" lon="4.70982">
        <ele>468.79998779297</ele>
        <time>2022-01-26T07:57:31Z</time>
      </trkpt>
      <trkpt lat="45.28465" lon="4.70929">
        <ele>472</ele>
        <time>2022-01-26T07:57:47Z</time>
      </trkpt>
      <trkpt lat="45.28465" lon="4.70876">
        <ele>474.79998779297</ele>
        <time>2022-01-26T07:58:03Z</time>
      </trkpt>
      <trkpt lat="45.28462" lon="4.70799">
        <ele>477.79998779297</ele>
        <time>2022-01-26T07:58:22Z</time>
      </trkpt>
      <trkpt lat="45.28456" lon="4.70723">
        <ele>479.20001220703</ele>
        <time>2022-01-26T07:58:40Z</time>
      </trkpt>
      <trkpt lat="45.2844" lon="4.70645">
        <ele>480.60000610352</ele>
        <time>2022-01-26T07:58:57Z</time>
      </trkpt>
      <trkpt lat="45.28409" lon="4.7053">
        <ele>480.20001220703</ele>
        <time>2022-01-26T07:59:18Z</time>
      </trkpt>
      <trkpt lat="45.28389" lon="4.705">
        <ele>480.39999389648</ele>
        <time>2022-01-26T07:59:25Z</time>
      </trkpt>
      <trkpt lat="45.28369" lon="4.70465">
        <ele>482</ele>
        <time>2022-01-26T07:59:37Z</time>
      </trkpt>
      <trkpt lat="45.28352" lon="4.70436">
        <ele>485</ele>
        <time>2022-01-26T07:59:49Z</time>
      </trkpt>
      <trkpt lat="45.28339" lon="4.70404">
        <ele>487.20001220703</ele>
        <time>2022-01-26T08:00:01Z</time>
      </trkpt>
      <trkpt lat="45.28331" lon="4.70373">
        <ele>490.20001220703</ele>
        <time>2022-01-26T08:00:13Z</time>
      </trkpt>
      <trkpt lat="45.28327" lon="4.70365">
        <ele>491</ele>
        <time>2022-01-26T08:00:17Z</time>
      </trkpt>
      <trkpt lat="45.28309" lon="4.7037">
        <ele>493.60000610352</ele>
        <time>2022-01-26T08:00:28Z</time>
      </trkpt>
      <trkpt lat="45.28271" lon="4.70391">
        <ele>495.60000610352</ele>
        <time>2022-01-26T08:00:47Z</time>
      </trkpt>
      <trkpt lat="45.2823" lon="4.70408">
        <ele>496.39999389648</ele>
        <time>2022-01-26T08:01:06Z</time>
      </trkpt>
      <trkpt lat="45.28192" lon="4.70424">
        <ele>497.39999389648</ele>
        <time>2022-01-26T08:01:23Z</time>
      </trkpt>
      <trkpt lat="45.28153" lon="4.70438">
        <ele>500.20001220703</ele>
        <time>2022-01-26T08:01:41Z</time>
      </trkpt>
      <trkpt lat="45.28125" lon="4.70452">
        <ele>503.20001220703</ele>
        <time>2022-01-26T08:01:53Z</time>
      </trkpt>
      <trkpt lat="45.2808" lon="4.70476">
        <ele>502.60000610352</ele>
        <time>2022-01-26T08:02:05Z</time>
      </trkpt>
      <trkpt lat="45.28048" lon="4.70468">
        <ele>503.60000610352</ele>
        <time>2022-01-26T08:02:17Z</time>
      </trkpt>
      <trkpt lat="45.28027" lon="4.70443">
        <ele>505</ele>
        <time>2022-01-26T08:02:29Z</time>
      </trkpt>
      <trkpt lat="45.28013" lon="4.70431">
        <ele>507.60000610352</ele>
        <time>2022-01-26T08:02:37Z</time>
      </trkpt>
      <trkpt lat="45.28" lon="4.70418">
        <ele>509.39999389648</ele>
        <time>2022-01-26T08:02:43Z</time>
      </trkpt>
      <trkpt lat="45.27991" lon="4.70415">
        <ele>509.79998779297</ele>
        <time>2022-01-26T08:02:45Z</time>
      </trkpt>
      <trkpt lat="45.27981" lon="4.70407">
        <ele>510.60000610352</ele>
        <time>2022-01-26T08:02:49Z</time>
      </trkpt>
      <trkpt lat="45.27969" lon="4.704">
        <ele>510.60000610352</ele>
        <time>2022-01-26T08:02:56Z</time>
      </trkpt>
      <trkpt lat="45.27943" lon="4.70379">
        <ele>511.20001220703</ele>
        <time>2022-01-26T08:03:08Z</time>
      </trkpt>
      <trkpt lat="45.27932" lon="4.70364">
        <ele>512.79998779297</ele>
        <time>2022-01-26T08:03:15Z</time>
      </trkpt>
      <trkpt lat="45.27931" lon="4.70361">
        <ele>512.79998779297</ele>
        <time>2022-01-26T08:03:16Z</time>
      </trkpt>
      <trkpt lat="45.27924" lon="4.70346">
        <ele>514.20001220703</ele>
        <time>2022-01-26T08:03:23Z</time>
      </trkpt>
      <trkpt lat="45.27922" lon="4.70333">
        <ele>515</ele>
        <time>2022-01-26T08:03:27Z</time>
      </trkpt>
      <trkpt lat="45.27917" lon="4.70315">
        <ele>515.40002441406</ele>
        <time>2022-01-26T08:03:31Z</time>
      </trkpt>
      <trkpt lat="45.27912" lon="4.70292">
        <ele>515.79998779297</ele>
        <time>2022-01-26T08:03:35Z</time>
      </trkpt>
      <trkpt lat="45.27899" lon="4.7026">
        <ele>515.79998779297</ele>
        <time>2022-01-26T08:03:41Z</time>
      </trkpt>
      <trkpt lat="45.27876" lon="4.70212">
        <ele>514.20001220703</ele>
        <time>2022-01-26T08:03:48Z</time>
      </trkpt>
      <trkpt lat="45.27862" lon="4.70191">
        <ele>513.40002441406</ele>
        <time>2022-01-26T08:03:51Z</time>
      </trkpt>
      <trkpt lat="45.27841" lon="4.70145">
        <ele>510.60000610352</ele>
        <time>2022-01-26T08:03:57Z</time>
      </trkpt>
      <trkpt lat="45.27825" lon="4.70125">
        <ele>508.79998779297</ele>
        <time>2022-01-26T08:04:01Z</time>
      </trkpt>
      <trkpt lat="45.27812" lon="4.7011">
        <ele>506.20001220703</ele>
        <time>2022-01-26T08:04:06Z</time>
      </trkpt>
      <trkpt lat="45.27791" lon="4.70097">
        <ele>503</ele>
        <time>2022-01-26T08:04:12Z</time>
      </trkpt>
      <trkpt lat="45.27787" lon="4.70094">
        <ele>502.79998779297</ele>
        <time>2022-01-26T08:04:13Z</time>
      </trkpt>
      <trkpt lat="45.27777" lon="4.70082">
        <ele>502</ele>
        <time>2022-01-26T08:04:16Z</time>
      </trkpt>
      <trkpt lat="45.2774" lon="4.70067">
        <ele>500.60000610352</ele>
        <time>2022-01-26T08:04:23Z</time>
      </trkpt>
      <trkpt lat="45.27681" lon="4.7006">
        <ele>501.60000610352</ele>
        <time>2022-01-26T08:04:35Z</time>
      </trkpt>
      <trkpt lat="45.27672" lon="4.70056">
        <ele>501.60000610352</ele>
        <time>2022-01-26T08:04:37Z</time>
      </trkpt>
      <trkpt lat="45.27645" lon="4.70023">
        <ele>501.79998779297</ele>
        <time>2022-01-26T08:04:44Z</time>
      </trkpt>
      <trkpt lat="45.2763" lon="4.70015">
        <ele>501.60000610352</ele>
        <time>2022-01-26T08:04:47Z</time>
      </trkpt>
      <trkpt lat="45.27569" lon="4.7001">
        <ele>500.79998779297</ele>
        <time>2022-01-26T08:04:58Z</time>
      </trkpt>
      <trkpt lat="45.27516" lon="4.70016">
        <ele>498.39999389648</ele>
        <time>2022-01-26T08:05:06Z</time>
      </trkpt>
      <trkpt lat="45.27512" lon="4.69986">
        <ele>495.79998779297</ele>
        <time>2022-01-26T08:05:12Z</time>
      </trkpt>
      <trkpt lat="45.27513" lon="4.69949">
        <ele>492.39999389648</ele>
        <time>2022-01-26T08:05:16Z</time>
      </trkpt>
      <trkpt lat="45.27513" lon="4.69939">
        <ele>492.20001220703</ele>
        <time>2022-01-26T08:05:17Z</time>
      </trkpt>
      <trkpt lat="45.27513" lon="4.69931">
        <ele>491.79998779297</ele>
        <time>2022-01-26T08:05:18Z</time>
      </trkpt>
      <trkpt lat="45.27499" lon="4.69902">
        <ele>490</ele>
        <time>2022-01-26T08:05:22Z</time>
      </trkpt>
      <trkpt lat="45.27484" lon="4.69887">
        <ele>488.79998779297</ele>
        <time>2022-01-26T08:05:24Z</time>
      </trkpt>
      <trkpt lat="45.27475" lon="4.6988">
        <ele>487.79998779297</ele>
        <time>2022-01-26T08:05:25Z</time>
      </trkpt>
      <trkpt lat="45.27457" lon="4.69857">
        <ele>484</ele>
        <time>2022-01-26T08:05:28Z</time>
      </trkpt>
      <trkpt lat="45.27444" lon="4.69818">
        <ele>481.20001220703</ele>
        <time>2022-01-26T08:05:32Z</time>
      </trkpt>
      <trkpt lat="45.27436" lon="4.69783">
        <ele>477.60000610352</ele>
        <time>2022-01-26T08:05:35Z</time>
      </trkpt>
      <trkpt lat="45.27422" lon="4.69724">
        <ele>474.39999389648</ele>
        <time>2022-01-26T08:05:40Z</time>
      </trkpt>
      <trkpt lat="45.27405" lon="4.6966">
        <ele>470.60000610352</ele>
        <time>2022-01-26T08:05:46Z</time>
      </trkpt>
      <trkpt lat="45.27399" lon="4.69639">
        <ele>468.60000610352</ele>
        <time>2022-01-26T08:05:49Z</time>
      </trkpt>
      <trkpt lat="45.27396" lon="4.69622">
        <ele>466.60000610352</ele>
        <time>2022-01-26T08:05:52Z</time>
      </trkpt>
      <trkpt lat="45.27387" lon="4.69587">
        <ele>463.39999389648</ele>
        <time>2022-01-26T08:05:56Z</time>
      </trkpt>
      <trkpt lat="45.27371" lon="4.69524">
        <ele>459.39999389648</ele>
        <time>2022-01-26T08:06:02Z</time>
      </trkpt>
      <trkpt lat="45.27366" lon="4.69502">
        <ele>458.39999389648</ele>
        <time>2022-01-26T08:06:04Z</time>
      </trkpt>
      <trkpt lat="45.27349" lon="4.69437">
        <ele>454.39999389648</ele>
        <time>2022-01-26T08:06:10Z</time>
      </trkpt>
      <trkpt lat="45.27342" lon="4.69405">
        <ele>453</ele>
        <time>2022-01-26T08:06:13Z</time>
      </trkpt>
      <trkpt lat="45.27317" lon="4.69309">
        <ele>449.39999389648</ele>
        <time>2022-01-26T08:06:22Z</time>
      </trkpt>
      <trkpt lat="45.27312" lon="4.69289">
        <ele>448.20001220703</ele>
        <time>2022-01-26T08:06:24Z</time>
      </trkpt>
      <trkpt lat="45.27306" lon="4.69245">
        <ele>445</ele>
        <time>2022-01-26T08:06:28Z</time>
      </trkpt>
      <trkpt lat="45.27307" lon="4.69234">
        <ele>444</ele>
        <time>2022-01-26T08:06:29Z</time>
      </trkpt>
      <trkpt lat="45.27307" lon="4.69224">
        <ele>443.79998779297</ele>
        <time>2022-01-26T08:06:30Z</time>
      </trkpt>
      <trkpt lat="45.27307" lon="4.69133">
        <ele>441.79998779297</ele>
        <time>2022-01-26T08:06:41Z</time>
      </trkpt>
      <trkpt lat="45.27307" lon="4.69091">
        <ele>443.60000610352</ele>
        <time>2022-01-26T08:06:50Z</time>
      </trkpt>
      <trkpt lat="45.27309" lon="4.69049">
        <ele>446.39999389648</ele>
        <time>2022-01-26T08:07:03Z</time>
      </trkpt>
      <trkpt lat="45.27318" lon="4.68996">
        <ele>448.20001220703</ele>
        <time>2022-01-26T08:07:17Z</time>
      </trkpt>
      <trkpt lat="45.27331" lon="4.6892">
        <ele>449.79998779297</ele>
        <time>2022-01-26T08:07:34Z</time>
      </trkpt>
      <trkpt lat="45.27344" lon="4.6885">
        <ele>449.60000610352</ele>
        <time>2022-01-26T08:07:49Z</time>
      </trkpt>
      <trkpt lat="45.27347" lon="4.6875">
        <ele>450.60000610352</ele>
        <time>2022-01-26T08:08:08Z</time>
      </trkpt>
      <trkpt lat="45.27319" lon="4.68639">
        <ele>448.60000610352</ele>
        <time>2022-01-26T08:08:24Z</time>
      </trkpt>
      <trkpt lat="45.2731" lon="4.6861">
        <ele>448.39999389648</ele>
        <time>2022-01-26T08:08:28Z</time>
      </trkpt>
      <trkpt lat="45.27276" lon="4.68506">
        <ele>445.79998779297</ele>
        <time>2022-01-26T08:08:41Z</time>
      </trkpt>
      <trkpt lat="45.27254" lon="4.68456">
        <ele>443.79998779297</ele>
        <time>2022-01-26T08:08:47Z</time>
      </trkpt>
      <trkpt lat="45.27244" lon="4.68389">
        <ele>440.79998779297</ele>
        <time>2022-01-26T08:08:55Z</time>
      </trkpt>
      <trkpt lat="45.27243" lon="4.68376">
        <ele>439.79998779297</ele>
        <time>2022-01-26T08:08:57Z</time>
      </trkpt>
      <trkpt lat="45.27224" lon="4.68361">
        <ele>438.60000610352</ele>
        <time>2022-01-26T08:09:01Z</time>
      </trkpt>
      <trkpt lat="45.27212" lon="4.68357">
        <ele>438.20001220703</ele>
        <time>2022-01-26T08:09:03Z</time>
      </trkpt>
      <trkpt lat="45.27204" lon="4.68323">
        <ele>436.39999389648</ele>
        <time>2022-01-26T08:09:08Z</time>
      </trkpt>
      <trkpt lat="45.27205" lon="4.68313">
        <ele>436</ele>
        <time>2022-01-26T08:09:09Z</time>
      </trkpt>
      <trkpt lat="45.27195" lon="4.68274">
        <ele>432.39999389648</ele>
        <time>2022-01-26T08:09:13Z</time>
      </trkpt>
      <trkpt lat="45.2719" lon="4.68265">
        <ele>432</ele>
        <time>2022-01-26T08:09:14Z</time>
      </trkpt>
      <trkpt lat="45.27181" lon="4.68248">
        <ele>430.39999389648</ele>
        <time>2022-01-26T08:09:16Z</time>
      </trkpt>
      <trkpt lat="45.2717" lon="4.68193">
        <ele>428.60000610352</ele>
        <time>2022-01-26T08:09:21Z</time>
      </trkpt>
      <trkpt lat="45.27168" lon="4.68156">
        <ele>426.60000610352</ele>
        <time>2022-01-26T08:09:24Z</time>
      </trkpt>
      <trkpt lat="45.27169" lon="4.68119">
        <ele>425</ele>
        <time>2022-01-26T08:09:28Z</time>
      </trkpt>
      <trkpt lat="45.27161" lon="4.68099">
        <ele>423.39999389648</ele>
        <time>2022-01-26T08:09:31Z</time>
      </trkpt>
      <trkpt lat="45.27157" lon="4.68093">
        <ele>422.60000610352</ele>
        <time>2022-01-26T08:09:32Z</time>
      </trkpt>
      <trkpt lat="45.27134" lon="4.68058">
        <ele>421.79998779297</ele>
        <time>2022-01-26T08:09:39Z</time>
      </trkpt>
      <trkpt lat="45.27118" lon="4.68014">
        <ele>422</ele>
        <time>2022-01-26T08:09:47Z</time>
      </trkpt>
      <trkpt lat="45.27094" lon="4.67875">
        <ele>422.79998779297</ele>
        <time>2022-01-26T08:10:11Z</time>
      </trkpt>
      <trkpt lat="45.27114" lon="4.67854">
        <ele>423</ele>
        <time>2022-01-26T08:10:18Z</time>
      </trkpt>
      <trkpt lat="45.27149" lon="4.67834">
        <ele>424.79998779297</ele>
        <time>2022-01-26T08:10:34Z</time>
      </trkpt>
      <trkpt lat="45.27199" lon="4.67805">
        <ele>427.79998779297</ele>
        <time>2022-01-26T08:10:56Z</time>
      </trkpt>
      <trkpt lat="45.27233" lon="4.67787">
        <ele>429.79998779297</ele>
        <time>2022-01-26T08:11:11Z</time>
      </trkpt>
      <trkpt lat="45.27262" lon="4.67772">
        <ele>431.39999389648</ele>
        <time>2022-01-26T08:11:23Z</time>
      </trkpt>
      <trkpt lat="45.27294" lon="4.67753">
        <ele>433.20001220703</ele>
        <time>2022-01-26T08:11:37Z</time>
      </trkpt>
      <trkpt lat="45.2732" lon="4.67738">
        <ele>435.20001220703</ele>
        <time>2022-01-26T08:11:48Z</time>
      </trkpt>
      <trkpt lat="45.27341" lon="4.67726">
        <ele>437</ele>
        <time>2022-01-26T08:11:57Z</time>
      </trkpt>
      <trkpt lat="45.27362" lon="4.67713">
        <ele>438.79998779297</ele>
        <time>2022-01-26T08:12:06Z</time>
      </trkpt>
      <trkpt lat="45.27388" lon="4.67698">
        <ele>441.20001220703</ele>
        <time>2022-01-26T08:12:18Z</time>
      </trkpt>
      <trkpt lat="45.27424" lon="4.67675">
        <ele>443.20001220703</ele>
        <time>2022-01-26T08:12:34Z</time>
      </trkpt>
      <trkpt lat="45.27428" lon="4.67635">
        <ele>445.20001220703</ele>
        <time>2022-01-26T08:12:46Z</time>
      </trkpt>
      <trkpt lat="45.27412" lon="4.67605">
        <ele>445.60000610352</ele>
        <time>2022-01-26T08:12:56Z</time>
      </trkpt>
      <trkpt lat="45.2738" lon="4.6757">
        <ele>445.20001220703</ele>
        <time>2022-01-26T08:13:05Z</time>
      </trkpt>
      <trkpt lat="45.27361" lon="4.67543">
        <ele>444.60000610352</ele>
        <time>2022-01-26T08:13:10Z</time>
      </trkpt>
      <trkpt lat="45.27328" lon="4.67487">
        <ele>444</ele>
        <time>2022-01-26T08:13:20Z</time>
      </trkpt>
      <trkpt lat="45.27307" lon="4.67451">
        <ele>443.60000610352</ele>
        <time>2022-01-26T08:13:26Z</time>
      </trkpt>
      <trkpt lat="45.27295" lon="4.67424">
        <ele>443.39999389648</ele>
        <time>2022-01-26T08:13:30Z</time>
      </trkpt>
      <trkpt lat="45.27265" lon="4.67335">
        <ele>443</ele>
        <time>2022-01-26T08:13:42Z</time>
      </trkpt>
      <trkpt lat="45.27262" lon="4.67321">
        <ele>442.79998779297</ele>
        <time>2022-01-26T08:13:44Z</time>
      </trkpt>
      <trkpt lat="45.27231" lon="4.67185">
        <ele>442.20001220703</ele>
        <time>2022-01-26T08:14:03Z</time>
      </trkpt>
      <trkpt lat="45.27198" lon="4.67092">
        <ele>443.79998779297</ele>
        <time>2022-01-26T08:14:20Z</time>
      </trkpt>
      <trkpt lat="45.27189" lon="4.67048">
        <ele>444.79998779297</ele>
        <time>2022-01-26T08:14:31Z</time>
      </trkpt>
      <trkpt lat="45.27174" lon="4.67">
        <ele>445.39999389648</ele>
        <time>2022-01-26T08:14:40Z</time>
      </trkpt>
      <trkpt lat="45.27129" lon="4.66835">
        <ele>442.39999389648</ele>
        <time>2022-01-26T08:15:02Z</time>
      </trkpt>
      <trkpt lat="45.2712" lon="4.66802">
        <ele>441.60000610352</ele>
        <time>2022-01-26T08:15:09Z</time>
      </trkpt>
      <trkpt lat="45.27093" lon="4.66794">
        <ele>441.39999389648</ele>
        <time>2022-01-26T08:15:17Z</time>
      </trkpt>
      <trkpt lat="45.27083" lon="4.66788">
        <ele>440.79998779297</ele>
        <time>2022-01-26T08:15:21Z</time>
      </trkpt>
      <trkpt lat="45.27075" lon="4.66788">
        <ele>439.60000610352</ele>
        <time>2022-01-26T08:15:26Z</time>
      </trkpt>
      <trkpt lat="45.27075" lon="4.66771">
        <ele>439.60000610352</ele>
        <time>2022-01-26T08:15:30Z</time>
      </trkpt>
      <trkpt lat="45.27061" lon="4.66756">
        <ele>439.60000610352</ele>
        <time>2022-01-26T08:15:38Z</time>
      </trkpt>
      <trkpt lat="45.27031" lon="4.66764">
        <ele>438.79998779297</ele>
        <time>2022-01-26T08:15:44Z</time>
      </trkpt>
      <trkpt lat="45.27026" lon="4.66765">
        <ele>437.60000610352</ele>
        <time>2022-01-26T08:15:46Z</time>
      </trkpt>
      <trkpt lat="45.27021" lon="4.66753">
        <ele>436</ele>
        <time>2022-01-26T08:15:48Z</time>
      </trkpt>
      <trkpt lat="45.27008" lon="4.66758">
        <ele>435.20001220703</ele>
        <time>2022-01-26T08:15:51Z</time>
      </trkpt>
      <trkpt lat="45.26994" lon="4.66765">
        <ele>435</ele>
        <time>2022-01-26T08:15:53Z</time>
      </trkpt>
      <trkpt lat="45.2693" lon="4.66787">
        <ele>431.79998779297</ele>
        <time>2022-01-26T08:16:01Z</time>
      </trkpt>
      <trkpt lat="45.26891" lon="4.6679">
        <ele>430</ele>
        <time>2022-01-26T08:16:05Z</time>
      </trkpt>
      <trkpt lat="45.26845" lon="4.66829">
        <ele>426.60000610352</ele>
        <time>2022-01-26T08:16:10Z</time>
      </trkpt>
      <trkpt lat="45.26833" lon="4.66856">
        <ele>425</ele>
        <time>2022-01-26T08:16:12Z</time>
      </trkpt>
      <trkpt lat="45.26818" lon="4.66899">
        <ele>421.79998779297</ele>
        <time>2022-01-26T08:16:15Z</time>
      </trkpt>
      <trkpt lat="45.26791" lon="4.66938">
        <ele>418.20001220703</ele>
        <time>2022-01-26T08:16:19Z</time>
      </trkpt>
      <trkpt lat="45.26767" lon="4.66947">
        <ele>415.20001220703</ele>
        <time>2022-01-26T08:16:22Z</time>
      </trkpt>
      <trkpt lat="45.26737" lon="4.66939">
        <ele>411.79998779297</ele>
        <time>2022-01-26T08:16:26Z</time>
      </trkpt>
      <trkpt lat="45.26721" lon="4.66908">
        <ele>409</ele>
        <time>2022-01-26T08:16:30Z</time>
      </trkpt>
      <trkpt lat="45.26717" lon="4.66889">
        <ele>408.20001220703</ele>
        <time>2022-01-26T08:16:33Z</time>
      </trkpt>
      <trkpt lat="45.26713" lon="4.66849">
        <ele>407.79998779297</ele>
        <time>2022-01-26T08:16:39Z</time>
      </trkpt>
      <trkpt lat="45.26706" lon="4.66772">
        <ele>406.79998779297</ele>
        <time>2022-01-26T08:16:50Z</time>
      </trkpt>
      <trkpt lat="45.26715" lon="4.66713">
        <ele>407.20001220703</ele>
        <time>2022-01-26T08:16:59Z</time>
      </trkpt>
      <trkpt lat="45.26745" lon="4.66643">
        <ele>407.60000610352</ele>
        <time>2022-01-26T08:17:11Z</time>
      </trkpt>
      <trkpt lat="45.26754" lon="4.666">
        <ele>408</ele>
        <time>2022-01-26T08:17:18Z</time>
      </trkpt>
      <trkpt lat="45.26757" lon="4.66544">
        <ele>408.79998779297</ele>
        <time>2022-01-26T08:17:27Z</time>
      </trkpt>
      <trkpt lat="45.26758" lon="4.66438">
        <ele>411.39999389648</ele>
        <time>2022-01-26T08:17:47Z</time>
      </trkpt>
      <trkpt lat="45.26766" lon="4.66396">
        <ele>413</ele>
        <time>2022-01-26T08:17:56Z</time>
      </trkpt>
      <trkpt lat="45.26796" lon="4.66294">
        <ele>411.79998779297</ele>
        <time>2022-01-26T08:18:11Z</time>
      </trkpt>
      <trkpt lat="45.26801" lon="4.66281">
        <ele>411.39999389648</ele>
        <time>2022-01-26T08:18:13Z</time>
      </trkpt>
      <trkpt lat="45.26819" lon="4.66241">
        <ele>410.60000610352</ele>
        <time>2022-01-26T08:18:19Z</time>
      </trkpt>
      <trkpt lat="45.26822" lon="4.66235">
        <ele>410.39999389648</ele>
        <time>2022-01-26T08:18:20Z</time>
      </trkpt>
      <trkpt lat="45.26882" lon="4.66153">
        <ele>410.60000610352</ele>
        <time>2022-01-26T08:18:37Z</time>
      </trkpt>
      <trkpt lat="45.26931" lon="4.66067">
        <ele>411.39999389648</ele>
        <time>2022-01-26T08:18:54Z</time>
      </trkpt>
      <trkpt lat="45.26942" lon="4.66035">
        <ele>411.79998779297</ele>
        <time>2022-01-26T08:18:59Z</time>
      </trkpt>
      <trkpt lat="45.26962" lon="4.65923">
        <ele>412.79998779297</ele>
        <time>2022-01-26T08:19:20Z</time>
      </trkpt>
      <trkpt lat="45.26967" lon="4.65832">
        <ele>413.79998779297</ele>
        <time>2022-01-26T08:19:38Z</time>
      </trkpt>
      <trkpt lat="45.26963" lon="4.65801">
        <ele>413.79998779297</ele>
        <time>2022-01-26T08:19:43Z</time>
      </trkpt>
      <trkpt lat="45.26927" lon="4.65638">
        <ele>413.79998779297</ele>
        <time>2022-01-26T08:20:07Z</time>
      </trkpt>
      <trkpt lat="45.26916" lon="4.65546">
        <ele>412.60000610352</ele>
        <time>2022-01-26T08:20:18Z</time>
      </trkpt>
      <trkpt lat="45.26914" lon="4.6553">
        <ele>412.39999389648</ele>
        <time>2022-01-26T08:20:20Z</time>
      </trkpt>
      <trkpt lat="45.26901" lon="4.65361">
        <ele>409.60000610352</ele>
        <time>2022-01-26T08:20:37Z</time>
      </trkpt>
      <trkpt lat="45.269" lon="4.65351">
        <ele>409.39999389648</ele>
        <time>2022-01-26T08:20:38Z</time>
      </trkpt>
      <trkpt lat="45.26895" lon="4.6529">
        <ele>408.39999389648</ele>
        <time>2022-01-26T08:20:45Z</time>
      </trkpt>
      <trkpt lat="45.26894" lon="4.65278">
        <ele>407.79998779297</ele>
        <time>2022-01-26T08:20:48Z</time>
      </trkpt>
      <trkpt lat="45.26895" lon="4.6526">
        <ele>407.60000610352</ele>
        <time>2022-01-26T08:20:55Z</time>
      </trkpt>
      <trkpt lat="45.26894" lon="4.65255">
        <ele>407.60000610352</ele>
        <time>2022-01-26T08:20:56Z</time>
      </trkpt>
      <trkpt lat="45.26893" lon="4.65198">
        <ele>407.39999389648</ele>
        <time>2022-01-26T08:21:04Z</time>
      </trkpt>
      <trkpt lat="45.26893" lon="4.65191">
        <ele>407.39999389648</ele>
        <time>2022-01-26T08:21:05Z</time>
      </trkpt>
      <trkpt lat="45.26898" lon="4.65137">
        <ele>407.20001220703</ele>
        <time>2022-01-26T08:21:13Z</time>
      </trkpt>
      <trkpt lat="45.26919" lon="4.65063">
        <ele>407.20001220703</ele>
        <time>2022-01-26T08:21:24Z</time>
      </trkpt>
      <trkpt lat="45.26929" lon="4.65032">
        <ele>407.20001220703</ele>
        <time>2022-01-26T08:21:29Z</time>
      </trkpt>
      <trkpt lat="45.26962" lon="4.6497">
        <ele>407.39999389648</ele>
        <time>2022-01-26T08:21:40Z</time>
      </trkpt>
      <trkpt lat="45.27" lon="4.64921">
        <ele>407.39999389648</ele>
        <time>2022-01-26T08:21:50Z</time>
      </trkpt>
      <trkpt lat="45.27043" lon="4.64882">
        <ele>407.79998779297</ele>
        <time>2022-01-26T08:22:02Z</time>
      </trkpt>
      <trkpt lat="45.2705" lon="4.64871">
        <ele>408.60000610352</ele>
        <time>2022-01-26T08:22:06Z</time>
      </trkpt>
      <trkpt lat="45.27049" lon="4.64834">
        <ele>409.60000610352</ele>
        <time>2022-01-26T08:22:12Z</time>
      </trkpt>
      <trkpt lat="45.27046" lon="4.64793">
        <ele>409.20001220703</ele>
        <time>2022-01-26T08:22:18Z</time>
      </trkpt>
      <trkpt lat="45.27025" lon="4.64732">
        <ele>408.79998779297</ele>
        <time>2022-01-26T08:22:28Z</time>
      </trkpt>
      <trkpt lat="45.27024" lon="4.64727">
        <ele>409</ele>
        <time>2022-01-26T08:22:29Z</time>
      </trkpt>
      <trkpt lat="45.27019" lon="4.64711">
        <ele>409.20001220703</ele>
        <time>2022-01-26T08:22:32Z</time>
      </trkpt>
      <trkpt lat="45.27015" lon="4.64701">
        <ele>409.39999389648</ele>
        <time>2022-01-26T08:22:34Z</time>
      </trkpt>
      <trkpt lat="45.27005" lon="4.64682">
        <ele>410.20001220703</ele>
        <time>2022-01-26T08:22:38Z</time>
      </trkpt>
      <trkpt lat="45.26979" lon="4.64639">
        <ele>411.79998779297</ele>
        <time>2022-01-26T08:22:49Z</time>
      </trkpt>
      <trkpt lat="45.26976" lon="4.6463">
        <ele>412.20001220703</ele>
        <time>2022-01-26T08:22:51Z</time>
      </trkpt>
      <trkpt lat="45.26984" lon="4.64604">
        <ele>412.39999389648</ele>
        <time>2022-01-26T08:22:55Z</time>
      </trkpt>
      <trkpt lat="45.26991" lon="4.64574">
        <ele>412.20001220703</ele>
        <time>2022-01-26T08:23:00Z</time>
      </trkpt>
      <trkpt lat="45.26977" lon="4.64539">
        <ele>411.79998779297</ele>
        <time>2022-01-26T08:23:07Z</time>
      </trkpt>
      <trkpt lat="45.26946" lon="4.64496">
        <ele>411.79998779297</ele>
        <time>2022-01-26T08:23:17Z</time>
      </trkpt>
      <trkpt lat="45.26926" lon="4.6447">
        <ele>412.79998779297</ele>
        <time>2022-01-26T08:23:28Z</time>
      </trkpt>
      <trkpt lat="45.26925" lon="4.64471">
        <ele>412.79998779297</ele>
        <time>2022-01-26T08:23:29Z</time>
      </trkpt>
      <trkpt lat="45.26919" lon="4.64478">
        <ele>412.20001220703</ele>
        <time>2022-01-26T08:23:38Z</time>
      </trkpt>
      <trkpt lat="45.26916" lon="4.64516">
        <ele>414.60000610352</ele>
        <time>2022-01-26T08:23:55Z</time>
      </trkpt>
      <trkpt lat="45.26917" lon="4.64559">
        <ele>416.60000610352</ele>
        <time>2022-01-26T08:24:07Z</time>
      </trkpt>
      <trkpt lat="45.26917" lon="4.64581">
        <ele>418.39999389648</ele>
        <time>2022-01-26T08:24:14Z</time>
      </trkpt>
      <trkpt lat="45.26916" lon="4.64601">
        <ele>420.20001220703</ele>
        <time>2022-01-26T08:24:22Z</time>
      </trkpt>
      <trkpt lat="45.26908" lon="4.64636">
        <ele>422.79998779297</ele>
        <time>2022-01-26T08:24:36Z</time>
      </trkpt>
      <trkpt lat="45.26891" lon="4.64669">
        <ele>425.39999389648</ele>
        <time>2022-01-26T08:24:52Z</time>
      </trkpt>
      <trkpt lat="45.26874" lon="4.64699">
        <ele>428</ele>
        <time>2022-01-26T08:25:08Z</time>
      </trkpt>
      <trkpt lat="45.26861" lon="4.64717">
        <ele>430.20001220703</ele>
        <time>2022-01-26T08:25:20Z</time>
      </trkpt>
      <trkpt lat="45.26854" lon="4.64731">
        <ele>432</ele>
        <time>2022-01-26T08:25:28Z</time>
      </trkpt>
      <trkpt lat="45.26848" lon="4.64737">
        <ele>432.79998779297</ele>
        <time>2022-01-26T08:25:33Z</time>
      </trkpt>
      <trkpt lat="45.2684" lon="4.64757">
        <ele>435.79998779297</ele>
        <time>2022-01-26T08:25:43Z</time>
      </trkpt>
      <trkpt lat="45.26836" lon="4.64761">
        <ele>436.20001220703</ele>
        <time>2022-01-26T08:25:46Z</time>
      </trkpt>
      <trkpt lat="45.26836" lon="4.64764">
        <ele>436.39999389648</ele>
        <time>2022-01-26T08:25:47Z</time>
      </trkpt>
      <trkpt lat="45.26831" lon="4.64771">
        <ele>437.39999389648</ele>
        <time>2022-01-26T08:25:50Z</time>
      </trkpt>
      <trkpt lat="45.26823" lon="4.64786">
        <ele>439.20001220703</ele>
        <time>2022-01-26T08:25:58Z</time>
      </trkpt>
      <trkpt lat="45.26819" lon="4.6479">
        <ele>440.39999389648</ele>
        <time>2022-01-26T08:26:02Z</time>
      </trkpt>
      <trkpt lat="45.26809" lon="4.64811">
        <ele>443.20001220703</ele>
        <time>2022-01-26T08:26:16Z</time>
      </trkpt>
      <trkpt lat="45.26793" lon="4.64838">
        <ele>445</ele>
        <time>2022-01-26T08:26:32Z</time>
      </trkpt>
      <trkpt lat="45.26774" lon="4.64869">
        <ele>446.20001220703</ele>
        <time>2022-01-26T08:26:44Z</time>
      </trkpt>
      <trkpt lat="45.26762" lon="4.6489">
        <ele>446.39999389648</ele>
        <time>2022-01-26T08:26:51Z</time>
      </trkpt>
      <trkpt lat="45.26761" lon="4.64897">
        <ele>446.60000610352</ele>
        <time>2022-01-26T08:26:53Z</time>
      </trkpt>
      <trkpt lat="45.26755" lon="4.64966">
        <ele>447.20001220703</ele>
        <time>2022-01-26T08:27:08Z</time>
      </trkpt>
      <trkpt lat="45.26756" lon="4.64981">
        <ele>447.39999389648</ele>
        <time>2022-01-26T08:27:12Z</time>
      </trkpt>
      <trkpt lat="45.2676" lon="4.65029">
        <ele>447.20001220703</ele>
        <time>2022-01-26T08:27:20Z</time>
      </trkpt>
      <trkpt lat="45.26763" lon="4.65044">
        <ele>447</ele>
        <time>2022-01-26T08:27:23Z</time>
      </trkpt>
      <trkpt lat="45.26755" lon="4.65075">
        <ele>446.39999389648</ele>
        <time>2022-01-26T08:27:30Z</time>
      </trkpt>
      <trkpt lat="45.26751" lon="4.65082">
        <ele>446.39999389648</ele>
        <time>2022-01-26T08:27:32Z</time>
      </trkpt>
      <trkpt lat="45.2669" lon="4.65128">
        <ele>445.20001220703</ele>
        <time>2022-01-26T08:27:46Z</time>
      </trkpt>
      <trkpt lat="45.26655" lon="4.65152">
        <ele>443.39999389648</ele>
        <time>2022-01-26T08:27:53Z</time>
      </trkpt>
      <trkpt lat="45.26633" lon="4.65161">
        <ele>442.79998779297</ele>
        <time>2022-01-26T08:27:58Z</time>
      </trkpt>
      <trkpt lat="45.26581" lon="4.65184">
        <ele>442.79998779297</ele>
        <time>2022-01-26T08:28:12Z</time>
      </trkpt>
      <trkpt lat="45.26515" lon="4.65194">
        <ele>443.20001220703</ele>
        <time>2022-01-26T08:28:27Z</time>
      </trkpt>
      <trkpt lat="45.26452" lon="4.65204">
        <ele>443</ele>
        <time>2022-01-26T08:28:41Z</time>
      </trkpt>
      <trkpt lat="45.26435" lon="4.65201">
        <ele>442.39999389648</ele>
        <time>2022-01-26T08:28:45Z</time>
      </trkpt>
      <trkpt lat="45.26411" lon="4.65198">
        <ele>442.20001220703</ele>
        <time>2022-01-26T08:28:51Z</time>
      </trkpt>
      <trkpt lat="45.26393" lon="4.65196">
        <ele>441.60000610352</ele>
        <time>2022-01-26T08:29:00Z</time>
      </trkpt>
      <trkpt lat="45.26393" lon="4.65196">
        <ele>441.20001220703</ele>
        <time>2022-01-26T08:29:37Z</time>
      </trkpt>
      <trkpt lat="45.26391" lon="4.65218">
        <ele>441.79998779297</ele>
        <time>2022-01-26T08:29:46Z</time>
      </trkpt>
      <trkpt lat="45.26404" lon="4.65247">
        <ele>442.79998779297</ele>
        <time>2022-01-26T08:29:55Z</time>
      </trkpt>
      <trkpt lat="45.26435" lon="4.65308">
        <ele>445</ele>
        <time>2022-01-26T08:30:12Z</time>
      </trkpt>
      <trkpt lat="45.26447" lon="4.65341">
        <ele>446</ele>
        <time>2022-01-26T08:30:20Z</time>
      </trkpt>
      <trkpt lat="45.26466" lon="4.65385">
        <ele>447.39999389648</ele>
        <time>2022-01-26T08:30:33Z</time>
      </trkpt>
      <trkpt lat="45.26483" lon="4.65429">
        <ele>449.79998779297</ele>
        <time>2022-01-26T08:30:45Z</time>
      </trkpt>
      <trkpt lat="45.26494" lon="4.65457">
        <ele>451.79998779297</ele>
        <time>2022-01-26T08:30:54Z</time>
      </trkpt>
      <trkpt lat="45.26494" lon="4.65487">
        <ele>453.39999389648</ele>
        <time>2022-01-26T08:31:03Z</time>
      </trkpt>
      <trkpt lat="45.26483" lon="4.65507">
        <ele>456.20001220703</ele>
        <time>2022-01-26T08:31:13Z</time>
      </trkpt>
      <trkpt lat="45.26467" lon="4.65533">
        <ele>458.79998779297</ele>
        <time>2022-01-26T08:31:27Z</time>
      </trkpt>
      <trkpt lat="45.26456" lon="4.65556">
        <ele>461.79998779297</ele>
        <time>2022-01-26T08:31:39Z</time>
      </trkpt>
      <trkpt lat="45.26445" lon="4.65578">
        <ele>464.79998779297</ele>
        <time>2022-01-26T08:31:51Z</time>
      </trkpt>
      <trkpt lat="45.26429" lon="4.65598">
        <ele>467.20001220703</ele>
        <time>2022-01-26T08:32:04Z</time>
      </trkpt>
      <trkpt lat="45.26412" lon="4.65608">
        <ele>468.79998779297</ele>
        <time>2022-01-26T08:32:14Z</time>
      </trkpt>
      <trkpt lat="45.26386" lon="4.65628">
        <ele>471</ele>
        <time>2022-01-26T08:32:29Z</time>
      </trkpt>
      <trkpt lat="45.26355" lon="4.65646">
        <ele>473.39999389648</ele>
        <time>2022-01-26T08:32:46Z</time>
      </trkpt>
      <trkpt lat="45.26322" lon="4.6566">
        <ele>475.39999389648</ele>
        <time>2022-01-26T08:33:03Z</time>
      </trkpt>
      <trkpt lat="45.26305" lon="4.6569">
        <ele>477.39999389648</ele>
        <time>2022-01-26T08:33:16Z</time>
      </trkpt>
      <trkpt lat="45.26297" lon="4.6573">
        <ele>477.79998779297</ele>
        <time>2022-01-26T08:33:24Z</time>
      </trkpt>
      <trkpt lat="45.2629" lon="4.65768">
        <ele>477.60000610352</ele>
        <time>2022-01-26T08:33:31Z</time>
      </trkpt>
      <trkpt lat="45.26264" lon="4.65859">
        <ele>475.79998779297</ele>
        <time>2022-01-26T08:33:45Z</time>
      </trkpt>
      <trkpt lat="45.26262" lon="4.65868">
        <ele>475.39999389648</ele>
        <time>2022-01-26T08:33:46Z</time>
      </trkpt>
      <trkpt lat="45.26259" lon="4.65877">
        <ele>475</ele>
        <time>2022-01-26T08:33:47Z</time>
      </trkpt>
      <trkpt lat="45.26208" lon="4.65925">
        <ele>473</ele>
        <time>2022-01-26T08:33:55Z</time>
      </trkpt>
      <trkpt lat="45.26153" lon="4.65961">
        <ele>470</ele>
        <time>2022-01-26T08:34:02Z</time>
      </trkpt>
      <trkpt lat="45.26127" lon="4.65975">
        <ele>468.79998779297</ele>
        <time>2022-01-26T08:34:05Z</time>
      </trkpt>
      <trkpt lat="45.26094" lon="4.6599">
        <ele>467</ele>
        <time>2022-01-26T08:34:09Z</time>
      </trkpt>
      <trkpt lat="45.2604" lon="4.66051">
        <ele>465.39999389648</ele>
        <time>2022-01-26T08:34:18Z</time>
      </trkpt>
      <trkpt lat="45.26009" lon="4.66095">
        <ele>464.39999389648</ele>
        <time>2022-01-26T08:34:24Z</time>
      </trkpt>
      <trkpt lat="45.25981" lon="4.66096">
        <ele>464.20001220703</ele>
        <time>2022-01-26T08:34:29Z</time>
      </trkpt>
      <trkpt lat="45.25969" lon="4.66084">
        <ele>464.60000610352</ele>
        <time>2022-01-26T08:34:32Z</time>
      </trkpt>
      <trkpt lat="45.25953" lon="4.66058">
        <ele>466.79998779297</ele>
        <time>2022-01-26T08:34:38Z</time>
      </trkpt>
      <trkpt lat="45.25937" lon="4.66013">
        <ele>470</ele>
        <time>2022-01-26T08:34:48Z</time>
      </trkpt>
      <trkpt lat="45.25924" lon="4.65974">
        <ele>473.20001220703</ele>
        <time>2022-01-26T08:34:58Z</time>
      </trkpt>
      <trkpt lat="45.25912" lon="4.65932">
        <ele>476.39999389648</ele>
        <time>2022-01-26T08:35:10Z</time>
      </trkpt>
      <trkpt lat="45.25891" lon="4.65905">
        <ele>479.39999389648</ele>
        <time>2022-01-26T08:35:21Z</time>
      </trkpt>
      <trkpt lat="45.25854" lon="4.65913">
        <ele>480.39999389648</ele>
        <time>2022-01-26T08:35:31Z</time>
      </trkpt>
      <trkpt lat="45.25819" lon="4.65918">
        <ele>481</ele>
        <time>2022-01-26T08:35:40Z</time>
      </trkpt>
      <trkpt lat="45.25786" lon="4.65923">
        <ele>480.79998779297</ele>
        <time>2022-01-26T08:35:47Z</time>
      </trkpt>
      <trkpt lat="45.25751" lon="4.65925">
        <ele>480.39999389648</ele>
        <time>2022-01-26T08:35:54Z</time>
      </trkpt>
      <trkpt lat="45.25714" lon="4.65906">
        <ele>479.60000610352</ele>
        <time>2022-01-26T08:36:02Z</time>
      </trkpt>
      <trkpt lat="45.25694" lon="4.65873">
        <ele>479.79998779297</ele>
        <time>2022-01-26T08:36:09Z</time>
      </trkpt>
      <trkpt lat="45.25664" lon="4.65831">
        <ele>480.60000610352</ele>
        <time>2022-01-26T08:36:19Z</time>
      </trkpt>
      <trkpt lat="45.25581" lon="4.65735">
        <ele>483</ele>
        <time>2022-01-26T08:36:47Z</time>
      </trkpt>
      <trkpt lat="45.25554" lon="4.65706">
        <ele>485.20001220703</ele>
        <time>2022-01-26T08:36:57Z</time>
      </trkpt>
      <trkpt lat="45.25526" lon="4.65674">
        <ele>488.20001220703</ele>
        <time>2022-01-26T08:37:09Z</time>
      </trkpt>
      <trkpt lat="45.25494" lon="4.6563">
        <ele>491</ele>
        <time>2022-01-26T08:37:24Z</time>
      </trkpt>
      <trkpt lat="45.25456" lon="4.65581">
        <ele>493.79998779297</ele>
        <time>2022-01-26T08:37:41Z</time>
      </trkpt>
      <trkpt lat="45.25425" lon="4.65538">
        <ele>496.79998779297</ele>
        <time>2022-01-26T08:37:56Z</time>
      </trkpt>
      <trkpt lat="45.25396" lon="4.65502">
        <ele>499.60000610352</ele>
        <time>2022-01-26T08:38:10Z</time>
      </trkpt>
      <trkpt lat="45.25365" lon="4.65473">
        <ele>502.20001220703</ele>
        <time>2022-01-26T08:38:22Z</time>
      </trkpt>
      <trkpt lat="45.25334" lon="4.65443">
        <ele>503</ele>
        <time>2022-01-26T08:38:32Z</time>
      </trkpt>
      <trkpt lat="45.25304" lon="4.6541">
        <ele>503.39999389648</ele>
        <time>2022-01-26T08:38:42Z</time>
      </trkpt>
      <trkpt lat="45.25271" lon="4.65368">
        <ele>504.20001220703</ele>
        <time>2022-01-26T08:38:57Z</time>
      </trkpt>
      <trkpt lat="45.25271" lon="4.65365">
        <ele>504.20001220703</ele>
        <time>2022-01-26T08:38:59Z</time>
      </trkpt>
      <trkpt lat="45.25282" lon="4.65364">
        <ele>504.79998779297</ele>
        <time>2022-01-26T08:39:05Z</time>
      </trkpt>
      <trkpt lat="45.25297" lon="4.65364">
        <ele>506.60000610352</ele>
        <time>2022-01-26T08:39:13Z</time>
      </trkpt>
      <trkpt lat="45.25299" lon="4.65362">
        <ele>507.20001220703</ele>
        <time>2022-01-26T08:39:15Z</time>
      </trkpt>
      <trkpt lat="45.25313" lon="4.65355">
        <ele>510.39999389648</ele>
        <time>2022-01-26T08:39:26Z</time>
      </trkpt>
      <trkpt lat="45.25314" lon="4.65353">
        <ele>510.60000610352</ele>
        <time>2022-01-26T08:39:27Z</time>
      </trkpt>
      <trkpt lat="45.25309" lon="4.65343">
        <ele>513.59997558594</ele>
        <time>2022-01-26T08:39:33Z</time>
      </trkpt>
      <trkpt lat="45.25306" lon="4.65333">
        <ele>516.40002441406</ele>
        <time>2022-01-26T08:39:43Z</time>
      </trkpt>
      <trkpt lat="45.25302" lon="4.65316">
        <ele>518.40002441406</ele>
        <time>2022-01-26T08:39:51Z</time>
      </trkpt>
      <trkpt lat="45.25301" lon="4.65314">
        <ele>518.79998779297</ele>
        <time>2022-01-26T08:39:52Z</time>
      </trkpt>
      <trkpt lat="45.25302" lon="4.65299">
        <ele>521.79998779297</ele>
        <time>2022-01-26T08:40:01Z</time>
      </trkpt>
      <trkpt lat="45.25308" lon="4.65296">
        <ele>523.79998779297</ele>
        <time>2022-01-26T08:40:09Z</time>
      </trkpt>
      <trkpt lat="45.25321" lon="4.65299">
        <ele>525.79998779297</ele>
        <time>2022-01-26T08:40:24Z</time>
      </trkpt>
      <trkpt lat="45.2533" lon="4.65302">
        <ele>527.79998779297</ele>
        <time>2022-01-26T08:40:35Z</time>
      </trkpt>
      <trkpt lat="45.2535" lon="4.65312">
        <ele>529.79998779297</ele>
        <time>2022-01-26T08:40:46Z</time>
      </trkpt>
      <trkpt lat="45.25352" lon="4.65313">
        <ele>530</ele>
        <time>2022-01-26T08:40:47Z</time>
      </trkpt>
      <trkpt lat="45.25355" lon="4.65313">
        <ele>530.20001220703</ele>
        <time>2022-01-26T08:40:49Z</time>
      </trkpt>
      <trkpt lat="45.25358" lon="4.6531">
        <ele>532</ele>
        <time>2022-01-26T08:40:55Z</time>
      </trkpt>
      <trkpt lat="45.25358" lon="4.65304">
        <ele>533.40002441406</ele>
        <time>2022-01-26T08:41:00Z</time>
      </trkpt>
      <trkpt lat="45.25357" lon="4.65299">
        <ele>534</ele>
        <time>2022-01-26T08:41:02Z</time>
      </trkpt>
      <trkpt lat="45.25352" lon="4.65286">
        <ele>536</ele>
        <time>2022-01-26T08:41:11Z</time>
      </trkpt>
      <trkpt lat="45.25349" lon="4.65276">
        <ele>537.20001220703</ele>
        <time>2022-01-26T08:41:17Z</time>
      </trkpt>
      <trkpt lat="45.25349" lon="4.65275">
        <ele>537.40002441406</ele>
        <time>2022-01-26T08:41:18Z</time>
      </trkpt>
      <trkpt lat="45.25345" lon="4.6527">
        <ele>538.79998779297</ele>
        <time>2022-01-26T08:41:22Z</time>
      </trkpt>
      <trkpt lat="45.25343" lon="4.65254">
        <ele>541.40002441406</ele>
        <time>2022-01-26T08:41:30Z</time>
      </trkpt>
      <trkpt lat="45.2534" lon="4.6525">
        <ele>542.20001220703</ele>
        <time>2022-01-26T08:41:33Z</time>
      </trkpt>
      <trkpt lat="45.25339" lon="4.65238">
        <ele>543</ele>
        <time>2022-01-26T08:41:38Z</time>
      </trkpt>
      <trkpt lat="45.25336" lon="4.65236">
        <ele>543.79998779297</ele>
        <time>2022-01-26T08:41:40Z</time>
      </trkpt>
      <trkpt lat="45.25334" lon="4.65227">
        <ele>544.79998779297</ele>
        <time>2022-01-26T08:41:45Z</time>
      </trkpt>
      <trkpt lat="45.25334" lon="4.6522">
        <ele>545.79998779297</ele>
        <time>2022-01-26T08:41:48Z</time>
      </trkpt>
      <trkpt lat="45.25334" lon="4.65213">
        <ele>547.20001220703</ele>
        <time>2022-01-26T08:41:53Z</time>
      </trkpt>
      <trkpt lat="45.25334" lon="4.65211">
        <ele>549</ele>
        <time>2022-01-26T08:42:12Z</time>
      </trkpt>
      <trkpt lat="45.25334" lon="4.65206">
        <ele>551.79998779297</ele>
        <time>2022-01-26T08:42:36Z</time>
      </trkpt>
      <trkpt lat="45.25334" lon="4.65206">
        <ele>552</ele>
        <time>2022-01-26T08:42:37Z</time>
      </trkpt>
      <trkpt lat="45.25333" lon="4.65198">
        <ele>553.59997558594</ele>
        <time>2022-01-26T08:42:47Z</time>
      </trkpt>
      <trkpt lat="45.25325" lon="4.65185">
        <ele>553.79998779297</ele>
        <time>2022-01-26T08:42:55Z</time>
      </trkpt>
      <trkpt lat="45.2532" lon="4.65166">
        <ele>554.79998779297</ele>
        <time>2022-01-26T08:43:02Z</time>
      </trkpt>
      <trkpt lat="45.25316" lon="4.65145">
        <ele>556.40002441406</ele>
        <time>2022-01-26T08:43:10Z</time>
      </trkpt>
      <trkpt lat="45.25314" lon="4.65129">
        <ele>557.59997558594</ele>
        <time>2022-01-26T08:43:16Z</time>
      </trkpt>
      <trkpt lat="45.25313" lon="4.65127">
        <ele>557.79998779297</ele>
        <time>2022-01-26T08:43:17Z</time>
      </trkpt>
      <trkpt lat="45.25308" lon="4.65111">
        <ele>558.79998779297</ele>
        <time>2022-01-26T08:43:24Z</time>
      </trkpt>
      <trkpt lat="45.25303" lon="4.65101">
        <ele>559.20001220703</ele>
        <time>2022-01-26T08:43:29Z</time>
      </trkpt>
      <trkpt lat="45.25298" lon="4.65086">
        <ele>560.59997558594</ele>
        <time>2022-01-26T08:43:36Z</time>
      </trkpt>
      <trkpt lat="45.25296" lon="4.65077">
        <ele>561</ele>
        <time>2022-01-26T08:43:40Z</time>
      </trkpt>
      <trkpt lat="45.25292" lon="4.65073">
        <ele>561.20001220703</ele>
        <time>2022-01-26T08:43:42Z</time>
      </trkpt>
      <trkpt lat="45.25285" lon="4.65058">
        <ele>561.59997558594</ele>
        <time>2022-01-26T08:43:50Z</time>
      </trkpt>
      <trkpt lat="45.25279" lon="4.65049">
        <ele>561.79998779297</ele>
        <time>2022-01-26T08:43:54Z</time>
      </trkpt>
      <trkpt lat="45.25276" lon="4.65043">
        <ele>563.20001220703</ele>
        <time>2022-01-26T08:44:07Z</time>
      </trkpt>
      <trkpt lat="45.25268" lon="4.65032">
        <ele>564.59997558594</ele>
        <time>2022-01-26T08:44:22Z</time>
      </trkpt>
      <trkpt lat="45.25266" lon="4.65023">
        <ele>565.20001220703</ele>
        <time>2022-01-26T08:44:26Z</time>
      </trkpt>
      <trkpt lat="45.25254" lon="4.65006">
        <ele>566</ele>
        <time>2022-01-26T08:44:33Z</time>
      </trkpt>
      <trkpt lat="45.25251" lon="4.64999">
        <ele>566.40002441406</ele>
        <time>2022-01-26T08:44:39Z</time>
      </trkpt>
      <trkpt lat="45.25248" lon="4.64997">
        <ele>566.40002441406</ele>
        <time>2022-01-26T08:44:42Z</time>
      </trkpt>
      <trkpt lat="45.25234" lon="4.64985">
        <ele>566.40002441406</ele>
        <time>2022-01-26T08:44:49Z</time>
      </trkpt>
      <trkpt lat="45.25232" lon="4.64984">
        <ele>566.40002441406</ele>
        <time>2022-01-26T08:44:50Z</time>
      </trkpt>
      <trkpt lat="45.25227" lon="4.64977">
        <ele>567.40002441406</ele>
        <time>2022-01-26T08:44:59Z</time>
      </trkpt>
      <trkpt lat="45.25209" lon="4.64949">
        <ele>568.40002441406</ele>
        <time>2022-01-26T08:45:15Z</time>
      </trkpt>
      <trkpt lat="45.25207" lon="4.64946">
        <ele>570.59997558594</ele>
        <time>2022-01-26T08:45:26Z</time>
      </trkpt>
      <trkpt lat="45.25207" lon="4.64946">
        <ele>571</ele>
        <time>2022-01-26T08:45:27Z</time>
      </trkpt>
      <trkpt lat="45.25207" lon="4.64939">
        <ele>571.20001220703</ele>
        <time>2022-01-26T08:45:29Z</time>
      </trkpt>
      <trkpt lat="45.25205" lon="4.64936">
        <ele>573.40002441406</ele>
        <time>2022-01-26T08:45:41Z</time>
      </trkpt>
      <trkpt lat="45.25204" lon="4.64931">
        <ele>574.40002441406</ele>
        <time>2022-01-26T08:45:50Z</time>
      </trkpt>
      <trkpt lat="45.25197" lon="4.64917">
        <ele>574.79998779297</ele>
        <time>2022-01-26T08:45:54Z</time>
      </trkpt>
      <trkpt lat="45.25187" lon="4.64896">
        <ele>577</ele>
        <time>2022-01-26T08:46:04Z</time>
      </trkpt>
      <trkpt lat="45.25184" lon="4.64883">
        <ele>578.20001220703</ele>
        <time>2022-01-26T08:46:09Z</time>
      </trkpt>
      <trkpt lat="45.25177" lon="4.6487">
        <ele>579.59997558594</ele>
        <time>2022-01-26T08:46:27Z</time>
      </trkpt>
      <trkpt lat="45.25175" lon="4.64864">
        <ele>579.79998779297</ele>
        <time>2022-01-26T08:46:30Z</time>
      </trkpt>
      <trkpt lat="45.25163" lon="4.64848">
        <ele>579.79998779297</ele>
        <time>2022-01-26T08:46:39Z</time>
      </trkpt>
      <trkpt lat="45.25152" lon="4.64827">
        <ele>581.59997558594</ele>
        <time>2022-01-26T08:46:48Z</time>
      </trkpt>
      <trkpt lat="45.25148" lon="4.64808">
        <ele>582.79998779297</ele>
        <time>2022-01-26T08:46:55Z</time>
      </trkpt>
      <trkpt lat="45.25146" lon="4.64804">
        <ele>583.59997558594</ele>
        <time>2022-01-26T08:46:57Z</time>
      </trkpt>
      <trkpt lat="45.25143" lon="4.64792">
        <ele>585.40002441406</ele>
        <time>2022-01-26T08:47:03Z</time>
      </trkpt>
      <trkpt lat="45.25138" lon="4.64777">
        <ele>586</ele>
        <time>2022-01-26T08:47:09Z</time>
      </trkpt>
      <trkpt lat="45.25132" lon="4.64749">
        <ele>587.79998779297</ele>
        <time>2022-01-26T08:47:20Z</time>
      </trkpt>
      <trkpt lat="45.25129" lon="4.64741">
        <ele>588.20001220703</ele>
        <time>2022-01-26T08:47:23Z</time>
      </trkpt>
      <trkpt lat="45.25128" lon="4.64727">
        <ele>590.20001220703</ele>
        <time>2022-01-26T08:47:32Z</time>
      </trkpt>
      <trkpt lat="45.25128" lon="4.64727">
        <ele>592.40002441406</ele>
        <time>2022-01-26T08:47:43Z</time>
      </trkpt>
      <trkpt lat="45.25127" lon="4.64726">
        <ele>594.59997558594</ele>
        <time>2022-01-26T08:48:06Z</time>
      </trkpt>
      <trkpt lat="45.2512" lon="4.64697">
        <ele>595.20001220703</ele>
        <time>2022-01-26T08:48:16Z</time>
      </trkpt>
      <trkpt lat="45.25117" lon="4.64666">
        <ele>594.40002441406</ele>
        <time>2022-01-26T08:48:25Z</time>
      </trkpt>
      <trkpt lat="45.25114" lon="4.64651">
        <ele>594</ele>
        <time>2022-01-26T08:48:31Z</time>
      </trkpt>
      <trkpt lat="45.25106" lon="4.6463">
        <ele>594</ele>
        <time>2022-01-26T08:48:38Z</time>
      </trkpt>
      <trkpt lat="45.25094" lon="4.64577">
        <ele>592.79998779297</ele>
        <time>2022-01-26T08:48:50Z</time>
      </trkpt>
      <trkpt lat="45.25083" lon="4.6454">
        <ele>589.59997558594</ele>
        <time>2022-01-26T08:48:59Z</time>
      </trkpt>
      <trkpt lat="45.25084" lon="4.64497">
        <ele>589.79998779297</ele>
        <time>2022-01-26T08:49:15Z</time>
      </trkpt>
      <trkpt lat="45.25099" lon="4.64459">
        <ele>590.79998779297</ele>
        <time>2022-01-26T08:49:30Z</time>
      </trkpt>
      <trkpt lat="45.25111" lon="4.64447">
        <ele>593.79998779297</ele>
        <time>2022-01-26T08:49:41Z</time>
      </trkpt>
      <trkpt lat="45.25122" lon="4.64439">
        <ele>596.79998779297</ele>
        <time>2022-01-26T08:49:50Z</time>
      </trkpt>
      <trkpt lat="45.25136" lon="4.64429">
        <ele>599.79998779297</ele>
        <time>2022-01-26T08:50:02Z</time>
      </trkpt>
      <trkpt lat="45.25142" lon="4.64424">
        <ele>601.20001220703</ele>
        <time>2022-01-26T08:50:08Z</time>
      </trkpt>
      <trkpt lat="45.25149" lon="4.64411">
        <ele>602.20001220703</ele>
        <time>2022-01-26T08:50:16Z</time>
      </trkpt>
      <trkpt lat="45.25159" lon="4.64387">
        <ele>602.40002441406</ele>
        <time>2022-01-26T08:50:20Z</time>
      </trkpt>
      <trkpt lat="45.25197" lon="4.64313">
        <ele>599</ele>
        <time>2022-01-26T08:50:29Z</time>
      </trkpt>
      <trkpt lat="45.25207" lon="4.64298">
        <ele>598.20001220703</ele>
        <time>2022-01-26T08:50:31Z</time>
      </trkpt>
      <trkpt lat="45.25255" lon="4.6427">
        <ele>595.20001220703</ele>
        <time>2022-01-26T08:50:38Z</time>
      </trkpt>
      <trkpt lat="45.25263" lon="4.64267">
        <ele>595</ele>
        <time>2022-01-26T08:50:39Z</time>
      </trkpt>
      <trkpt lat="45.25294" lon="4.64256">
        <ele>592.59997558594</ele>
        <time>2022-01-26T08:50:43Z</time>
      </trkpt>
      <trkpt lat="45.25316" lon="4.64255">
        <ele>591.59997558594</ele>
        <time>2022-01-26T08:50:46Z</time>
      </trkpt>
      <trkpt lat="45.25331" lon="4.64258">
        <ele>589.20001220703</ele>
        <time>2022-01-26T08:50:48Z</time>
      </trkpt>
      <trkpt lat="45.25338" lon="4.64261">
        <ele>589</ele>
        <time>2022-01-26T08:50:49Z</time>
      </trkpt>
      <trkpt lat="45.25373" lon="4.64278">
        <ele>585.59997558594</ele>
        <time>2022-01-26T08:50:54Z</time>
      </trkpt>
      <trkpt lat="45.25379" lon="4.64281">
        <ele>585</ele>
        <time>2022-01-26T08:50:55Z</time>
      </trkpt>
      <trkpt lat="45.25384" lon="4.64285">
        <ele>584.79998779297</ele>
        <time>2022-01-26T08:50:56Z</time>
      </trkpt>
      <trkpt lat="45.25388" lon="4.64288">
        <ele>584.40002441406</ele>
        <time>2022-01-26T08:50:57Z</time>
      </trkpt>
      <trkpt lat="45.25415" lon="4.64288">
        <ele>584.59997558594</ele>
        <time>2022-01-26T08:51:07Z</time>
      </trkpt>
      <trkpt lat="45.25421" lon="4.64267">
        <ele>586.59997558594</ele>
        <time>2022-01-26T08:51:17Z</time>
      </trkpt>
      <trkpt lat="45.25422" lon="4.64265">
        <ele>587</ele>
        <time>2022-01-26T08:51:18Z</time>
      </trkpt>
      <trkpt lat="45.2542" lon="4.64254">
        <ele>587.59997558594</ele>
        <time>2022-01-26T08:51:22Z</time>
      </trkpt>
      <trkpt lat="45.25417" lon="4.6423">
        <ele>589.20001220703</ele>
        <time>2022-01-26T08:51:30Z</time>
      </trkpt>
      <trkpt lat="45.25413" lon="4.64222">
        <ele>589.79998779297</ele>
        <time>2022-01-26T08:51:33Z</time>
      </trkpt>
      <trkpt lat="45.25411" lon="4.64209">
        <ele>591.40002441406</ele>
        <time>2022-01-26T08:51:39Z</time>
      </trkpt>
      <trkpt lat="45.25415" lon="4.64198">
        <ele>592.59997558594</ele>
        <time>2022-01-26T08:51:43Z</time>
      </trkpt>
      <trkpt lat="45.25425" lon="4.64207">
        <ele>595.20001220703</ele>
        <time>2022-01-26T08:51:54Z</time>
      </trkpt>
      <trkpt lat="45.25438" lon="4.64226">
        <ele>597.20001220703</ele>
        <time>2022-01-26T08:52:07Z</time>
      </trkpt>
      <trkpt lat="45.25438" lon="4.64227">
        <ele>597.40002441406</ele>
        <time>2022-01-26T08:52:08Z</time>
      </trkpt>
      <trkpt lat="45.25444" lon="4.64238">
        <ele>598.59997558594</ele>
        <time>2022-01-26T08:52:15Z</time>
      </trkpt>
      <trkpt lat="45.25445" lon="4.64241">
        <ele>599.20001220703</ele>
        <time>2022-01-26T08:52:18Z</time>
      </trkpt>
      <trkpt lat="45.2545" lon="4.64252">
        <ele>599.59997558594</ele>
        <time>2022-01-26T08:52:22Z</time>
      </trkpt>
      <trkpt lat="45.25459" lon="4.64265">
        <ele>600.79998779297</ele>
        <time>2022-01-26T08:52:29Z</time>
      </trkpt>
      <trkpt lat="45.25463" lon="4.6427">
        <ele>601.20001220703</ele>
        <time>2022-01-26T08:52:31Z</time>
      </trkpt>
      <trkpt lat="45.25466" lon="4.64278">
        <ele>602.20001220703</ele>
        <time>2022-01-26T08:52:36Z</time>
      </trkpt>
      <trkpt lat="45.25471" lon="4.64287">
        <ele>603.40002441406</ele>
        <time>2022-01-26T08:52:44Z</time>
      </trkpt>
      <trkpt lat="45.25481" lon="4.64305">
        <ele>604.79998779297</ele>
        <time>2022-01-26T08:52:53Z</time>
      </trkpt>
      <trkpt lat="45.25502" lon="4.64333">
        <ele>606.59997558594</ele>
        <time>2022-01-26T08:53:05Z</time>
      </trkpt>
      <trkpt lat="45.25504" lon="4.64336">
        <ele>606.79998779297</ele>
        <time>2022-01-26T08:53:07Z</time>
      </trkpt>
      <trkpt lat="45.25509" lon="4.64342">
        <ele>608</ele>
        <time>2022-01-26T08:53:12Z</time>
      </trkpt>
      <trkpt lat="45.25517" lon="4.64353">
        <ele>608.59997558594</ele>
        <time>2022-01-26T08:53:16Z</time>
      </trkpt>
      <trkpt lat="45.25524" lon="4.64369">
        <ele>609.59997558594</ele>
        <time>2022-01-26T08:53:24Z</time>
      </trkpt>
      <trkpt lat="45.25526" lon="4.64372">
        <ele>609.79998779297</ele>
        <time>2022-01-26T08:53:25Z</time>
      </trkpt>
      <trkpt lat="45.25525" lon="4.64397">
        <ele>611.40002441406</ele>
        <time>2022-01-26T08:53:35Z</time>
      </trkpt>
      <trkpt lat="45.25525" lon="4.64418">
        <ele>613</ele>
        <time>2022-01-26T08:53:48Z</time>
      </trkpt>
      <trkpt lat="45.25525" lon="4.64435">
        <ele>613.40002441406</ele>
        <time>2022-01-26T08:53:57Z</time>
      </trkpt>
      <trkpt lat="45.25528" lon="4.64435">
        <ele>613.79998779297</ele>
        <time>2022-01-26T08:54:01Z</time>
      </trkpt>
      <trkpt lat="45.2553" lon="4.64421">
        <ele>613.79998779297</ele>
        <time>2022-01-26T08:54:06Z</time>
      </trkpt>
      <trkpt lat="45.25541" lon="4.644">
        <ele>614.79998779297</ele>
        <time>2022-01-26T08:54:16Z</time>
      </trkpt>
      <trkpt lat="45.25545" lon="4.6439">
        <ele>615.79998779297</ele>
        <time>2022-01-26T08:54:21Z</time>
      </trkpt>
      <trkpt lat="45.25557" lon="4.64371">
        <ele>617.79998779297</ele>
        <time>2022-01-26T08:54:30Z</time>
      </trkpt>
      <trkpt lat="45.25564" lon="4.64357">
        <ele>620.20001220703</ele>
        <time>2022-01-26T08:54:37Z</time>
      </trkpt>
      <trkpt lat="45.25564" lon="4.64339">
        <ele>622.59997558594</ele>
        <time>2022-01-26T08:54:45Z</time>
      </trkpt>
      <trkpt lat="45.25562" lon="4.64332">
        <ele>623</ele>
        <time>2022-01-26T08:54:49Z</time>
      </trkpt>
      <trkpt lat="45.25561" lon="4.64325">
        <ele>623.79998779297</ele>
        <time>2022-01-26T08:54:53Z</time>
      </trkpt>
      <trkpt lat="45.25558" lon="4.6431">
        <ele>624.59997558594</ele>
        <time>2022-01-26T08:55:02Z</time>
      </trkpt>
      <trkpt lat="45.25546" lon="4.64286">
        <ele>626</ele>
        <time>2022-01-26T08:55:16Z</time>
      </trkpt>
      <trkpt lat="45.25541" lon="4.64269">
        <ele>627.40002441406</ele>
        <time>2022-01-26T08:55:27Z</time>
      </trkpt>
      <trkpt lat="45.2554" lon="4.6426">
        <ele>628</ele>
        <time>2022-01-26T08:55:32Z</time>
      </trkpt>
      <trkpt lat="45.25543" lon="4.64241">
        <ele>629</ele>
        <time>2022-01-26T08:55:41Z</time>
      </trkpt>
      <trkpt lat="45.25546" lon="4.64222">
        <ele>630</ele>
        <time>2022-01-26T08:55:47Z</time>
      </trkpt>
      <trkpt lat="45.25542" lon="4.64198">
        <ele>630.59997558594</ele>
        <time>2022-01-26T08:55:54Z</time>
      </trkpt>
      <trkpt lat="45.25545" lon="4.64186">
        <ele>630.79998779297</ele>
        <time>2022-01-26T08:55:58Z</time>
      </trkpt>
      <trkpt lat="45.25547" lon="4.64157">
        <ele>632.59997558594</ele>
        <time>2022-01-26T08:56:09Z</time>
      </trkpt>
      <trkpt lat="45.25544" lon="4.64115">
        <ele>633</ele>
        <time>2022-01-26T08:56:21Z</time>
      </trkpt>
      <trkpt lat="45.25539" lon="4.64096">
        <ele>633.20001220703</ele>
        <time>2022-01-26T08:56:26Z</time>
      </trkpt>
      <trkpt lat="45.25526" lon="4.64066">
        <ele>633</ele>
        <time>2022-01-26T08:56:32Z</time>
      </trkpt>
      <trkpt lat="45.25503" lon="4.64009">
        <ele>634.79998779297</ele>
        <time>2022-01-26T08:56:48Z</time>
      </trkpt>
      <trkpt lat="45.25494" lon="4.6397">
        <ele>637</ele>
        <time>2022-01-26T08:57:01Z</time>
      </trkpt>
      <trkpt lat="45.25484" lon="4.63929">
        <ele>639.59997558594</ele>
        <time>2022-01-26T08:57:11Z</time>
      </trkpt>
      <trkpt lat="45.25482" lon="4.639">
        <ele>639.40002441406</ele>
        <time>2022-01-26T08:57:17Z</time>
      </trkpt>
      <trkpt lat="45.25475" lon="4.63879">
        <ele>639</ele>
        <time>2022-01-26T08:57:20Z</time>
      </trkpt>
      <trkpt lat="45.25452" lon="4.63814">
        <ele>638.40002441406</ele>
        <time>2022-01-26T08:57:31Z</time>
      </trkpt>
      <trkpt lat="45.25425" lon="4.63764">
        <ele>637.40002441406</ele>
        <time>2022-01-26T08:57:38Z</time>
      </trkpt>
      <trkpt lat="45.254" lon="4.63717">
        <ele>636.40002441406</ele>
        <time>2022-01-26T08:57:49Z</time>
      </trkpt>
      <trkpt lat="45.25388" lon="4.63681">
        <ele>639.40002441406</ele>
        <time>2022-01-26T08:58:01Z</time>
      </trkpt>
      <trkpt lat="45.25375" lon="4.63652">
        <ele>642.59997558594</ele>
        <time>2022-01-26T08:58:12Z</time>
      </trkpt>
      <trkpt lat="45.25361" lon="4.63621">
        <ele>645.79998779297</ele>
        <time>2022-01-26T08:58:24Z</time>
      </trkpt>
      <trkpt lat="45.25325" lon="4.63586">
        <ele>647.40002441406</ele>
        <time>2022-01-26T08:58:37Z</time>
      </trkpt>
      <trkpt lat="45.25313" lon="4.63561">
        <ele>646.59997558594</ele>
        <time>2022-01-26T08:58:41Z</time>
      </trkpt>
      <trkpt lat="45.2531" lon="4.63549">
        <ele>646</ele>
        <time>2022-01-26T08:58:43Z</time>
      </trkpt>
      <trkpt lat="45.25294" lon="4.63505">
        <ele>643.59997558594</ele>
        <time>2022-01-26T08:58:49Z</time>
      </trkpt>
      <trkpt lat="45.25289" lon="4.63489">
        <ele>642.59997558594</ele>
        <time>2022-01-26T08:58:51Z</time>
      </trkpt>
      <trkpt lat="45.25279" lon="4.63467">
        <ele>641.40002441406</ele>
        <time>2022-01-26T08:58:54Z</time>
      </trkpt>
      <trkpt lat="45.25274" lon="4.63453">
        <ele>640.40002441406</ele>
        <time>2022-01-26T08:58:56Z</time>
      </trkpt>
      <trkpt lat="45.25265" lon="4.63409">
        <ele>638.40002441406</ele>
        <time>2022-01-26T08:59:02Z</time>
      </trkpt>
      <trkpt lat="45.25251" lon="4.63374">
        <ele>635</ele>
        <time>2022-01-26T08:59:08Z</time>
      </trkpt>
      <trkpt lat="45.25242" lon="4.63361">
        <ele>631.79998779297</ele>
        <time>2022-01-26T08:59:12Z</time>
      </trkpt>
      <trkpt lat="45.25239" lon="4.63354">
        <ele>630.59997558594</ele>
        <time>2022-01-26T08:59:14Z</time>
      </trkpt>
      <trkpt lat="45.25236" lon="4.63341">
        <ele>628.40002441406</ele>
        <time>2022-01-26T08:59:17Z</time>
      </trkpt>
      <trkpt lat="45.25221" lon="4.63311">
        <ele>624.59997558594</ele>
        <time>2022-01-26T08:59:22Z</time>
      </trkpt>
      <trkpt lat="45.25202" lon="4.63278">
        <ele>621.20001220703</ele>
        <time>2022-01-26T08:59:26Z</time>
      </trkpt>
      <trkpt lat="45.25183" lon="4.63255">
        <ele>617.40002441406</ele>
        <time>2022-01-26T08:59:29Z</time>
      </trkpt>
      <trkpt lat="45.25156" lon="4.63223">
        <ele>613.20001220703</ele>
        <time>2022-01-26T08:59:33Z</time>
      </trkpt>
      <trkpt lat="45.25132" lon="4.63207">
        <ele>610</ele>
        <time>2022-01-26T08:59:36Z</time>
      </trkpt>
      <trkpt lat="45.25119" lon="4.63199">
        <ele>608.79998779297</ele>
        <time>2022-01-26T08:59:38Z</time>
      </trkpt>
      <trkpt lat="45.25114" lon="4.63194">
        <ele>608.59997558594</ele>
        <time>2022-01-26T08:59:39Z</time>
      </trkpt>
      <trkpt lat="45.25091" lon="4.6316">
        <ele>605.40002441406</ele>
        <time>2022-01-26T08:59:45Z</time>
      </trkpt>
      <trkpt lat="45.25088" lon="4.63155">
        <ele>604.79998779297</ele>
        <time>2022-01-26T08:59:46Z</time>
      </trkpt>
      <trkpt lat="45.2508" lon="4.63136">
        <ele>602.79998779297</ele>
        <time>2022-01-26T08:59:50Z</time>
      </trkpt>
      <trkpt lat="45.25073" lon="4.63121">
        <ele>600.40002441406</ele>
        <time>2022-01-26T08:59:54Z</time>
      </trkpt>
      <trkpt lat="45.25077" lon="4.63108">
        <ele>598.20001220703</ele>
        <time>2022-01-26T08:59:58Z</time>
      </trkpt>
      <trkpt lat="45.25091" lon="4.63111">
        <ele>595.40002441406</ele>
        <time>2022-01-26T09:00:02Z</time>
      </trkpt>
      <trkpt lat="45.25095" lon="4.63113">
        <ele>595.20001220703</ele>
        <time>2022-01-26T09:00:03Z</time>
      </trkpt>
      <trkpt lat="45.25181" lon="4.63146">
        <ele>594.20001220703</ele>
        <time>2022-01-26T09:00:21Z</time>
      </trkpt>
      <trkpt lat="45.25263" lon="4.63206">
        <ele>592.40002441406</ele>
        <time>2022-01-26T09:00:34Z</time>
      </trkpt>
      <trkpt lat="45.25302" lon="4.63229">
        <ele>590.59997558594</ele>
        <time>2022-01-26T09:00:38Z</time>
      </trkpt>
      <trkpt lat="45.25341" lon="4.6325">
        <ele>587.59997558594</ele>
        <time>2022-01-26T09:00:42Z</time>
      </trkpt>
      <trkpt lat="45.25377" lon="4.6327">
        <ele>584.20001220703</ele>
        <time>2022-01-26T09:00:46Z</time>
      </trkpt>
      <trkpt lat="45.25433" lon="4.63295">
        <ele>580.20001220703</ele>
        <time>2022-01-26T09:00:52Z</time>
      </trkpt>
      <trkpt lat="45.25495" lon="4.63313">
        <ele>576.40002441406</ele>
        <time>2022-01-26T09:00:59Z</time>
      </trkpt>
      <trkpt lat="45.25538" lon="4.63312">
        <ele>573</ele>
        <time>2022-01-26T09:01:05Z</time>
      </trkpt>
      <trkpt lat="45.25547" lon="4.6328">
        <ele>571.20001220703</ele>
        <time>2022-01-26T09:01:11Z</time>
      </trkpt>
      <trkpt lat="45.25546" lon="4.63277">
        <ele>571.20001220703</ele>
        <time>2022-01-26T09:01:12Z</time>
      </trkpt>
      <trkpt lat="45.25544" lon="4.6327">
        <ele>571.40002441406</ele>
        <time>2022-01-26T09:01:14Z</time>
      </trkpt>
      <trkpt lat="45.25545" lon="4.63262">
        <ele>573.20001220703</ele>
        <time>2022-01-26T09:01:19Z</time>
      </trkpt>
      <trkpt lat="45.25542" lon="4.63232">
        <ele>575.79998779297</ele>
        <time>2022-01-26T09:01:30Z</time>
      </trkpt>
      <trkpt lat="45.25542" lon="4.63218">
        <ele>577.20001220703</ele>
        <time>2022-01-26T09:01:36Z</time>
      </trkpt>
      <trkpt lat="45.25539" lon="4.63203">
        <ele>578.20001220703</ele>
        <time>2022-01-26T09:01:40Z</time>
      </trkpt>
      <trkpt lat="45.25539" lon="4.63189">
        <ele>579.79998779297</ele>
        <time>2022-01-26T09:01:47Z</time>
      </trkpt>
      <trkpt lat="45.25538" lon="4.63174">
        <ele>581.59997558594</ele>
        <time>2022-01-26T09:01:56Z</time>
      </trkpt>
      <trkpt lat="45.25541" lon="4.63152">
        <ele>584.40002441406</ele>
        <time>2022-01-26T09:02:07Z</time>
      </trkpt>
      <trkpt lat="45.25541" lon="4.63145">
        <ele>585</ele>
        <time>2022-01-26T09:02:10Z</time>
      </trkpt>
      <trkpt lat="45.2555" lon="4.63123">
        <ele>586.59997558594</ele>
        <time>2022-01-26T09:02:20Z</time>
      </trkpt>
      <trkpt lat="45.25561" lon="4.63099">
        <ele>588</ele>
        <time>2022-01-26T09:02:34Z</time>
      </trkpt>
      <trkpt lat="45.25563" lon="4.63085">
        <ele>589</ele>
        <time>2022-01-26T09:02:41Z</time>
      </trkpt>
      <trkpt lat="45.25556" lon="4.63064">
        <ele>590.20001220703</ele>
        <time>2022-01-26T09:02:50Z</time>
      </trkpt>
      <trkpt lat="45.25554" lon="4.63057">
        <ele>590.79998779297</ele>
        <time>2022-01-26T09:02:53Z</time>
      </trkpt>
      <trkpt lat="45.25545" lon="4.6303">
        <ele>593.79998779297</ele>
        <time>2022-01-26T09:03:05Z</time>
      </trkpt>
      <trkpt lat="45.25545" lon="4.63026">
        <ele>595</ele>
        <time>2022-01-26T09:03:07Z</time>
      </trkpt>
      <trkpt lat="45.2554" lon="4.63004">
        <ele>598.20001220703</ele>
        <time>2022-01-26T09:03:18Z</time>
      </trkpt>
      <trkpt lat="45.25537" lon="4.62979">
        <ele>601.20001220703</ele>
        <time>2022-01-26T09:03:30Z</time>
      </trkpt>
      <trkpt lat="45.25532" lon="4.62952">
        <ele>604.20001220703</ele>
        <time>2022-01-26T09:03:46Z</time>
      </trkpt>
      <trkpt lat="45.25524" lon="4.6293">
        <ele>606.59997558594</ele>
        <time>2022-01-26T09:04:01Z</time>
      </trkpt>
      <trkpt lat="45.25515" lon="4.62902">
        <ele>608.79998779297</ele>
        <time>2022-01-26T09:04:17Z</time>
      </trkpt>
      <trkpt lat="45.2551" lon="4.62886">
        <ele>610.20001220703</ele>
        <time>2022-01-26T09:04:26Z</time>
      </trkpt>
      <trkpt lat="45.25507" lon="4.62878">
        <ele>610.59997558594</ele>
        <time>2022-01-26T09:04:30Z</time>
      </trkpt>
      <trkpt lat="45.25499" lon="4.62856">
        <ele>612.40002441406</ele>
        <time>2022-01-26T09:04:42Z</time>
      </trkpt>
      <trkpt lat="45.25492" lon="4.62827">
        <ele>614.20001220703</ele>
        <time>2022-01-26T09:04:56Z</time>
      </trkpt>
      <trkpt lat="45.25494" lon="4.62797">
        <ele>616</ele>
        <time>2022-01-26T09:05:10Z</time>
      </trkpt>
      <trkpt lat="45.25494" lon="4.62789">
        <ele>617.20001220703</ele>
        <time>2022-01-26T09:05:27Z</time>
      </trkpt>
      <trkpt lat="45.25494" lon="4.62788">
        <ele>616.79998779297</ele>
        <time>2022-01-26T09:08:35Z</time>
      </trkpt>
      <trkpt lat="45.25499" lon="4.62774">
        <ele>617</ele>
        <time>2022-01-26T09:08:41Z</time>
      </trkpt>
      <trkpt lat="45.25514" lon="4.62729">
        <ele>619</ele>
        <time>2022-01-26T09:09:04Z</time>
      </trkpt>
      <trkpt lat="45.2552" lon="4.62718">
        <ele>620.20001220703</ele>
        <time>2022-01-26T09:09:09Z</time>
      </trkpt>
      <trkpt lat="45.25527" lon="4.62701">
        <ele>621</ele>
        <time>2022-01-26T09:09:17Z</time>
      </trkpt>
      <trkpt lat="45.25552" lon="4.62672">
        <ele>623.79998779297</ele>
        <time>2022-01-26T09:09:31Z</time>
      </trkpt>
      <trkpt lat="45.25589" lon="4.62657">
        <ele>624.40002441406</ele>
        <time>2022-01-26T09:09:40Z</time>
      </trkpt>
      <trkpt lat="45.25646" lon="4.62655">
        <ele>622.59997558594</ele>
        <time>2022-01-26T09:09:49Z</time>
      </trkpt>
      <trkpt lat="45.25675" lon="4.62662">
        <ele>621.59997558594</ele>
        <time>2022-01-26T09:09:53Z</time>
      </trkpt>
      <trkpt lat="45.25699" lon="4.62667">
        <ele>619.79998779297</ele>
        <time>2022-01-26T09:09:56Z</time>
      </trkpt>
      <trkpt lat="45.25734" lon="4.62685">
        <ele>617.40002441406</ele>
        <time>2022-01-26T09:10:01Z</time>
      </trkpt>
      <trkpt lat="45.25763" lon="4.62684">
        <ele>616</ele>
        <time>2022-01-26T09:10:06Z</time>
      </trkpt>
      <trkpt lat="45.25801" lon="4.6267">
        <ele>615.59997558594</ele>
        <time>2022-01-26T09:10:16Z</time>
      </trkpt>
      <trkpt lat="45.25838" lon="4.62654">
        <ele>618.40002441406</ele>
        <time>2022-01-26T09:10:29Z</time>
      </trkpt>
      <trkpt lat="45.25843" lon="4.62634">
        <ele>621.40002441406</ele>
        <time>2022-01-26T09:10:37Z</time>
      </trkpt>
      <trkpt lat="45.25848" lon="4.62619">
        <ele>624.40002441406</ele>
        <time>2022-01-26T09:10:46Z</time>
      </trkpt>
      <trkpt lat="45.25855" lon="4.62601">
        <ele>626.59997558594</ele>
        <time>2022-01-26T09:10:56Z</time>
      </trkpt>
      <trkpt lat="45.25862" lon="4.62588">
        <ele>629</ele>
        <time>2022-01-26T09:11:05Z</time>
      </trkpt>
      <trkpt lat="45.2587" lon="4.62571">
        <ele>632</ele>
        <time>2022-01-26T09:11:17Z</time>
      </trkpt>
      <trkpt lat="45.25879" lon="4.62557">
        <ele>635</ele>
        <time>2022-01-26T09:11:30Z</time>
      </trkpt>
      <trkpt lat="45.25892" lon="4.62543">
        <ele>637.40002441406</ele>
        <time>2022-01-26T09:11:44Z</time>
      </trkpt>
      <trkpt lat="45.25897" lon="4.62493">
        <ele>639.20001220703</ele>
        <time>2022-01-26T09:11:59Z</time>
      </trkpt>
      <trkpt lat="45.25905" lon="4.62464">
        <ele>639.40002441406</ele>
        <time>2022-01-26T09:12:07Z</time>
      </trkpt>
      <trkpt lat="45.25909" lon="4.62446">
        <ele>639.59997558594</ele>
        <time>2022-01-26T09:12:10Z</time>
      </trkpt>
      <trkpt lat="45.2592" lon="4.62415">
        <ele>639.40002441406</ele>
        <time>2022-01-26T09:12:15Z</time>
      </trkpt>
      <trkpt lat="45.25947" lon="4.62323">
        <ele>639.20001220703</ele>
        <time>2022-01-26T09:12:33Z</time>
      </trkpt>
      <trkpt lat="45.25958" lon="4.62241">
        <ele>641.20001220703</ele>
        <time>2022-01-26T09:12:50Z</time>
      </trkpt>
      <trkpt lat="45.25978" lon="4.62136">
        <ele>641</ele>
        <time>2022-01-26T09:13:07Z</time>
      </trkpt>
      <trkpt lat="45.26001" lon="4.62094">
        <ele>642.79998779297</ele>
        <time>2022-01-26T09:13:21Z</time>
      </trkpt>
      <trkpt lat="45.26026" lon="4.62075">
        <ele>646</ele>
        <time>2022-01-26T09:13:34Z</time>
      </trkpt>
      <trkpt lat="45.26029" lon="4.62073">
        <ele>646.79998779297</ele>
        <time>2022-01-26T09:13:36Z</time>
      </trkpt>
      <trkpt lat="45.2606" lon="4.62064">
        <ele>648.59997558594</ele>
        <time>2022-01-26T09:13:51Z</time>
      </trkpt>
      <trkpt lat="45.26092" lon="4.62052">
        <ele>650.20001220703</ele>
        <time>2022-01-26T09:14:06Z</time>
      </trkpt>
      <trkpt lat="45.26096" lon="4.62051">
        <ele>650.20001220703</ele>
        <time>2022-01-26T09:14:07Z</time>
      </trkpt>
      <trkpt lat="45.26106" lon="4.62051">
        <ele>650.20001220703</ele>
        <time>2022-01-26T09:14:09Z</time>
      </trkpt>
      <trkpt lat="45.26129" lon="4.62055">
        <ele>650.40002441406</ele>
        <time>2022-01-26T09:14:13Z</time>
      </trkpt>
      <trkpt lat="45.26154" lon="4.62029">
        <ele>648.79998779297</ele>
        <time>2022-01-26T09:14:19Z</time>
      </trkpt>
      <trkpt lat="45.26159" lon="4.62011">
        <ele>647.79998779297</ele>
        <time>2022-01-26T09:14:23Z</time>
      </trkpt>
      <trkpt lat="45.26185" lon="4.61962">
        <ele>650.20001220703</ele>
        <time>2022-01-26T09:14:40Z</time>
      </trkpt>
      <trkpt lat="45.26203" lon="4.61931">
        <ele>652.40002441406</ele>
        <time>2022-01-26T09:14:54Z</time>
      </trkpt>
      <trkpt lat="45.26216" lon="4.61915">
        <ele>655.40002441406</ele>
        <time>2022-01-26T09:15:05Z</time>
      </trkpt>
      <trkpt lat="45.2623" lon="4.61902">
        <ele>658.40002441406</ele>
        <time>2022-01-26T09:15:17Z</time>
      </trkpt>
      <trkpt lat="45.26246" lon="4.61894">
        <ele>661.40002441406</ele>
        <time>2022-01-26T09:15:29Z</time>
      </trkpt>
      <trkpt lat="45.2626" lon="4.61883">
        <ele>664.40002441406</ele>
        <time>2022-01-26T09:15:40Z</time>
      </trkpt>
      <trkpt lat="45.26278" lon="4.61878">
        <ele>667.40002441406</ele>
        <time>2022-01-26T09:15:53Z</time>
      </trkpt>
      <trkpt lat="45.26292" lon="4.61873">
        <ele>670.40002441406</ele>
        <time>2022-01-26T09:16:04Z</time>
      </trkpt>
      <trkpt lat="45.263" lon="4.61866">
        <ele>672.40002441406</ele>
        <time>2022-01-26T09:16:11Z</time>
      </trkpt>
      <trkpt lat="45.26303" lon="4.61862">
        <ele>672.79998779297</ele>
        <time>2022-01-26T09:16:14Z</time>
      </trkpt>
      <trkpt lat="45.2632" lon="4.61864">
        <ele>675</ele>
        <time>2022-01-26T09:16:27Z</time>
      </trkpt>
      <trkpt lat="45.26339" lon="4.6187">
        <ele>677.20001220703</ele>
        <time>2022-01-26T09:16:42Z</time>
      </trkpt>
      <trkpt lat="45.26359" lon="4.61871">
        <ele>679</ele>
        <time>2022-01-26T09:16:56Z</time>
      </trkpt>
      <trkpt lat="45.26387" lon="4.61871">
        <ele>680.40002441406</ele>
        <time>2022-01-26T09:17:13Z</time>
      </trkpt>
      <trkpt lat="45.26427" lon="4.61879">
        <ele>683.20001220703</ele>
        <time>2022-01-26T09:17:36Z</time>
      </trkpt>
      <trkpt lat="45.26448" lon="4.6187">
        <ele>686</ele>
        <time>2022-01-26T09:17:49Z</time>
      </trkpt>
      <trkpt lat="45.26458" lon="4.61836">
        <ele>686.40002441406</ele>
        <time>2022-01-26T09:18:01Z</time>
      </trkpt>
      <trkpt lat="45.26443" lon="4.61782">
        <ele>687.40002441406</ele>
        <time>2022-01-26T09:18:18Z</time>
      </trkpt>
      <trkpt lat="45.26439" lon="4.61746">
        <ele>690.59997558594</ele>
        <time>2022-01-26T09:18:32Z</time>
      </trkpt>
      <trkpt lat="45.26435" lon="4.6171">
        <ele>692.59997558594</ele>
        <time>2022-01-26T09:18:45Z</time>
      </trkpt>
      <trkpt lat="45.26433" lon="4.61674">
        <ele>694.59997558594</ele>
        <time>2022-01-26T09:18:57Z</time>
      </trkpt>
      <trkpt lat="45.26438" lon="4.61638">
        <ele>697.59997558594</ele>
        <time>2022-01-26T09:19:11Z</time>
      </trkpt>
      <trkpt lat="45.2645" lon="4.61609">
        <ele>700.59997558594</ele>
        <time>2022-01-26T09:19:25Z</time>
      </trkpt>
      <trkpt lat="45.26467" lon="4.61583">
        <ele>703.59997558594</ele>
        <time>2022-01-26T09:19:40Z</time>
      </trkpt>
      <trkpt lat="45.26494" lon="4.61569">
        <ele>705.59997558594</ele>
        <time>2022-01-26T09:19:56Z</time>
      </trkpt>
      <trkpt lat="45.26521" lon="4.61563">
        <ele>708</ele>
        <time>2022-01-26T09:20:10Z</time>
      </trkpt>
      <trkpt lat="45.2653" lon="4.61538">
        <ele>709</ele>
        <time>2022-01-26T09:20:21Z</time>
      </trkpt>
      <trkpt lat="45.26535" lon="4.61513">
        <ele>710.40002441406</ele>
        <time>2022-01-26T09:20:31Z</time>
      </trkpt>
      <trkpt lat="45.26539" lon="4.61496">
        <ele>712.20001220703</ele>
        <time>2022-01-26T09:20:40Z</time>
      </trkpt>
      <trkpt lat="45.26539" lon="4.61494">
        <ele>713</ele>
        <time>2022-01-26T09:20:42Z</time>
      </trkpt>
      <trkpt lat="45.26545" lon="4.61471">
        <ele>714.59997558594</ele>
        <time>2022-01-26T09:20:54Z</time>
      </trkpt>
      <trkpt lat="45.26546" lon="4.61467">
        <ele>714.79998779297</ele>
        <time>2022-01-26T09:20:56Z</time>
      </trkpt>
      <trkpt lat="45.26546" lon="4.61457">
        <ele>715.40002441406</ele>
        <time>2022-01-26T09:21:00Z</time>
      </trkpt>
      <trkpt lat="45.26551" lon="4.61428">
        <ele>718</ele>
        <time>2022-01-26T09:21:13Z</time>
      </trkpt>
      <trkpt lat="45.26554" lon="4.61391">
        <ele>720.40002441406</ele>
        <time>2022-01-26T09:21:29Z</time>
      </trkpt>
      <trkpt lat="45.26559" lon="4.61367">
        <ele>722.79998779297</ele>
        <time>2022-01-26T09:21:41Z</time>
      </trkpt>
      <trkpt lat="45.26564" lon="4.61359">
        <ele>724.40002441406</ele>
        <time>2022-01-26T09:21:46Z</time>
      </trkpt>
      <trkpt lat="45.26577" lon="4.61324">
        <ele>726</ele>
        <time>2022-01-26T09:22:02Z</time>
      </trkpt>
      <trkpt lat="45.26589" lon="4.61291">
        <ele>727.20001220703</ele>
        <time>2022-01-26T09:22:15Z</time>
      </trkpt>
      <trkpt lat="45.26598" lon="4.61233">
        <ele>729.79998779297</ele>
        <time>2022-01-26T09:22:37Z</time>
      </trkpt>
      <trkpt lat="45.26601" lon="4.61202">
        <ele>732.79998779297</ele>
        <time>2022-01-26T09:22:50Z</time>
      </trkpt>
      <trkpt lat="45.26602" lon="4.6118">
        <ele>735</ele>
        <time>2022-01-26T09:23:00Z</time>
      </trkpt>
      <trkpt lat="45.26611" lon="4.61154">
        <ele>738</ele>
        <time>2022-01-26T09:23:15Z</time>
      </trkpt>
      <trkpt lat="45.26617" lon="4.61133">
        <ele>741</ele>
        <time>2022-01-26T09:23:27Z</time>
      </trkpt>
      <trkpt lat="45.26624" lon="4.61111">
        <ele>744</ele>
        <time>2022-01-26T09:23:40Z</time>
      </trkpt>
      <trkpt lat="45.26629" lon="4.6109">
        <ele>746</ele>
        <time>2022-01-26T09:23:52Z</time>
      </trkpt>
      <trkpt lat="45.26637" lon="4.61068">
        <ele>749</ele>
        <time>2022-01-26T09:24:05Z</time>
      </trkpt>
      <trkpt lat="45.26654" lon="4.61047">
        <ele>751.40002441406</ele>
        <time>2022-01-26T09:24:19Z</time>
      </trkpt>
      <trkpt lat="45.26656" lon="4.61005">
        <ele>751.40002441406</ele>
        <time>2022-01-26T09:24:32Z</time>
      </trkpt>
      <trkpt lat="45.26662" lon="4.60928">
        <ele>752.59997558594</ele>
        <time>2022-01-26T09:24:55Z</time>
      </trkpt>
      <trkpt lat="45.26674" lon="4.60893">
        <ele>755</ele>
        <time>2022-01-26T09:25:09Z</time>
      </trkpt>
      <trkpt lat="45.26684" lon="4.60865">
        <ele>756.59997558594</ele>
        <time>2022-01-26T09:25:20Z</time>
      </trkpt>
      <trkpt lat="45.26692" lon="4.60836">
        <ele>759.59997558594</ele>
        <time>2022-01-26T09:25:34Z</time>
      </trkpt>
      <trkpt lat="45.26703" lon="4.60806">
        <ele>762.59997558594</ele>
        <time>2022-01-26T09:25:48Z</time>
      </trkpt>
      <trkpt lat="45.26707" lon="4.60793">
        <ele>763.79998779297</ele>
        <time>2022-01-26T09:25:54Z</time>
      </trkpt>
      <trkpt lat="45.2671" lon="4.60772">
        <ele>766</ele>
        <time>2022-01-26T09:26:07Z</time>
      </trkpt>
      <trkpt lat="45.26711" lon="4.60767">
        <ele>766.59997558594</ele>
        <time>2022-01-26T09:26:10Z</time>
      </trkpt>
      <trkpt lat="45.26713" lon="4.60759">
        <ele>767</ele>
        <time>2022-01-26T09:26:15Z</time>
      </trkpt>
      <trkpt lat="45.26719" lon="4.60729">
        <ele>770</ele>
        <time>2022-01-26T09:26:31Z</time>
      </trkpt>
      <trkpt lat="45.26722" lon="4.60715">
        <ele>771.40002441406</ele>
        <time>2022-01-26T09:26:39Z</time>
      </trkpt>
      <trkpt lat="45.26726" lon="4.60697">
        <ele>773.40002441406</ele>
        <time>2022-01-26T09:26:50Z</time>
      </trkpt>
      <trkpt lat="45.26735" lon="4.60678">
        <ele>775.59997558594</ele>
        <time>2022-01-26T09:27:04Z</time>
      </trkpt>
      <trkpt lat="45.26744" lon="4.60662">
        <ele>777.59997558594</ele>
        <time>2022-01-26T09:27:16Z</time>
      </trkpt>
      <trkpt lat="45.26754" lon="4.60646">
        <ele>779</ele>
        <time>2022-01-26T09:27:25Z</time>
      </trkpt>
      <trkpt lat="45.26761" lon="4.60632">
        <ele>780.59997558594</ele>
        <time>2022-01-26T09:27:35Z</time>
      </trkpt>
      <trkpt lat="45.26771" lon="4.60612">
        <ele>782.59997558594</ele>
        <time>2022-01-26T09:27:46Z</time>
      </trkpt>
      <trkpt lat="45.26775" lon="4.60605">
        <ele>783.79998779297</ele>
        <time>2022-01-26T09:27:51Z</time>
      </trkpt>
      <trkpt lat="45.26784" lon="4.60588">
        <ele>786.20001220703</ele>
        <time>2022-01-26T09:28:02Z</time>
      </trkpt>
      <trkpt lat="45.26797" lon="4.60568">
        <ele>789.40002441406</ele>
        <time>2022-01-26T09:28:15Z</time>
      </trkpt>
      <trkpt lat="45.26803" lon="4.6056">
        <ele>791.59997558594</ele>
        <time>2022-01-26T09:28:26Z</time>
      </trkpt>
      <trkpt lat="45.26817" lon="4.60544">
        <ele>793.79998779297</ele>
        <time>2022-01-26T09:28:39Z</time>
      </trkpt>
      <trkpt lat="45.26829" lon="4.60525">
        <ele>795.79998779297</ele>
        <time>2022-01-26T09:28:49Z</time>
      </trkpt>
      <trkpt lat="45.26835" lon="4.60522">
        <ele>796.40002441406</ele>
        <time>2022-01-26T09:28:53Z</time>
      </trkpt>
      <trkpt lat="45.26846" lon="4.60511">
        <ele>798.20001220703</ele>
        <time>2022-01-26T09:29:02Z</time>
      </trkpt>
      <trkpt lat="45.26857" lon="4.605">
        <ele>800.20001220703</ele>
        <time>2022-01-26T09:29:13Z</time>
      </trkpt>
      <trkpt lat="45.26871" lon="4.60483">
        <ele>802.40002441406</ele>
        <time>2022-01-26T09:29:27Z</time>
      </trkpt>
      <trkpt lat="45.26882" lon="4.60472">
        <ele>804.40002441406</ele>
        <time>2022-01-26T09:29:38Z</time>
      </trkpt>
      <trkpt lat="45.26894" lon="4.60454">
        <ele>806.79998779297</ele>
        <time>2022-01-26T09:29:49Z</time>
      </trkpt>
      <trkpt lat="45.26898" lon="4.60448">
        <ele>807.20001220703</ele>
        <time>2022-01-26T09:29:52Z</time>
      </trkpt>
      <trkpt lat="45.26903" lon="4.60441">
        <ele>808</ele>
        <time>2022-01-26T09:29:56Z</time>
      </trkpt>
      <trkpt lat="45.26921" lon="4.60418">
        <ele>810.59997558594</ele>
        <time>2022-01-26T09:30:12Z</time>
      </trkpt>
      <trkpt lat="45.26933" lon="4.60397">
        <ele>813.20001220703</ele>
        <time>2022-01-26T09:30:27Z</time>
      </trkpt>
      <trkpt lat="45.26937" lon="4.60394">
        <ele>814</ele>
        <time>2022-01-26T09:30:30Z</time>
      </trkpt>
      <trkpt lat="45.2694" lon="4.60386">
        <ele>815</ele>
        <time>2022-01-26T09:30:35Z</time>
      </trkpt>
      <trkpt lat="45.26948" lon="4.60366">
        <ele>817.59997558594</ele>
        <time>2022-01-26T09:30:51Z</time>
      </trkpt>
      <trkpt lat="45.26963" lon="4.60344">
        <ele>820.59997558594</ele>
        <time>2022-01-26T09:31:06Z</time>
      </trkpt>
      <trkpt lat="45.26971" lon="4.60329">
        <ele>822.59997558594</ele>
        <time>2022-01-26T09:31:18Z</time>
      </trkpt>
      <trkpt lat="45.26975" lon="4.60322">
        <ele>824.20001220703</ele>
        <time>2022-01-26T09:31:27Z</time>
      </trkpt>
      <trkpt lat="45.26986" lon="4.60302">
        <ele>827</ele>
        <time>2022-01-26T09:31:37Z</time>
      </trkpt>
      <trkpt lat="45.26998" lon="4.60286">
        <ele>830</ele>
        <time>2022-01-26T09:31:47Z</time>
      </trkpt>
      <trkpt lat="45.27004" lon="4.6028">
        <ele>831.59997558594</ele>
        <time>2022-01-26T09:31:53Z</time>
      </trkpt>
      <trkpt lat="45.27017" lon="4.60271">
        <ele>834.59997558594</ele>
        <time>2022-01-26T09:32:06Z</time>
      </trkpt>
      <trkpt lat="45.27018" lon="4.6027">
        <ele>835</ele>
        <time>2022-01-26T09:32:10Z</time>
      </trkpt>
      <trkpt lat="45.27029" lon="4.60255">
        <ele>837.40002441406</ele>
        <time>2022-01-26T09:32:24Z</time>
      </trkpt>
      <trkpt lat="45.27041" lon="4.60241">
        <ele>839.59997558594</ele>
        <time>2022-01-26T09:32:36Z</time>
      </trkpt>
      <trkpt lat="45.27046" lon="4.60239">
        <ele>840</ele>
        <time>2022-01-26T09:32:39Z</time>
      </trkpt>
      <trkpt lat="45.27047" lon="4.60237">
        <ele>840.20001220703</ele>
        <time>2022-01-26T09:32:41Z</time>
      </trkpt>
      <trkpt lat="45.2705" lon="4.60229">
        <ele>841</ele>
        <time>2022-01-26T09:32:46Z</time>
      </trkpt>
      <trkpt lat="45.27068" lon="4.60214">
        <ele>843</ele>
        <time>2022-01-26T09:33:03Z</time>
      </trkpt>
      <trkpt lat="45.27086" lon="4.60206">
        <ele>844.79998779297</ele>
        <time>2022-01-26T09:33:16Z</time>
      </trkpt>
      <trkpt lat="45.27101" lon="4.60198">
        <ele>846.20001220703</ele>
        <time>2022-01-26T09:33:27Z</time>
      </trkpt>
      <trkpt lat="45.27111" lon="4.60181">
        <ele>848.40002441406</ele>
        <time>2022-01-26T09:33:39Z</time>
      </trkpt>
      <trkpt lat="45.27116" lon="4.60155">
        <ele>849.59997558594</ele>
        <time>2022-01-26T09:33:52Z</time>
      </trkpt>
      <trkpt lat="45.27117" lon="4.60122">
        <ele>851.40002441406</ele>
        <time>2022-01-26T09:34:06Z</time>
      </trkpt>
      <trkpt lat="45.27115" lon="4.60094">
        <ele>853.20001220703</ele>
        <time>2022-01-26T09:34:19Z</time>
      </trkpt>
      <trkpt lat="45.27107" lon="4.60062">
        <ele>856.20001220703</ele>
        <time>2022-01-26T09:34:35Z</time>
      </trkpt>
      <trkpt lat="45.27097" lon="4.6004">
        <ele>859</ele>
        <time>2022-01-26T09:34:48Z</time>
      </trkpt>
      <trkpt lat="45.27083" lon="4.60023">
        <ele>861.40002441406</ele>
        <time>2022-01-26T09:35:01Z</time>
      </trkpt>
      <trkpt lat="45.27075" lon="4.60016">
        <ele>863.20001220703</ele>
        <time>2022-01-26T09:35:09Z</time>
      </trkpt>
      <trkpt lat="45.2707" lon="4.60013">
        <ele>863.79998779297</ele>
        <time>2022-01-26T09:35:13Z</time>
      </trkpt>
      <trkpt lat="45.27065" lon="4.6001">
        <ele>864.40002441406</ele>
        <time>2022-01-26T09:35:17Z</time>
      </trkpt>
      <trkpt lat="45.2706" lon="4.60009">
        <ele>864.79998779297</ele>
        <time>2022-01-26T09:35:34Z</time>
      </trkpt>
      <trkpt lat="45.27025" lon="4.5998">
        <ele>865.79998779297</ele>
        <time>2022-01-26T09:35:58Z</time>
      </trkpt>
      <trkpt lat="45.26988" lon="4.59949">
        <ele>866.79998779297</ele>
        <time>2022-01-26T09:36:18Z</time>
      </trkpt>
      <trkpt lat="45.26966" lon="4.59926">
        <ele>869.20001220703</ele>
        <time>2022-01-26T09:36:34Z</time>
      </trkpt>
      <trkpt lat="45.2695" lon="4.5991">
        <ele>871.79998779297</ele>
        <time>2022-01-26T09:36:50Z</time>
      </trkpt>
      <trkpt lat="45.26948" lon="4.59905">
        <ele>872</ele>
        <time>2022-01-26T09:36:54Z</time>
      </trkpt>
      <trkpt lat="45.26941" lon="4.59897">
        <ele>872</ele>
        <time>2022-01-26T09:37:00Z</time>
      </trkpt>
      <trkpt lat="45.26908" lon="4.59849">
        <ele>871.20001220703</ele>
        <time>2022-01-26T09:37:15Z</time>
      </trkpt>
      <trkpt lat="45.26902" lon="4.59819">
        <ele>871.20001220703</ele>
        <time>2022-01-26T09:37:23Z</time>
      </trkpt>
      <trkpt lat="45.26917" lon="4.59757">
        <ele>869.20001220703</ele>
        <time>2022-01-26T09:37:33Z</time>
      </trkpt>
      <trkpt lat="45.2692" lon="4.5975">
        <ele>869</ele>
        <time>2022-01-26T09:37:34Z</time>
      </trkpt>
      <trkpt lat="45.26945" lon="4.59701">
        <ele>867.20001220703</ele>
        <time>2022-01-26T09:37:44Z</time>
      </trkpt>
      <trkpt lat="45.26966" lon="4.59659">
        <ele>867</ele>
        <time>2022-01-26T09:37:57Z</time>
      </trkpt>
      <trkpt lat="45.26979" lon="4.59583">
        <ele>865.59997558594</ele>
        <time>2022-01-26T09:38:14Z</time>
      </trkpt>
      <trkpt lat="45.26972" lon="4.59541">
        <ele>862.40002441406</ele>
        <time>2022-01-26T09:38:20Z</time>
      </trkpt>
      <trkpt lat="45.2697" lon="4.59533">
        <ele>861.59997558594</ele>
        <time>2022-01-26T09:38:21Z</time>
      </trkpt>
      <trkpt lat="45.26968" lon="4.59526">
        <ele>861.40002441406</ele>
        <time>2022-01-26T09:38:22Z</time>
      </trkpt>
      <trkpt lat="45.26965" lon="4.59518">
        <ele>861.20001220703</ele>
        <time>2022-01-26T09:38:23Z</time>
      </trkpt>
      <trkpt lat="45.26955" lon="4.59487">
        <ele>858</ele>
        <time>2022-01-26T09:38:27Z</time>
      </trkpt>
      <trkpt lat="45.26944" lon="4.5946">
        <ele>855.20001220703</ele>
        <time>2022-01-26T09:38:31Z</time>
      </trkpt>
      <trkpt lat="45.26941" lon="4.59447">
        <ele>853.59997558594</ele>
        <time>2022-01-26T09:38:33Z</time>
      </trkpt>
      <trkpt lat="45.26944" lon="4.59418">
        <ele>850</ele>
        <time>2022-01-26T09:38:37Z</time>
      </trkpt>
      <trkpt lat="45.26948" lon="4.59393">
        <ele>848.59997558594</ele>
        <time>2022-01-26T09:38:40Z</time>
      </trkpt>
      <trkpt lat="45.26949" lon="4.59384">
        <ele>847.59997558594</ele>
        <time>2022-01-26T09:38:41Z</time>
      </trkpt>
      <trkpt lat="45.26952" lon="4.59357">
        <ele>844.59997558594</ele>
        <time>2022-01-26T09:38:45Z</time>
      </trkpt>
      <trkpt lat="45.26958" lon="4.59326">
        <ele>841.59997558594</ele>
        <time>2022-01-26T09:38:50Z</time>
      </trkpt>
      <trkpt lat="45.26958" lon="4.59312">
        <ele>841</ele>
        <time>2022-01-26T09:38:52Z</time>
      </trkpt>
      <trkpt lat="45.26956" lon="4.59302">
        <ele>840</ele>
        <time>2022-01-26T09:38:53Z</time>
      </trkpt>
      <trkpt lat="45.26954" lon="4.59295">
        <ele>839.79998779297</ele>
        <time>2022-01-26T09:38:54Z</time>
      </trkpt>
      <trkpt lat="45.26951" lon="4.5925">
        <ele>837.40002441406</ele>
        <time>2022-01-26T09:39:00Z</time>
      </trkpt>
      <trkpt lat="45.26947" lon="4.59236">
        <ele>836</ele>
        <time>2022-01-26T09:39:02Z</time>
      </trkpt>
      <trkpt lat="45.26945" lon="4.59232">
        <ele>835.59997558594</ele>
        <time>2022-01-26T09:39:03Z</time>
      </trkpt>
      <trkpt lat="45.26945" lon="4.59215">
        <ele>835.59997558594</ele>
        <time>2022-01-26T09:39:07Z</time>
      </trkpt>
      <trkpt lat="45.26947" lon="4.59205">
        <ele>835.59997558594</ele>
        <time>2022-01-26T09:39:09Z</time>
      </trkpt>
      <trkpt lat="45.26951" lon="4.59185">
        <ele>835.79998779297</ele>
        <time>2022-01-26T09:39:14Z</time>
      </trkpt>
      <trkpt lat="45.26952" lon="4.59184">
        <ele>836.59997558594</ele>
        <time>2022-01-26T09:39:21Z</time>
      </trkpt>
      <trkpt lat="45.26954" lon="4.59183">
        <ele>836</ele>
        <time>2022-01-26T09:41:00Z</time>
      </trkpt>
      <trkpt lat="45.26969" lon="4.59188">
        <ele>835</ele>
        <time>2022-01-26T09:41:06Z</time>
      </trkpt>
      <trkpt lat="45.26973" lon="4.59188">
        <ele>834.59997558594</ele>
        <time>2022-01-26T09:41:08Z</time>
      </trkpt>
      <trkpt lat="45.26987" lon="4.59198">
        <ele>834.20001220703</ele>
        <time>2022-01-26T09:41:14Z</time>
      </trkpt>
      <trkpt lat="45.26989" lon="4.59201">
        <ele>834</ele>
        <time>2022-01-26T09:41:15Z</time>
      </trkpt>
      <trkpt lat="45.27023" lon="4.59229">
        <ele>832.59997558594</ele>
        <time>2022-01-26T09:41:20Z</time>
      </trkpt>
      <trkpt lat="45.27061" lon="4.59261">
        <ele>829.59997558594</ele>
        <time>2022-01-26T09:41:25Z</time>
      </trkpt>
      <trkpt lat="45.27107" lon="4.59302">
        <ele>827.20001220703</ele>
        <time>2022-01-26T09:41:31Z</time>
      </trkpt>
      <trkpt lat="45.27122" lon="4.59318">
        <ele>826.20001220703</ele>
        <time>2022-01-26T09:41:34Z</time>
      </trkpt>
      <trkpt lat="45.27134" lon="4.59326">
        <ele>825.40002441406</ele>
        <time>2022-01-26T09:41:37Z</time>
      </trkpt>
      <trkpt lat="45.27151" lon="4.59332">
        <ele>822.59997558594</ele>
        <time>2022-01-26T09:41:42Z</time>
      </trkpt>
      <trkpt lat="45.27182" lon="4.5933">
        <ele>818.40002441406</ele>
        <time>2022-01-26T09:41:52Z</time>
      </trkpt>
      <trkpt lat="45.27189" lon="4.59327">
        <ele>817.40002441406</ele>
        <time>2022-01-26T09:41:54Z</time>
      </trkpt>
      <trkpt lat="45.27205" lon="4.59312">
        <ele>815.59997558594</ele>
        <time>2022-01-26T09:41:58Z</time>
      </trkpt>
      <trkpt lat="45.27213" lon="4.59276">
        <ele>813.20001220703</ele>
        <time>2022-01-26T09:42:03Z</time>
      </trkpt>
      <trkpt lat="45.27217" lon="4.59259">
        <ele>812.59997558594</ele>
        <time>2022-01-26T09:42:05Z</time>
      </trkpt>
      <trkpt lat="45.27216" lon="4.59202">
        <ele>808.59997558594</ele>
        <time>2022-01-26T09:42:11Z</time>
      </trkpt>
      <trkpt lat="45.27217" lon="4.5919">
        <ele>808.40002441406</ele>
        <time>2022-01-26T09:42:12Z</time>
      </trkpt>
      <trkpt lat="45.27218" lon="4.59156">
        <ele>806.40002441406</ele>
        <time>2022-01-26T09:42:15Z</time>
      </trkpt>
      <trkpt lat="45.2722" lon="4.5911">
        <ele>804.40002441406</ele>
        <time>2022-01-26T09:42:19Z</time>
      </trkpt>
      <trkpt lat="45.27216" lon="4.59078">
        <ele>802.79998779297</ele>
        <time>2022-01-26T09:42:22Z</time>
      </trkpt>
      <trkpt lat="45.27211" lon="4.59039">
        <ele>799.20001220703</ele>
        <time>2022-01-26T09:42:27Z</time>
      </trkpt>
      <trkpt lat="45.27211" lon="4.59031">
        <ele>799</ele>
        <time>2022-01-26T09:42:28Z</time>
      </trkpt>
      <trkpt lat="45.27213" lon="4.58967">
        <ele>795.40002441406</ele>
        <time>2022-01-26T09:42:35Z</time>
      </trkpt>
      <trkpt lat="45.27187" lon="4.5892">
        <ele>792.20001220703</ele>
        <time>2022-01-26T09:42:41Z</time>
      </trkpt>
      <trkpt lat="45.27165" lon="4.58894">
        <ele>789</ele>
        <time>2022-01-26T09:42:45Z</time>
      </trkpt>
      <trkpt lat="45.27148" lon="4.58868">
        <ele>786</ele>
        <time>2022-01-26T09:42:50Z</time>
      </trkpt>
      <trkpt lat="45.27149" lon="4.58863">
        <ele>785.20001220703</ele>
        <time>2022-01-26T09:42:51Z</time>
      </trkpt>
      <trkpt lat="45.27161" lon="4.58829">
        <ele>783</ele>
        <time>2022-01-26T09:42:56Z</time>
      </trkpt>
      <trkpt lat="45.27162" lon="4.58779">
        <ele>781.59997558594</ele>
        <time>2022-01-26T09:43:01Z</time>
      </trkpt>
      <trkpt lat="45.2716" lon="4.58678">
        <ele>777.79998779297</ele>
        <time>2022-01-26T09:43:09Z</time>
      </trkpt>
      <trkpt lat="45.27143" lon="4.58634">
        <ele>775</ele>
        <time>2022-01-26T09:43:14Z</time>
      </trkpt>
      <trkpt lat="45.27137" lon="4.58625">
        <ele>774.20001220703</ele>
        <time>2022-01-26T09:43:15Z</time>
      </trkpt>
      <trkpt lat="45.27132" lon="4.58619">
        <ele>773</ele>
        <time>2022-01-26T09:43:16Z</time>
      </trkpt>
      <trkpt lat="45.27109" lon="4.58571">
        <ele>769.20001220703</ele>
        <time>2022-01-26T09:43:22Z</time>
      </trkpt>
      <trkpt lat="45.27106" lon="4.58563">
        <ele>768.40002441406</ele>
        <time>2022-01-26T09:43:23Z</time>
      </trkpt>
      <trkpt lat="45.27102" lon="4.58539">
        <ele>765.20001220703</ele>
        <time>2022-01-26T09:43:26Z</time>
      </trkpt>
      <trkpt lat="45.27105" lon="4.58522">
        <ele>764.40002441406</ele>
        <time>2022-01-26T09:43:28Z</time>
      </trkpt>
      <trkpt lat="45.27097" lon="4.58481">
        <ele>762.79998779297</ele>
        <time>2022-01-26T09:43:33Z</time>
      </trkpt>
      <trkpt lat="45.27093" lon="4.58466">
        <ele>762</ele>
        <time>2022-01-26T09:43:35Z</time>
      </trkpt>
      <trkpt lat="45.27092" lon="4.58439">
        <ele>760</ele>
        <time>2022-01-26T09:43:41Z</time>
      </trkpt>
      <trkpt lat="45.27087" lon="4.58422">
        <ele>756.59997558594</ele>
        <time>2022-01-26T09:43:49Z</time>
      </trkpt>
      <trkpt lat="45.27088" lon="4.58422">
        <ele>754</ele>
        <time>2022-01-26T09:44:02Z</time>
      </trkpt>
      <trkpt lat="45.27088" lon="4.58422">
        <ele>753.40002441406</ele>
        <time>2022-01-26T09:44:42Z</time>
      </trkpt>
      <trkpt lat="45.27095" lon="4.58441">
        <ele>753</ele>
        <time>2022-01-26T09:44:47Z</time>
      </trkpt>
      <trkpt lat="45.27107" lon="4.58468">
        <ele>750.79998779297</ele>
        <time>2022-01-26T09:44:53Z</time>
      </trkpt>
      <trkpt lat="45.27123" lon="4.58491">
        <ele>749.40002441406</ele>
        <time>2022-01-26T09:44:57Z</time>
      </trkpt>
      <trkpt lat="45.27133" lon="4.58504">
        <ele>747.79998779297</ele>
        <time>2022-01-26T09:45:00Z</time>
      </trkpt>
      <trkpt lat="45.27148" lon="4.58523">
        <ele>745.40002441406</ele>
        <time>2022-01-26T09:45:04Z</time>
      </trkpt>
      <trkpt lat="45.27174" lon="4.58545">
        <ele>741.79998779297</ele>
        <time>2022-01-26T09:45:09Z</time>
      </trkpt>
      <trkpt lat="45.27194" lon="4.58561">
        <ele>740.20001220703</ele>
        <time>2022-01-26T09:45:12Z</time>
      </trkpt>
      <trkpt lat="45.27211" lon="4.58574">
        <ele>738.20001220703</ele>
        <time>2022-01-26T09:45:15Z</time>
      </trkpt>
      <trkpt lat="45.27238" lon="4.58608">
        <ele>734.20001220703</ele>
        <time>2022-01-26T09:45:21Z</time>
      </trkpt>
      <trkpt lat="45.27257" lon="4.58639">
        <ele>730.40002441406</ele>
        <time>2022-01-26T09:45:25Z</time>
      </trkpt>
      <trkpt lat="45.27264" lon="4.58652">
        <ele>728.40002441406</ele>
        <time>2022-01-26T09:45:27Z</time>
      </trkpt>
      <trkpt lat="45.27272" lon="4.58673">
        <ele>725</ele>
        <time>2022-01-26T09:45:30Z</time>
      </trkpt>
      <trkpt lat="45.2728" lon="4.58705">
        <ele>721.40002441406</ele>
        <time>2022-01-26T09:45:34Z</time>
      </trkpt>
      <trkpt lat="45.27283" lon="4.58711">
        <ele>721.20001220703</ele>
        <time>2022-01-26T09:45:35Z</time>
      </trkpt>
      <trkpt lat="45.27297" lon="4.58725">
        <ele>717.20001220703</ele>
        <time>2022-01-26T09:45:39Z</time>
      </trkpt>
      <trkpt lat="45.27316" lon="4.58723">
        <ele>714.40002441406</ele>
        <time>2022-01-26T09:45:42Z</time>
      </trkpt>
      <trkpt lat="45.2733" lon="4.58722">
        <ele>712.40002441406</ele>
        <time>2022-01-26T09:45:44Z</time>
      </trkpt>
      <trkpt lat="45.27352" lon="4.58728">
        <ele>710.79998779297</ele>
        <time>2022-01-26T09:45:47Z</time>
      </trkpt>
      <trkpt lat="45.27377" lon="4.58747">
        <ele>707.79998779297</ele>
        <time>2022-01-26T09:45:51Z</time>
      </trkpt>
      <trkpt lat="45.27395" lon="4.58773">
        <ele>704</ele>
        <time>2022-01-26T09:45:55Z</time>
      </trkpt>
      <trkpt lat="45.27396" lon="4.58809">
        <ele>701</ele>
        <time>2022-01-26T09:46:00Z</time>
      </trkpt>
      <trkpt lat="45.27395" lon="4.58816">
        <ele>700.20001220703</ele>
        <time>2022-01-26T09:46:01Z</time>
      </trkpt>
      <trkpt lat="45.27401" lon="4.58841">
        <ele>696.59997558594</ele>
        <time>2022-01-26T09:46:05Z</time>
      </trkpt>
      <trkpt lat="45.27404" lon="4.58845">
        <ele>696.20001220703</ele>
        <time>2022-01-26T09:46:06Z</time>
      </trkpt>
      <trkpt lat="45.2741" lon="4.58853">
        <ele>695.40002441406</ele>
        <time>2022-01-26T09:46:08Z</time>
      </trkpt>
      <trkpt lat="45.27438" lon="4.5885">
        <ele>692</ele>
        <time>2022-01-26T09:46:14Z</time>
      </trkpt>
      <trkpt lat="45.27444" lon="4.58848">
        <ele>691.59997558594</ele>
        <time>2022-01-26T09:46:15Z</time>
      </trkpt>
      <trkpt lat="45.27451" lon="4.58846">
        <ele>690.79998779297</ele>
        <time>2022-01-26T09:46:16Z</time>
      </trkpt>
      <trkpt lat="45.27474" lon="4.58847">
        <ele>689.40002441406</ele>
        <time>2022-01-26T09:46:20Z</time>
      </trkpt>
      <trkpt lat="45.27492" lon="4.58837">
        <ele>685.20001220703</ele>
        <time>2022-01-26T09:46:25Z</time>
      </trkpt>
      <trkpt lat="45.27469" lon="4.58821">
        <ele>681.20001220703</ele>
        <time>2022-01-26T09:46:31Z</time>
      </trkpt>
      <trkpt lat="45.27465" lon="4.58821">
        <ele>680.79998779297</ele>
        <time>2022-01-26T09:46:32Z</time>
      </trkpt>
      <trkpt lat="45.27432" lon="4.58804">
        <ele>678.79998779297</ele>
        <time>2022-01-26T09:46:42Z</time>
      </trkpt>
      <trkpt lat="45.27446" lon="4.58764">
        <ele>678.20001220703</ele>
        <time>2022-01-26T09:46:49Z</time>
      </trkpt>
      <trkpt lat="45.27456" lon="4.58737">
        <ele>678</ele>
        <time>2022-01-26T09:46:52Z</time>
      </trkpt>
      <trkpt lat="45.27455" lon="4.58708">
        <ele>676</ele>
        <time>2022-01-26T09:46:55Z</time>
      </trkpt>
      <trkpt lat="45.27442" lon="4.58686">
        <ele>675.20001220703</ele>
        <time>2022-01-26T09:46:58Z</time>
      </trkpt>
      <trkpt lat="45.27424" lon="4.5866">
        <ele>674</ele>
        <time>2022-01-26T09:47:02Z</time>
      </trkpt>
      <trkpt lat="45.27404" lon="4.58637">
        <ele>673.20001220703</ele>
        <time>2022-01-26T09:47:06Z</time>
      </trkpt>
      <trkpt lat="45.27389" lon="4.58601">
        <ele>672</ele>
        <time>2022-01-26T09:47:11Z</time>
      </trkpt>
      <trkpt lat="45.27387" lon="4.58592">
        <ele>671.40002441406</ele>
        <time>2022-01-26T09:47:13Z</time>
      </trkpt>
      <trkpt lat="45.27402" lon="4.5858">
        <ele>669.79998779297</ele>
        <time>2022-01-26T09:47:18Z</time>
      </trkpt>
      <trkpt lat="45.27407" lon="4.5858">
        <ele>669.40002441406</ele>
        <time>2022-01-26T09:47:19Z</time>
      </trkpt>
      <trkpt lat="45.2742" lon="4.58581">
        <ele>668.20001220703</ele>
        <time>2022-01-26T09:47:21Z</time>
      </trkpt>
      <trkpt lat="45.27453" lon="4.58583">
        <ele>664.59997558594</ele>
        <time>2022-01-26T09:47:26Z</time>
      </trkpt>
      <trkpt lat="45.27473" lon="4.58578">
        <ele>663.59997558594</ele>
        <time>2022-01-26T09:47:29Z</time>
      </trkpt>
      <trkpt lat="45.27493" lon="4.58539">
        <ele>661.40002441406</ele>
        <time>2022-01-26T09:47:34Z</time>
      </trkpt>
      <trkpt lat="45.27497" lon="4.58511">
        <ele>659</ele>
        <time>2022-01-26T09:47:37Z</time>
      </trkpt>
      <trkpt lat="45.27497" lon="4.58496">
        <ele>658</ele>
        <time>2022-01-26T09:47:39Z</time>
      </trkpt>
      <trkpt lat="45.27496" lon="4.58483">
        <ele>656</ele>
        <time>2022-01-26T09:47:41Z</time>
      </trkpt>
      <trkpt lat="45.27505" lon="4.58469">
        <ele>652</ele>
        <time>2022-01-26T09:47:47Z</time>
      </trkpt>
      <trkpt lat="45.27508" lon="4.58476">
        <ele>650.79998779297</ele>
        <time>2022-01-26T09:47:49Z</time>
      </trkpt>
      <trkpt lat="45.27519" lon="4.58502">
        <ele>648.20001220703</ele>
        <time>2022-01-26T09:47:59Z</time>
      </trkpt>
      <trkpt lat="45.27529" lon="4.58554">
        <ele>646.59997558594</ele>
        <time>2022-01-26T09:48:11Z</time>
      </trkpt>
      <trkpt lat="45.27518" lon="4.58596">
        <ele>648.79998779297</ele>
        <time>2022-01-26T09:48:23Z</time>
      </trkpt>
      <trkpt lat="45.27476" lon="4.58606">
        <ele>650.79998779297</ele>
        <time>2022-01-26T09:48:39Z</time>
      </trkpt>
      <trkpt lat="45.27464" lon="4.58618">
        <ele>651.59997558594</ele>
        <time>2022-01-26T09:48:44Z</time>
      </trkpt>
      <trkpt lat="45.27471" lon="4.5863">
        <ele>651.79998779297</ele>
        <time>2022-01-26T09:48:49Z</time>
      </trkpt>
      <trkpt lat="45.27485" lon="4.58649">
        <ele>652</ele>
        <time>2022-01-26T09:48:55Z</time>
      </trkpt>
      <trkpt lat="45.27496" lon="4.58667">
        <ele>652.40002441406</ele>
        <time>2022-01-26T09:49:00Z</time>
      </trkpt>
      <trkpt lat="45.27504" lon="4.58713">
        <ele>652</ele>
        <time>2022-01-26T09:49:08Z</time>
      </trkpt>
      <trkpt lat="45.27527" lon="4.58725">
        <ele>650.59997558594</ele>
        <time>2022-01-26T09:49:14Z</time>
      </trkpt>
      <trkpt lat="45.27532" lon="4.58724">
        <ele>650.59997558594</ele>
        <time>2022-01-26T09:49:15Z</time>
      </trkpt>
      <trkpt lat="45.2756" lon="4.58725">
        <ele>647.59997558594</ele>
        <time>2022-01-26T09:49:21Z</time>
      </trkpt>
      <trkpt lat="45.2757" lon="4.58726">
        <ele>646.59997558594</ele>
        <time>2022-01-26T09:49:23Z</time>
      </trkpt>
      <trkpt lat="45.27576" lon="4.58727">
        <ele>646.20001220703</ele>
        <time>2022-01-26T09:49:24Z</time>
      </trkpt>
      <trkpt lat="45.27596" lon="4.58726">
        <ele>642.20001220703</ele>
        <time>2022-01-26T09:49:30Z</time>
      </trkpt>
      <trkpt lat="45.276" lon="4.58728">
        <ele>641</ele>
        <time>2022-01-26T09:49:32Z</time>
      </trkpt>
      <trkpt lat="45.27602" lon="4.58728">
        <ele>639.40002441406</ele>
        <time>2022-01-26T09:49:36Z</time>
      </trkpt>
      <trkpt lat="45.2763" lon="4.58722">
        <ele>636.59997558594</ele>
        <time>2022-01-26T09:49:55Z</time>
      </trkpt>
      <trkpt lat="45.2765" lon="4.58721">
        <ele>633.59997558594</ele>
        <time>2022-01-26T09:50:03Z</time>
      </trkpt>
      <trkpt lat="45.27653" lon="4.58721">
        <ele>633.40002441406</ele>
        <time>2022-01-26T09:50:04Z</time>
      </trkpt>
      <trkpt lat="45.27671" lon="4.58709">
        <ele>630.59997558594</ele>
        <time>2022-01-26T09:50:14Z</time>
      </trkpt>
      <trkpt lat="45.27709" lon="4.58681">
        <ele>627.40002441406</ele>
        <time>2022-01-26T09:50:25Z</time>
      </trkpt>
      <trkpt lat="45.27718" lon="4.58671">
        <ele>626.20001220703</ele>
        <time>2022-01-26T09:50:27Z</time>
      </trkpt>
      <trkpt lat="45.27734" lon="4.58652">
        <ele>624.20001220703</ele>
        <time>2022-01-26T09:50:31Z</time>
      </trkpt>
      <trkpt lat="45.27746" lon="4.58643">
        <ele>620.40002441406</ele>
        <time>2022-01-26T09:50:34Z</time>
      </trkpt>
      <trkpt lat="45.27765" lon="4.58632">
        <ele>617</ele>
        <time>2022-01-26T09:50:38Z</time>
      </trkpt>
      <trkpt lat="45.27793" lon="4.58626">
        <ele>613</ele>
        <time>2022-01-26T09:50:43Z</time>
      </trkpt>
      <trkpt lat="45.27808" lon="4.58627">
        <ele>610.20001220703</ele>
        <time>2022-01-26T09:50:46Z</time>
      </trkpt>
      <trkpt lat="45.27813" lon="4.58628">
        <ele>610</ele>
        <time>2022-01-26T09:50:47Z</time>
      </trkpt>
      <trkpt lat="45.27842" lon="4.58637">
        <ele>606.79998779297</ele>
        <time>2022-01-26T09:50:52Z</time>
      </trkpt>
      <trkpt lat="45.27879" lon="4.58654">
        <ele>603.59997558594</ele>
        <time>2022-01-26T09:50:58Z</time>
      </trkpt>
      <trkpt lat="45.27897" lon="4.58661">
        <ele>599.79998779297</ele>
        <time>2022-01-26T09:51:02Z</time>
      </trkpt>
      <trkpt lat="45.27906" lon="4.58666">
        <ele>598.79998779297</ele>
        <time>2022-01-26T09:51:04Z</time>
      </trkpt>
      <trkpt lat="45.27928" lon="4.58671">
        <ele>595.59997558594</ele>
        <time>2022-01-26T09:51:09Z</time>
      </trkpt>
      <trkpt lat="45.27941" lon="4.58678">
        <ele>592.59997558594</ele>
        <time>2022-01-26T09:51:13Z</time>
      </trkpt>
      <trkpt lat="45.27949" lon="4.58685">
        <ele>591.59997558594</ele>
        <time>2022-01-26T09:51:15Z</time>
      </trkpt>
      <trkpt lat="45.27966" lon="4.58702">
        <ele>590.20001220703</ele>
        <time>2022-01-26T09:51:19Z</time>
      </trkpt>
      <trkpt lat="45.27984" lon="4.58722">
        <ele>588.59997558594</ele>
        <time>2022-01-26T09:51:23Z</time>
      </trkpt>
      <trkpt lat="45.28008" lon="4.58733">
        <ele>586.79998779297</ele>
        <time>2022-01-26T09:51:27Z</time>
      </trkpt>
      <trkpt lat="45.28027" lon="4.58735">
        <ele>584.79998779297</ele>
        <time>2022-01-26T09:51:30Z</time>
      </trkpt>
      <trkpt lat="45.28058" lon="4.58734">
        <ele>582.79998779297</ele>
        <time>2022-01-26T09:51:35Z</time>
      </trkpt>
      <trkpt lat="45.28062" lon="4.58734">
        <ele>582.59997558594</ele>
        <time>2022-01-26T09:51:36Z</time>
      </trkpt>
      <trkpt lat="45.28066" lon="4.58735">
        <ele>582.20001220703</ele>
        <time>2022-01-26T09:51:37Z</time>
      </trkpt>
      <trkpt lat="45.28083" lon="4.5875">
        <ele>578.79998779297</ele>
        <time>2022-01-26T09:51:41Z</time>
      </trkpt>
      <trkpt lat="45.28092" lon="4.58785">
        <ele>575.59997558594</ele>
        <time>2022-01-26T09:51:46Z</time>
      </trkpt>
      <trkpt lat="45.28099" lon="4.58823">
        <ele>573.79998779297</ele>
        <time>2022-01-26T09:51:52Z</time>
      </trkpt>
      <trkpt lat="45.28109" lon="4.58821">
        <ele>573</ele>
        <time>2022-01-26T09:51:54Z</time>
      </trkpt>
      <trkpt lat="45.28126" lon="4.58817">
        <ele>572.20001220703</ele>
        <time>2022-01-26T09:51:57Z</time>
      </trkpt>
      <trkpt lat="45.28135" lon="4.58814">
        <ele>571.40002441406</ele>
        <time>2022-01-26T09:51:59Z</time>
      </trkpt>
      <trkpt lat="45.2815" lon="4.58818">
        <ele>569.79998779297</ele>
        <time>2022-01-26T09:52:02Z</time>
      </trkpt>
      <trkpt lat="45.28166" lon="4.58839">
        <ele>568</ele>
        <time>2022-01-26T09:52:06Z</time>
      </trkpt>
      <trkpt lat="45.2817" lon="4.58846">
        <ele>567.20001220703</ele>
        <time>2022-01-26T09:52:07Z</time>
      </trkpt>
      <trkpt lat="45.28181" lon="4.58879">
        <ele>566</ele>
        <time>2022-01-26T09:52:11Z</time>
      </trkpt>
      <trkpt lat="45.282" lon="4.58961">
        <ele>563.79998779297</ele>
        <time>2022-01-26T09:52:20Z</time>
      </trkpt>
      <trkpt lat="45.28204" lon="4.58991">
        <ele>563</ele>
        <time>2022-01-26T09:52:23Z</time>
      </trkpt>
      <trkpt lat="45.28216" lon="4.59029">
        <ele>562.20001220703</ele>
        <time>2022-01-26T09:52:27Z</time>
      </trkpt>
      <trkpt lat="45.28217" lon="4.59088">
        <ele>559.20001220703</ele>
        <time>2022-01-26T09:52:32Z</time>
      </trkpt>
      <trkpt lat="45.28245" lon="4.59125">
        <ele>557</ele>
        <time>2022-01-26T09:52:37Z</time>
      </trkpt>
      <trkpt lat="45.28275" lon="4.59219">
        <ele>553.59997558594</ele>
        <time>2022-01-26T09:52:44Z</time>
      </trkpt>
      <trkpt lat="45.2828" lon="4.59229">
        <ele>552.40002441406</ele>
        <time>2022-01-26T09:52:45Z</time>
      </trkpt>
      <trkpt lat="45.28291" lon="4.59258">
        <ele>551</ele>
        <time>2022-01-26T09:52:47Z</time>
      </trkpt>
      <trkpt lat="45.28312" lon="4.59307">
        <ele>547.79998779297</ele>
        <time>2022-01-26T09:52:51Z</time>
      </trkpt>
      <trkpt lat="45.2832" lon="4.59327">
        <ele>546.20001220703</ele>
        <time>2022-01-26T09:52:53Z</time>
      </trkpt>
      <trkpt lat="45.28332" lon="4.59371">
        <ele>545.20001220703</ele>
        <time>2022-01-26T09:52:58Z</time>
      </trkpt>
      <trkpt lat="45.28341" lon="4.59392">
        <ele>545.20001220703</ele>
        <time>2022-01-26T09:53:01Z</time>
      </trkpt>
      <trkpt lat="45.28406" lon="4.59464">
        <ele>544.40002441406</ele>
        <time>2022-01-26T09:53:18Z</time>
      </trkpt>
      <trkpt lat="45.28441" lon="4.59543">
        <ele>544.40002441406</ele>
        <time>2022-01-26T09:53:31Z</time>
      </trkpt>
      <trkpt lat="45.28442" lon="4.5955">
        <ele>544.40002441406</ele>
        <time>2022-01-26T09:53:32Z</time>
      </trkpt>
      <trkpt lat="45.28465" lon="4.59594">
        <ele>543.79998779297</ele>
        <time>2022-01-26T09:53:39Z</time>
      </trkpt>
      <trkpt lat="45.28493" lon="4.59672">
        <ele>541.79998779297</ele>
        <time>2022-01-26T09:53:47Z</time>
      </trkpt>
      <trkpt lat="45.28517" lon="4.59697">
        <ele>539.20001220703</ele>
        <time>2022-01-26T09:53:51Z</time>
      </trkpt>
      <trkpt lat="45.28551" lon="4.59715">
        <ele>535</ele>
        <time>2022-01-26T09:53:55Z</time>
      </trkpt>
      <trkpt lat="45.28583" lon="4.59714">
        <ele>531.59997558594</ele>
        <time>2022-01-26T09:53:58Z</time>
      </trkpt>
      <trkpt lat="45.28594" lon="4.59713">
        <ele>530.79998779297</ele>
        <time>2022-01-26T09:53:59Z</time>
      </trkpt>
      <trkpt lat="45.28627" lon="4.59719">
        <ele>526.59997558594</ele>
        <time>2022-01-26T09:54:02Z</time>
      </trkpt>
      <trkpt lat="45.2866" lon="4.59722">
        <ele>522.79998779297</ele>
        <time>2022-01-26T09:54:05Z</time>
      </trkpt>
      <trkpt lat="45.28671" lon="4.59721">
        <ele>521.79998779297</ele>
        <time>2022-01-26T09:54:06Z</time>
      </trkpt>
      <trkpt lat="45.28694" lon="4.59715">
        <ele>518.79998779297</ele>
        <time>2022-01-26T09:54:08Z</time>
      </trkpt>
      <trkpt lat="45.28722" lon="4.59697">
        <ele>515.79998779297</ele>
        <time>2022-01-26T09:54:11Z</time>
      </trkpt>
      <trkpt lat="45.28731" lon="4.59689">
        <ele>514.20001220703</ele>
        <time>2022-01-26T09:54:12Z</time>
      </trkpt>
      <trkpt lat="45.28763" lon="4.59674">
        <ele>510.39999389648</ele>
        <time>2022-01-26T09:54:16Z</time>
      </trkpt>
      <trkpt lat="45.2878" lon="4.59677">
        <ele>507.79998779297</ele>
        <time>2022-01-26T09:54:18Z</time>
      </trkpt>
      <trkpt lat="45.28804" lon="4.59683">
        <ele>504.20001220703</ele>
        <time>2022-01-26T09:54:21Z</time>
      </trkpt>
      <trkpt lat="45.28811" lon="4.59686">
        <ele>503.79998779297</ele>
        <time>2022-01-26T09:54:22Z</time>
      </trkpt>
      <trkpt lat="45.28823" lon="4.59692">
        <ele>500.79998779297</ele>
        <time>2022-01-26T09:54:24Z</time>
      </trkpt>
      <trkpt lat="45.28833" lon="4.59701">
        <ele>497.20001220703</ele>
        <time>2022-01-26T09:54:27Z</time>
      </trkpt>
      <trkpt lat="45.28838" lon="4.59714">
        <ele>493</ele>
        <time>2022-01-26T09:54:30Z</time>
      </trkpt>
      <trkpt lat="45.28842" lon="4.59735">
        <ele>490.39999389648</ele>
        <time>2022-01-26T09:54:34Z</time>
      </trkpt>
      <trkpt lat="45.28836" lon="4.59776">
        <ele>487.39999389648</ele>
        <time>2022-01-26T09:54:39Z</time>
      </trkpt>
      <trkpt lat="45.2883" lon="4.59793">
        <ele>486</ele>
        <time>2022-01-26T09:54:41Z</time>
      </trkpt>
      <trkpt lat="45.28831" lon="4.59816">
        <ele>482.20001220703</ele>
        <time>2022-01-26T09:54:45Z</time>
      </trkpt>
      <trkpt lat="45.28828" lon="4.59819">
        <ele>480.79998779297</ele>
        <time>2022-01-26T09:54:48Z</time>
      </trkpt>
      <trkpt lat="45.28817" lon="4.59842">
        <ele>482</ele>
        <time>2022-01-26T09:54:59Z</time>
      </trkpt>
      <trkpt lat="45.28819" lon="4.59878">
        <ele>485</ele>
        <time>2022-01-26T09:55:13Z</time>
      </trkpt>
      <trkpt lat="45.28813" lon="4.59899">
        <ele>487.79998779297</ele>
        <time>2022-01-26T09:55:25Z</time>
      </trkpt>
      <trkpt lat="45.28812" lon="4.59906">
        <ele>488.39999389648</ele>
        <time>2022-01-26T09:55:28Z</time>
      </trkpt>
      <trkpt lat="45.28814" lon="4.59916">
        <ele>489.60000610352</ele>
        <time>2022-01-26T09:55:33Z</time>
      </trkpt>
      <trkpt lat="45.28829" lon="4.59958">
        <ele>492.20001220703</ele>
        <time>2022-01-26T09:55:49Z</time>
      </trkpt>
      <trkpt lat="45.28838" lon="4.59989">
        <ele>494</ele>
        <time>2022-01-26T09:56:01Z</time>
      </trkpt>
      <trkpt lat="45.2885" lon="4.60013">
        <ele>495.60000610352</ele>
        <time>2022-01-26T09:56:12Z</time>
      </trkpt>
      <trkpt lat="45.28866" lon="4.60035">
        <ele>497.20001220703</ele>
        <time>2022-01-26T09:56:23Z</time>
      </trkpt>
      <trkpt lat="45.28875" lon="4.60048">
        <ele>498.60000610352</ele>
        <time>2022-01-26T09:56:29Z</time>
      </trkpt>
      <trkpt lat="45.28883" lon="4.6007">
        <ele>500.39999389648</ele>
        <time>2022-01-26T09:56:38Z</time>
      </trkpt>
      <trkpt lat="45.28887" lon="4.60075">
        <ele>501</ele>
        <time>2022-01-26T09:56:41Z</time>
      </trkpt>
      <trkpt lat="45.28888" lon="4.60087">
        <ele>502</ele>
        <time>2022-01-26T09:56:45Z</time>
      </trkpt>
      <trkpt lat="45.28891" lon="4.60099">
        <ele>502.60000610352</ele>
        <time>2022-01-26T09:56:50Z</time>
      </trkpt>
      <trkpt lat="45.28901" lon="4.60121">
        <ele>504.20001220703</ele>
        <time>2022-01-26T09:57:01Z</time>
      </trkpt>
      <trkpt lat="45.28902" lon="4.60126">
        <ele>504.79998779297</ele>
        <time>2022-01-26T09:57:03Z</time>
      </trkpt>
      <trkpt lat="45.28899" lon="4.60138">
        <ele>505.79998779297</ele>
        <time>2022-01-26T09:57:09Z</time>
      </trkpt>
      <trkpt lat="45.2888" lon="4.60153">
        <ele>507.60000610352</ele>
        <time>2022-01-26T09:57:23Z</time>
      </trkpt>
      <trkpt lat="45.28863" lon="4.60156">
        <ele>509.39999389648</ele>
        <time>2022-01-26T09:57:35Z</time>
      </trkpt>
      <trkpt lat="45.28847" lon="4.60161">
        <ele>512</ele>
        <time>2022-01-26T09:57:46Z</time>
      </trkpt>
      <trkpt lat="45.28826" lon="4.6017">
        <ele>514.20001220703</ele>
        <time>2022-01-26T09:57:58Z</time>
      </trkpt>
      <trkpt lat="45.28806" lon="4.60185">
        <ele>515.59997558594</ele>
        <time>2022-01-26T09:58:07Z</time>
      </trkpt>
      <trkpt lat="45.28805" lon="4.60194">
        <ele>515.59997558594</ele>
        <time>2022-01-26T09:58:10Z</time>
      </trkpt>
      <trkpt lat="45.28816" lon="4.60199">
        <ele>515.59997558594</ele>
        <time>2022-01-26T09:58:15Z</time>
      </trkpt>
      <trkpt lat="45.28818" lon="4.602">
        <ele>515.79998779297</ele>
        <time>2022-01-26T09:58:16Z</time>
      </trkpt>
      <trkpt lat="45.28824" lon="4.60209">
        <ele>516.79998779297</ele>
        <time>2022-01-26T09:58:21Z</time>
      </trkpt>
      <trkpt lat="45.2884" lon="4.60229">
        <ele>519.79998779297</ele>
        <time>2022-01-26T09:58:34Z</time>
      </trkpt>
      <trkpt lat="45.28844" lon="4.60232">
        <ele>520.59997558594</ele>
        <time>2022-01-26T09:58:38Z</time>
      </trkpt>
      <trkpt lat="45.28859" lon="4.60248">
        <ele>523.40002441406</ele>
        <time>2022-01-26T09:58:51Z</time>
      </trkpt>
      <trkpt lat="45.28872" lon="4.60259">
        <ele>525.20001220703</ele>
        <time>2022-01-26T09:59:00Z</time>
      </trkpt>
      <trkpt lat="45.28889" lon="4.60265">
        <ele>527.40002441406</ele>
        <time>2022-01-26T09:59:10Z</time>
      </trkpt>
      <trkpt lat="45.2889" lon="4.60266">
        <ele>527.40002441406</ele>
        <time>2022-01-26T09:59:11Z</time>
      </trkpt>
      <trkpt lat="45.28897" lon="4.60268">
        <ele>528.20001220703</ele>
        <time>2022-01-26T09:59:16Z</time>
      </trkpt>
      <trkpt lat="45.28922" lon="4.60284">
        <ele>530.59997558594</ele>
        <time>2022-01-26T09:59:31Z</time>
      </trkpt>
      <trkpt lat="45.2894" lon="4.60306">
        <ele>533.20001220703</ele>
        <time>2022-01-26T09:59:44Z</time>
      </trkpt>
      <trkpt lat="45.28951" lon="4.60366">
        <ele>533.59997558594</ele>
        <time>2022-01-26T09:59:57Z</time>
      </trkpt>
      <trkpt lat="45.28955" lon="4.60383">
        <ele>533.59997558594</ele>
        <time>2022-01-26T10:00:00Z</time>
      </trkpt>
      <trkpt lat="45.28957" lon="4.60407">
        <ele>533.20001220703</ele>
        <time>2022-01-26T10:00:04Z</time>
      </trkpt>
      <trkpt lat="45.28946" lon="4.60483">
        <ele>532.59997558594</ele>
        <time>2022-01-26T10:00:15Z</time>
      </trkpt>
      <trkpt lat="45.28942" lon="4.60498">
        <ele>532.59997558594</ele>
        <time>2022-01-26T10:00:17Z</time>
      </trkpt>
      <trkpt lat="45.2892" lon="4.60519">
        <ele>531.59997558594</ele>
        <time>2022-01-26T10:00:22Z</time>
      </trkpt>
      <trkpt lat="45.28914" lon="4.60522">
        <ele>531.59997558594</ele>
        <time>2022-01-26T10:00:23Z</time>
      </trkpt>
      <trkpt lat="45.28852" lon="4.60541">
        <ele>528.59997558594</ele>
        <time>2022-01-26T10:00:31Z</time>
      </trkpt>
      <trkpt lat="45.28841" lon="4.60546">
        <ele>527</ele>
        <time>2022-01-26T10:00:33Z</time>
      </trkpt>
      <trkpt lat="45.28823" lon="4.60579">
        <ele>526</ele>
        <time>2022-01-26T10:00:39Z</time>
      </trkpt>
      <trkpt lat="45.28824" lon="4.6059">
        <ele>526</ele>
        <time>2022-01-26T10:00:41Z</time>
      </trkpt>
      <trkpt lat="45.28845" lon="4.60644">
        <ele>527</ele>
        <time>2022-01-26T10:00:50Z</time>
      </trkpt>
      <trkpt lat="45.2886" lon="4.60668">
        <ele>527.40002441406</ele>
        <time>2022-01-26T10:00:54Z</time>
      </trkpt>
      <trkpt lat="45.28908" lon="4.60752">
        <ele>525.20001220703</ele>
        <time>2022-01-26T10:01:07Z</time>
      </trkpt>
      <trkpt lat="45.28915" lon="4.60767">
        <ele>524.79998779297</ele>
        <time>2022-01-26T10:01:09Z</time>
      </trkpt>
      <trkpt lat="45.28927" lon="4.60789">
        <ele>523.79998779297</ele>
        <time>2022-01-26T10:01:12Z</time>
      </trkpt>
      <trkpt lat="45.28941" lon="4.6083">
        <ele>522</ele>
        <time>2022-01-26T10:01:16Z</time>
      </trkpt>
      <trkpt lat="45.28954" lon="4.60866">
        <ele>518.79998779297</ele>
        <time>2022-01-26T10:01:19Z</time>
      </trkpt>
      <trkpt lat="45.28959" lon="4.60878">
        <ele>518.40002441406</ele>
        <time>2022-01-26T10:01:20Z</time>
      </trkpt>
      <trkpt lat="45.28986" lon="4.60914">
        <ele>516.40002441406</ele>
        <time>2022-01-26T10:01:24Z</time>
      </trkpt>
      <trkpt lat="45.29" lon="4.60928">
        <ele>514.79998779297</ele>
        <time>2022-01-26T10:01:26Z</time>
      </trkpt>
      <trkpt lat="45.29022" lon="4.60968">
        <ele>512.59997558594</ele>
        <time>2022-01-26T10:01:30Z</time>
      </trkpt>
      <trkpt lat="45.29047" lon="4.61059">
        <ele>510</ele>
        <time>2022-01-26T10:01:38Z</time>
      </trkpt>
      <trkpt lat="45.29047" lon="4.61113">
        <ele>508.60000610352</ele>
        <time>2022-01-26T10:01:43Z</time>
      </trkpt>
      <trkpt lat="45.29039" lon="4.61189">
        <ele>507.60000610352</ele>
        <time>2022-01-26T10:01:51Z</time>
      </trkpt>
      <trkpt lat="45.2904" lon="4.61218">
        <ele>507</ele>
        <time>2022-01-26T10:01:54Z</time>
      </trkpt>
      <trkpt lat="45.29041" lon="4.61242">
        <ele>506.60000610352</ele>
        <time>2022-01-26T10:01:56Z</time>
      </trkpt>
      <trkpt lat="45.29037" lon="4.61289">
        <ele>505.79998779297</ele>
        <time>2022-01-26T10:02:00Z</time>
      </trkpt>
      <trkpt lat="45.29005" lon="4.61338">
        <ele>505.20001220703</ele>
        <time>2022-01-26T10:02:07Z</time>
      </trkpt>
      <trkpt lat="45.29001" lon="4.61374">
        <ele>505.60000610352</ele>
        <time>2022-01-26T10:02:11Z</time>
      </trkpt>
      <trkpt lat="45.29004" lon="4.61415">
        <ele>505.79998779297</ele>
        <time>2022-01-26T10:02:16Z</time>
      </trkpt>
      <trkpt lat="45.28985" lon="4.61477">
        <ele>505.60000610352</ele>
        <time>2022-01-26T10:02:25Z</time>
      </trkpt>
      <trkpt lat="45.28963" lon="4.61493">
        <ele>506.39999389648</ele>
        <time>2022-01-26T10:02:33Z</time>
      </trkpt>
      <trkpt lat="45.28955" lon="4.61506">
        <ele>507</ele>
        <time>2022-01-26T10:02:36Z</time>
      </trkpt>
      <trkpt lat="45.28941" lon="4.61544">
        <ele>508.39999389648</ele>
        <time>2022-01-26T10:02:44Z</time>
      </trkpt>
      <trkpt lat="45.2894" lon="4.61548">
        <ele>508.60000610352</ele>
        <time>2022-01-26T10:02:45Z</time>
      </trkpt>
      <trkpt lat="45.28937" lon="4.61559">
        <ele>508.79998779297</ele>
        <time>2022-01-26T10:02:47Z</time>
      </trkpt>
      <trkpt lat="45.28933" lon="4.61579">
        <ele>509.39999389648</ele>
        <time>2022-01-26T10:02:51Z</time>
      </trkpt>
      <trkpt lat="45.28939" lon="4.61593">
        <ele>509.60000610352</ele>
        <time>2022-01-26T10:02:55Z</time>
      </trkpt>
      <trkpt lat="45.28949" lon="4.61616">
        <ele>510.20001220703</ele>
        <time>2022-01-26T10:03:02Z</time>
      </trkpt>
      <trkpt lat="45.28961" lon="4.61656">
        <ele>511.20001220703</ele>
        <time>2022-01-26T10:03:10Z</time>
      </trkpt>
      <trkpt lat="45.28962" lon="4.6166">
        <ele>511.39999389648</ele>
        <time>2022-01-26T10:03:11Z</time>
      </trkpt>
      <trkpt lat="45.28965" lon="4.61691">
        <ele>512.79998779297</ele>
        <time>2022-01-26T10:03:21Z</time>
      </trkpt>
      <trkpt lat="45.28965" lon="4.61731">
        <ele>515.20001220703</ele>
        <time>2022-01-26T10:03:32Z</time>
      </trkpt>
      <trkpt lat="45.28974" lon="4.6177">
        <ele>517</ele>
        <time>2022-01-26T10:03:42Z</time>
      </trkpt>
      <trkpt lat="45.28979" lon="4.61786">
        <ele>517.79998779297</ele>
        <time>2022-01-26T10:03:47Z</time>
      </trkpt>
      <trkpt lat="45.28986" lon="4.61807">
        <ele>519</ele>
        <time>2022-01-26T10:03:53Z</time>
      </trkpt>
      <trkpt lat="45.28998" lon="4.61836">
        <ele>520.20001220703</ele>
        <time>2022-01-26T10:04:01Z</time>
      </trkpt>
      <trkpt lat="45.28998" lon="4.61841">
        <ele>520.20001220703</ele>
        <time>2022-01-26T10:04:02Z</time>
      </trkpt>
      <trkpt lat="45.28995" lon="4.61872">
        <ele>520.59997558594</ele>
        <time>2022-01-26T10:04:08Z</time>
      </trkpt>
      <trkpt lat="45.28986" lon="4.61902">
        <ele>520.59997558594</ele>
        <time>2022-01-26T10:04:14Z</time>
      </trkpt>
      <trkpt lat="45.28979" lon="4.6193">
        <ele>521</ele>
        <time>2022-01-26T10:04:20Z</time>
      </trkpt>
      <trkpt lat="45.28955" lon="4.61965">
        <ele>521.40002441406</ele>
        <time>2022-01-26T10:04:31Z</time>
      </trkpt>
      <trkpt lat="45.28943" lon="4.61966">
        <ele>521.40002441406</ele>
        <time>2022-01-26T10:04:34Z</time>
      </trkpt>
      <trkpt lat="45.28915" lon="4.61987">
        <ele>522</ele>
        <time>2022-01-26T10:04:42Z</time>
      </trkpt>
      <trkpt lat="45.2891" lon="4.62001">
        <ele>522</ele>
        <time>2022-01-26T10:04:45Z</time>
      </trkpt>
      <trkpt lat="45.28899" lon="4.62028">
        <ele>522.59997558594</ele>
        <time>2022-01-26T10:04:50Z</time>
      </trkpt>
      <trkpt lat="45.2889" lon="4.62052">
        <ele>523.40002441406</ele>
        <time>2022-01-26T10:04:55Z</time>
      </trkpt>
      <trkpt lat="45.28897" lon="4.62103">
        <ele>523.79998779297</ele>
        <time>2022-01-26T10:05:01Z</time>
      </trkpt>
      <trkpt lat="45.28901" lon="4.62111">
        <ele>523.59997558594</ele>
        <time>2022-01-26T10:05:02Z</time>
      </trkpt>
      <trkpt lat="45.28906" lon="4.6212">
        <ele>523.59997558594</ele>
        <time>2022-01-26T10:05:03Z</time>
      </trkpt>
      <trkpt lat="45.28917" lon="4.62162">
        <ele>521.59997558594</ele>
        <time>2022-01-26T10:05:07Z</time>
      </trkpt>
      <trkpt lat="45.28915" lon="4.62214">
        <ele>519.20001220703</ele>
        <time>2022-01-26T10:05:11Z</time>
      </trkpt>
      <trkpt lat="45.28909" lon="4.62256">
        <ele>517.59997558594</ele>
        <time>2022-01-26T10:05:14Z</time>
      </trkpt>
      <trkpt lat="45.28894" lon="4.623">
        <ele>514</ele>
        <time>2022-01-26T10:05:18Z</time>
      </trkpt>
      <trkpt lat="45.28878" lon="4.62342">
        <ele>510.20001220703</ele>
        <time>2022-01-26T10:05:22Z</time>
      </trkpt>
      <trkpt lat="45.28857" lon="4.62383">
        <ele>506.60000610352</ele>
        <time>2022-01-26T10:05:27Z</time>
      </trkpt>
      <trkpt lat="45.28854" lon="4.62389">
        <ele>506</ele>
        <time>2022-01-26T10:05:28Z</time>
      </trkpt>
      <trkpt lat="45.28856" lon="4.62413">
        <ele>502.20001220703</ele>
        <time>2022-01-26T10:05:32Z</time>
      </trkpt>
      <trkpt lat="45.28869" lon="4.62436">
        <ele>500.39999389648</ele>
        <time>2022-01-26T10:05:35Z</time>
      </trkpt>
      <trkpt lat="45.28888" lon="4.62492">
        <ele>496.79998779297</ele>
        <time>2022-01-26T10:05:40Z</time>
      </trkpt>
      <trkpt lat="45.28898" lon="4.62543">
        <ele>493.60000610352</ele>
        <time>2022-01-26T10:05:44Z</time>
      </trkpt>
      <trkpt lat="45.28914" lon="4.62609">
        <ele>491.79998779297</ele>
        <time>2022-01-26T10:05:50Z</time>
      </trkpt>
      <trkpt lat="45.28932" lon="4.62652">
        <ele>489.79998779297</ele>
        <time>2022-01-26T10:05:54Z</time>
      </trkpt>
      <trkpt lat="45.2894" lon="4.62668">
        <ele>488.20001220703</ele>
        <time>2022-01-26T10:05:56Z</time>
      </trkpt>
      <trkpt lat="45.28943" lon="4.62704">
        <ele>484.79998779297</ele>
        <time>2022-01-26T10:06:01Z</time>
      </trkpt>
      <trkpt lat="45.28942" lon="4.62711">
        <ele>483.20001220703</ele>
        <time>2022-01-26T10:06:02Z</time>
      </trkpt>
      <trkpt lat="45.28933" lon="4.62728">
        <ele>479.79998779297</ele>
        <time>2022-01-26T10:06:05Z</time>
      </trkpt>
      <trkpt lat="45.2891" lon="4.62743">
        <ele>476.39999389648</ele>
        <time>2022-01-26T10:06:09Z</time>
      </trkpt>
      <trkpt lat="45.28899" lon="4.62746">
        <ele>474.79998779297</ele>
        <time>2022-01-26T10:06:11Z</time>
      </trkpt>
      <trkpt lat="45.28887" lon="4.62749">
        <ele>472</ele>
        <time>2022-01-26T10:06:13Z</time>
      </trkpt>
      <trkpt lat="45.2887" lon="4.6276">
        <ele>469</ele>
        <time>2022-01-26T10:06:16Z</time>
      </trkpt>
      <trkpt lat="45.2886" lon="4.62768">
        <ele>467.20001220703</ele>
        <time>2022-01-26T10:06:18Z</time>
      </trkpt>
      <trkpt lat="45.28847" lon="4.6278">
        <ele>464.20001220703</ele>
        <time>2022-01-26T10:06:21Z</time>
      </trkpt>
      <trkpt lat="45.28833" lon="4.62793">
        <ele>462.60000610352</ele>
        <time>2022-01-26T10:06:23Z</time>
      </trkpt>
      <trkpt lat="45.2881" lon="4.62802">
        <ele>458.60000610352</ele>
        <time>2022-01-26T10:06:26Z</time>
      </trkpt>
      <trkpt lat="45.288" lon="4.62804">
        <ele>458</ele>
        <time>2022-01-26T10:06:27Z</time>
      </trkpt>
      <trkpt lat="45.28774" lon="4.62806">
        <ele>454.79998779297</ele>
        <time>2022-01-26T10:06:30Z</time>
      </trkpt>
      <trkpt lat="45.28748" lon="4.62812">
        <ele>451</ele>
        <time>2022-01-26T10:06:33Z</time>
      </trkpt>
      <trkpt lat="45.28717" lon="4.62815">
        <ele>448</ele>
        <time>2022-01-26T10:06:37Z</time>
      </trkpt>
      <trkpt lat="45.28689" lon="4.62835">
        <ele>444.79998779297</ele>
        <time>2022-01-26T10:06:41Z</time>
      </trkpt>
      <trkpt lat="45.28671" lon="4.62846">
        <ele>441.79998779297</ele>
        <time>2022-01-26T10:06:44Z</time>
      </trkpt>
      <trkpt lat="45.28653" lon="4.62835">
        <ele>439.60000610352</ele>
        <time>2022-01-26T10:06:48Z</time>
      </trkpt>
      <trkpt lat="45.28644" lon="4.62831">
        <ele>439.39999389648</ele>
        <time>2022-01-26T10:06:50Z</time>
      </trkpt>
      <trkpt lat="45.28605" lon="4.62794">
        <ele>440.79998779297</ele>
        <time>2022-01-26T10:07:03Z</time>
      </trkpt>
      <trkpt lat="45.286" lon="4.62788">
        <ele>441.20001220703</ele>
        <time>2022-01-26T10:07:05Z</time>
      </trkpt>
      <trkpt lat="45.28573" lon="4.62762">
        <ele>442.79998779297</ele>
        <time>2022-01-26T10:07:15Z</time>
      </trkpt>
      <trkpt lat="45.28551" lon="4.62738">
        <ele>443.39999389648</ele>
        <time>2022-01-26T10:07:23Z</time>
      </trkpt>
      <trkpt lat="45.28523" lon="4.62744">
        <ele>443.79998779297</ele>
        <time>2022-01-26T10:07:30Z</time>
      </trkpt>
      <trkpt lat="45.28515" lon="4.62793">
        <ele>441.79998779297</ele>
        <time>2022-01-26T10:07:36Z</time>
      </trkpt>
      <trkpt lat="45.28515" lon="4.62887">
        <ele>437.79998779297</ele>
        <time>2022-01-26T10:07:44Z</time>
      </trkpt>
      <trkpt lat="45.28511" lon="4.62982">
        <ele>434.20001220703</ele>
        <time>2022-01-26T10:07:52Z</time>
      </trkpt>
      <trkpt lat="45.28517" lon="4.63073">
        <ele>432.79998779297</ele>
        <time>2022-01-26T10:08:02Z</time>
      </trkpt>
      <trkpt lat="45.28522" lon="4.63101">
        <ele>432.60000610352</ele>
        <time>2022-01-26T10:08:07Z</time>
      </trkpt>
      <trkpt lat="45.28512" lon="4.63107">
        <ele>432.60000610352</ele>
        <time>2022-01-26T10:08:10Z</time>
      </trkpt>
      <trkpt lat="45.285" lon="4.63115">
        <ele>432.60000610352</ele>
        <time>2022-01-26T10:08:13Z</time>
      </trkpt>
      <trkpt lat="45.28479" lon="4.63121">
        <ele>432.20001220703</ele>
        <time>2022-01-26T10:08:17Z</time>
      </trkpt>
      <trkpt lat="45.28469" lon="4.63122">
        <ele>432.20001220703</ele>
        <time>2022-01-26T10:08:19Z</time>
      </trkpt>
      <trkpt lat="45.28426" lon="4.63149">
        <ele>431.60000610352</ele>
        <time>2022-01-26T10:08:28Z</time>
      </trkpt>
      <trkpt lat="45.28415" lon="4.63175">
        <ele>431.39999389648</ele>
        <time>2022-01-26T10:08:32Z</time>
      </trkpt>
      <trkpt lat="45.284" lon="4.63194">
        <ele>431</ele>
        <time>2022-01-26T10:08:36Z</time>
      </trkpt>
      <trkpt lat="45.28374" lon="4.63221">
        <ele>431</ele>
        <time>2022-01-26T10:08:42Z</time>
      </trkpt>
      <trkpt lat="45.28348" lon="4.6327">
        <ele>431</ele>
        <time>2022-01-26T10:08:49Z</time>
      </trkpt>
      <trkpt lat="45.28301" lon="4.63388">
        <ele>429.39999389648</ele>
        <time>2022-01-26T10:09:05Z</time>
      </trkpt>
      <trkpt lat="45.28259" lon="4.63461">
        <ele>429.60000610352</ele>
        <time>2022-01-26T10:09:18Z</time>
      </trkpt>
      <trkpt lat="45.28216" lon="4.63531">
        <ele>429.39999389648</ele>
        <time>2022-01-26T10:09:30Z</time>
      </trkpt>
      <trkpt lat="45.28182" lon="4.63575">
        <ele>429.20001220703</ele>
        <time>2022-01-26T10:09:39Z</time>
      </trkpt>
      <trkpt lat="45.28175" lon="4.63596">
        <ele>429.20001220703</ele>
        <time>2022-01-26T10:09:42Z</time>
      </trkpt>
      <trkpt lat="45.28142" lon="4.63661">
        <ele>429.20001220703</ele>
        <time>2022-01-26T10:09:53Z</time>
      </trkpt>
      <trkpt lat="45.28139" lon="4.63667">
        <ele>429.20001220703</ele>
        <time>2022-01-26T10:09:54Z</time>
      </trkpt>
      <trkpt lat="45.28112" lon="4.63706">
        <ele>429</ele>
        <time>2022-01-26T10:10:02Z</time>
      </trkpt>
      <trkpt lat="45.2809" lon="4.63751">
        <ele>428.39999389648</ele>
        <time>2022-01-26T10:10:09Z</time>
      </trkpt>
      <trkpt lat="45.28083" lon="4.63763">
        <ele>428.20001220703</ele>
        <time>2022-01-26T10:10:11Z</time>
      </trkpt>
      <trkpt lat="45.28071" lon="4.63808">
        <ele>427.79998779297</ele>
        <time>2022-01-26T10:10:17Z</time>
      </trkpt>
      <trkpt lat="45.2807" lon="4.63824">
        <ele>427.60000610352</ele>
        <time>2022-01-26T10:10:19Z</time>
      </trkpt>
      <trkpt lat="45.28051" lon="4.63878">
        <ele>426.79998779297</ele>
        <time>2022-01-26T10:10:26Z</time>
      </trkpt>
      <trkpt lat="45.27969" lon="4.64064">
        <ele>424</ele>
        <time>2022-01-26T10:10:50Z</time>
      </trkpt>
      <trkpt lat="45.27916" lon="4.64186">
        <ele>422.79998779297</ele>
        <time>2022-01-26T10:11:07Z</time>
      </trkpt>
      <trkpt lat="45.27865" lon="4.64303">
        <ele>421.79998779297</ele>
        <time>2022-01-26T10:11:23Z</time>
      </trkpt>
      <trkpt lat="45.27851" lon="4.64323">
        <ele>421.60000610352</ele>
        <time>2022-01-26T10:11:26Z</time>
      </trkpt>
      <trkpt lat="45.27803" lon="4.64435">
        <ele>419.60000610352</ele>
        <time>2022-01-26T10:11:39Z</time>
      </trkpt>
      <trkpt lat="45.27765" lon="4.64517">
        <ele>418</ele>
        <time>2022-01-26T10:11:48Z</time>
      </trkpt>
      <trkpt lat="45.27701" lon="4.64658">
        <ele>416.60000610352</ele>
        <time>2022-01-26T10:12:06Z</time>
      </trkpt>
      <trkpt lat="45.27673" lon="4.64719">
        <ele>416.39999389648</ele>
        <time>2022-01-26T10:12:21Z</time>
      </trkpt>
      <trkpt lat="45.2766" lon="4.64746">
        <ele>415.79998779297</ele>
        <time>2022-01-26T10:12:26Z</time>
      </trkpt>
      <trkpt lat="45.27649" lon="4.648">
        <ele>415.60000610352</ele>
        <time>2022-01-26T10:12:38Z</time>
      </trkpt>
      <trkpt lat="45.27634" lon="4.64841">
        <ele>416.79998779297</ele>
        <time>2022-01-26T10:12:50Z</time>
      </trkpt>
      <trkpt lat="45.27602" lon="4.649">
        <ele>417</ele>
        <time>2022-01-26T10:13:05Z</time>
      </trkpt>
      <trkpt lat="45.27589" lon="4.6493">
        <ele>417.60000610352</ele>
        <time>2022-01-26T10:13:18Z</time>
      </trkpt>
      <trkpt lat="45.27588" lon="4.64939">
        <ele>418.20001220703</ele>
        <time>2022-01-26T10:13:25Z</time>
      </trkpt>
      <trkpt lat="45.27592" lon="4.64948">
        <ele>419.39999389648</ele>
        <time>2022-01-26T10:13:33Z</time>
      </trkpt>
      <trkpt lat="45.27588" lon="4.64967">
        <ele>421.20001220703</ele>
        <time>2022-01-26T10:13:49Z</time>
      </trkpt>
      <trkpt lat="45.27584" lon="4.64978">
        <ele>423.60000610352</ele>
        <time>2022-01-26T10:14:04Z</time>
      </trkpt>
      <trkpt lat="45.27579" lon="4.64991">
        <ele>426</ele>
        <time>2022-01-26T10:14:19Z</time>
      </trkpt>
      <trkpt lat="45.27576" lon="4.65004">
        <ele>428</ele>
        <time>2022-01-26T10:14:34Z</time>
      </trkpt>
      <trkpt lat="45.27574" lon="4.65007">
        <ele>429</ele>
        <time>2022-01-26T10:14:41Z</time>
      </trkpt>
      <trkpt lat="45.27569" lon="4.65011">
        <ele>430.39999389648</ele>
        <time>2022-01-26T10:14:51Z</time>
      </trkpt>
      <trkpt lat="45.27564" lon="4.65016">
        <ele>432.20001220703</ele>
        <time>2022-01-26T10:15:02Z</time>
      </trkpt>
      <trkpt lat="45.27561" lon="4.6502">
        <ele>433.79998779297</ele>
        <time>2022-01-26T10:15:16Z</time>
      </trkpt>
      <trkpt lat="45.27556" lon="4.65021">
        <ele>435.20001220703</ele>
        <time>2022-01-26T10:15:36Z</time>
      </trkpt>
      <trkpt lat="45.2754" lon="4.6503">
        <ele>435.79998779297</ele>
        <time>2022-01-26T10:15:45Z</time>
      </trkpt>
      <trkpt lat="45.27529" lon="4.65051">
        <ele>437.60000610352</ele>
        <time>2022-01-26T10:15:56Z</time>
      </trkpt>
      <trkpt lat="45.27521" lon="4.65083">
        <ele>440.60000610352</ele>
        <time>2022-01-26T10:16:09Z</time>
      </trkpt>
      <trkpt lat="45.27516" lon="4.65124">
        <ele>443.39999389648</ele>
        <time>2022-01-26T10:16:25Z</time>
      </trkpt>
      <trkpt lat="45.27512" lon="4.65167">
        <ele>445.60000610352</ele>
        <time>2022-01-26T10:16:41Z</time>
      </trkpt>
      <trkpt lat="45.27505" lon="4.65207">
        <ele>448.60000610352</ele>
        <time>2022-01-26T10:16:56Z</time>
      </trkpt>
      <trkpt lat="45.27501" lon="4.65261">
        <ele>450.60000610352</ele>
        <time>2022-01-26T10:17:13Z</time>
      </trkpt>
      <trkpt lat="45.27488" lon="4.65319">
        <ele>452</ele>
        <time>2022-01-26T10:17:29Z</time>
      </trkpt>
      <trkpt lat="45.27472" lon="4.65376">
        <ele>453.79998779297</ele>
        <time>2022-01-26T10:17:45Z</time>
      </trkpt>
      <trkpt lat="45.27461" lon="4.65443">
        <ele>456</ele>
        <time>2022-01-26T10:18:02Z</time>
      </trkpt>
      <trkpt lat="45.27452" lon="4.65509">
        <ele>457.60000610352</ele>
        <time>2022-01-26T10:18:19Z</time>
      </trkpt>
      <trkpt lat="45.27448" lon="4.65565">
        <ele>459.20001220703</ele>
        <time>2022-01-26T10:18:33Z</time>
      </trkpt>
      <trkpt lat="45.27438" lon="4.65629">
        <ele>460.20001220703</ele>
        <time>2022-01-26T10:18:50Z</time>
      </trkpt>
      <trkpt lat="45.27419" lon="4.65674">
        <ele>462.79998779297</ele>
        <time>2022-01-26T10:19:06Z</time>
      </trkpt>
      <trkpt lat="45.27421" lon="4.65707">
        <ele>466</ele>
        <time>2022-01-26T10:19:16Z</time>
      </trkpt>
      <trkpt lat="45.27424" lon="4.65726">
        <ele>467.39999389648</ele>
        <time>2022-01-26T10:19:22Z</time>
      </trkpt>
      <trkpt lat="45.27423" lon="4.65761">
        <ele>469.79998779297</ele>
        <time>2022-01-26T10:19:33Z</time>
      </trkpt>
      <trkpt lat="45.27421" lon="4.65794">
        <ele>473</ele>
        <time>2022-01-26T10:19:45Z</time>
      </trkpt>
      <trkpt lat="45.27414" lon="4.65851">
        <ele>475</ele>
        <time>2022-01-26T10:20:00Z</time>
      </trkpt>
      <trkpt lat="45.27415" lon="4.6591">
        <ele>475</ele>
        <time>2022-01-26T10:20:12Z</time>
      </trkpt>
      <trkpt lat="45.27416" lon="4.6599">
        <ele>475.20001220703</ele>
        <time>2022-01-26T10:20:28Z</time>
      </trkpt>
      <trkpt lat="45.27413" lon="4.66027">
        <ele>476</ele>
        <time>2022-01-26T10:20:38Z</time>
      </trkpt>
      <trkpt lat="45.27443" lon="4.6602">
        <ele>477.79998779297</ele>
        <time>2022-01-26T10:20:50Z</time>
      </trkpt>
      <trkpt lat="45.27459" lon="4.66025">
        <ele>478.60000610352</ele>
        <time>2022-01-26T10:20:57Z</time>
      </trkpt>
      <trkpt lat="45.2748" lon="4.66053">
        <ele>481.60000610352</ele>
        <time>2022-01-26T10:21:10Z</time>
      </trkpt>
      <trkpt lat="45.27504" lon="4.66076">
        <ele>484.60000610352</ele>
        <time>2022-01-26T10:21:24Z</time>
      </trkpt>
      <trkpt lat="45.27519" lon="4.66086">
        <ele>487.60000610352</ele>
        <time>2022-01-26T10:21:34Z</time>
      </trkpt>
      <trkpt lat="45.27522" lon="4.66089">
        <ele>488</ele>
        <time>2022-01-26T10:21:36Z</time>
      </trkpt>
      <trkpt lat="45.27527" lon="4.66109">
        <ele>491</ele>
        <time>2022-01-26T10:21:47Z</time>
      </trkpt>
      <trkpt lat="45.27534" lon="4.66128">
        <ele>494.20001220703</ele>
        <time>2022-01-26T10:21:59Z</time>
      </trkpt>
      <trkpt lat="45.27538" lon="4.66135">
        <ele>495.20001220703</ele>
        <time>2022-01-26T10:22:04Z</time>
      </trkpt>
      <trkpt lat="45.27542" lon="4.66148">
        <ele>497.39999389648</ele>
        <time>2022-01-26T10:22:14Z</time>
      </trkpt>
      <trkpt lat="45.27543" lon="4.66154">
        <ele>498</ele>
        <time>2022-01-26T10:22:18Z</time>
      </trkpt>
      <trkpt lat="45.27544" lon="4.66157">
        <ele>498.60000610352</ele>
        <time>2022-01-26T10:22:20Z</time>
      </trkpt>
      <trkpt lat="45.27546" lon="4.66174">
        <ele>501.60000610352</ele>
        <time>2022-01-26T10:22:32Z</time>
      </trkpt>
      <trkpt lat="45.27546" lon="4.66186">
        <ele>503.39999389648</ele>
        <time>2022-01-26T10:22:41Z</time>
      </trkpt>
      <trkpt lat="45.27544" lon="4.66195">
        <ele>504.20001220703</ele>
        <time>2022-01-26T10:22:47Z</time>
      </trkpt>
      <trkpt lat="45.27543" lon="4.66221">
        <ele>507</ele>
        <time>2022-01-26T10:23:03Z</time>
      </trkpt>
      <trkpt lat="45.27551" lon="4.66251">
        <ele>509.60000610352</ele>
        <time>2022-01-26T10:23:20Z</time>
      </trkpt>
      <trkpt lat="45.27555" lon="4.66265">
        <ele>512.79998779297</ele>
        <time>2022-01-26T10:23:34Z</time>
      </trkpt>
      <trkpt lat="45.27556" lon="4.66265">
        <ele>513.59997558594</ele>
        <time>2022-01-26T10:24:06Z</time>
      </trkpt>
      <trkpt lat="45.27558" lon="4.66276">
        <ele>513.79998779297</ele>
        <time>2022-01-26T10:24:11Z</time>
      </trkpt>
      <trkpt lat="45.27564" lon="4.66301">
        <ele>516.79998779297</ele>
        <time>2022-01-26T10:24:25Z</time>
      </trkpt>
      <trkpt lat="45.27567" lon="4.66312">
        <ele>518.20001220703</ele>
        <time>2022-01-26T10:24:31Z</time>
      </trkpt>
      <trkpt lat="45.27567" lon="4.66321">
        <ele>519</ele>
        <time>2022-01-26T10:24:35Z</time>
      </trkpt>
      <trkpt lat="45.27569" lon="4.66338">
        <ele>522</ele>
        <time>2022-01-26T10:24:44Z</time>
      </trkpt>
      <trkpt lat="45.27568" lon="4.66368">
        <ele>525</ele>
        <time>2022-01-26T10:24:57Z</time>
      </trkpt>
      <trkpt lat="45.27558" lon="4.66423">
        <ele>526</ele>
        <time>2022-01-26T10:25:14Z</time>
      </trkpt>
      <trkpt lat="45.27551" lon="4.66471">
        <ele>526.59997558594</ele>
        <time>2022-01-26T10:25:28Z</time>
      </trkpt>
      <trkpt lat="45.27557" lon="4.66496">
        <ele>529.59997558594</ele>
        <time>2022-01-26T10:25:39Z</time>
      </trkpt>
      <trkpt lat="45.27564" lon="4.66518">
        <ele>531.59997558594</ele>
        <time>2022-01-26T10:25:49Z</time>
      </trkpt>
      <trkpt lat="45.27573" lon="4.66527">
        <ele>533.59997558594</ele>
        <time>2022-01-26T10:25:57Z</time>
      </trkpt>
      <trkpt lat="45.27577" lon="4.66535">
        <ele>535.20001220703</ele>
        <time>2022-01-26T10:26:03Z</time>
      </trkpt>
      <trkpt lat="45.27591" lon="4.66551">
        <ele>538.20001220703</ele>
        <time>2022-01-26T10:26:16Z</time>
      </trkpt>
      <trkpt lat="45.27613" lon="4.66578">
        <ele>540.59997558594</ele>
        <time>2022-01-26T10:26:33Z</time>
      </trkpt>
      <trkpt lat="45.27627" lon="4.66602">
        <ele>542.59997558594</ele>
        <time>2022-01-26T10:26:44Z</time>
      </trkpt>
      <trkpt lat="45.27628" lon="4.66603">
        <ele>542.79998779297</ele>
        <time>2022-01-26T10:26:45Z</time>
      </trkpt>
      <trkpt lat="45.27639" lon="4.66627">
        <ele>543.40002441406</ele>
        <time>2022-01-26T10:26:54Z</time>
      </trkpt>
      <trkpt lat="45.2764" lon="4.66628">
        <ele>543.40002441406</ele>
        <time>2022-01-26T10:26:55Z</time>
      </trkpt>
      <trkpt lat="45.2766" lon="4.66653">
        <ele>545.40002441406</ele>
        <time>2022-01-26T10:27:10Z</time>
      </trkpt>
      <trkpt lat="45.27664" lon="4.66663">
        <ele>546.20001220703</ele>
        <time>2022-01-26T10:27:15Z</time>
      </trkpt>
      <trkpt lat="45.2768" lon="4.66682">
        <ele>548</ele>
        <time>2022-01-26T10:27:25Z</time>
      </trkpt>
      <trkpt lat="45.27691" lon="4.66686">
        <ele>548.40002441406</ele>
        <time>2022-01-26T10:27:30Z</time>
      </trkpt>
      <trkpt lat="45.2771" lon="4.66702">
        <ele>551.40002441406</ele>
        <time>2022-01-26T10:27:41Z</time>
      </trkpt>
      <trkpt lat="45.27714" lon="4.66705">
        <ele>551.79998779297</ele>
        <time>2022-01-26T10:27:43Z</time>
      </trkpt>
      <trkpt lat="45.27723" lon="4.66709">
        <ele>553</ele>
        <time>2022-01-26T10:27:49Z</time>
      </trkpt>
      <trkpt lat="45.27734" lon="4.66711">
        <ele>554.59997558594</ele>
        <time>2022-01-26T10:27:56Z</time>
      </trkpt>
      <trkpt lat="45.27743" lon="4.66712">
        <ele>556</ele>
        <time>2022-01-26T10:28:02Z</time>
      </trkpt>
      <trkpt lat="45.27749" lon="4.66713">
        <ele>557</ele>
        <time>2022-01-26T10:28:06Z</time>
      </trkpt>
      <trkpt lat="45.27759" lon="4.66714">
        <ele>557.79998779297</ele>
        <time>2022-01-26T10:28:13Z</time>
      </trkpt>
      <trkpt lat="45.27769" lon="4.66722">
        <ele>559.59997558594</ele>
        <time>2022-01-26T10:28:26Z</time>
      </trkpt>
      <trkpt lat="45.27774" lon="4.66726">
        <ele>561.40002441406</ele>
        <time>2022-01-26T10:28:38Z</time>
      </trkpt>
      <trkpt lat="45.27776" lon="4.66725">
        <ele>561.59997558594</ele>
        <time>2022-01-26T10:28:40Z</time>
      </trkpt>
      <trkpt lat="45.27778" lon="4.66725">
        <ele>562</ele>
        <time>2022-01-26T10:28:51Z</time>
      </trkpt>
      <trkpt lat="45.27793" lon="4.66724">
        <ele>562.79998779297</ele>
        <time>2022-01-26T10:29:03Z</time>
      </trkpt>
      <trkpt lat="45.27817" lon="4.66728">
        <ele>564.59997558594</ele>
        <time>2022-01-26T10:29:15Z</time>
      </trkpt>
      <trkpt lat="45.2783" lon="4.66726">
        <ele>565.79998779297</ele>
        <time>2022-01-26T10:29:20Z</time>
      </trkpt>
      <trkpt lat="45.27832" lon="4.66728">
        <ele>566.20001220703</ele>
        <time>2022-01-26T10:29:22Z</time>
      </trkpt>
      <trkpt lat="45.27843" lon="4.66728">
        <ele>567.59997558594</ele>
        <time>2022-01-26T10:29:28Z</time>
      </trkpt>
      <trkpt lat="45.27845" lon="4.66728">
        <ele>567.79998779297</ele>
        <time>2022-01-26T10:29:30Z</time>
      </trkpt>
      <trkpt lat="45.27862" lon="4.66727">
        <ele>570</ele>
        <time>2022-01-26T10:29:42Z</time>
      </trkpt>
      <trkpt lat="45.27864" lon="4.66726">
        <ele>570.40002441406</ele>
        <time>2022-01-26T10:29:44Z</time>
      </trkpt>
      <trkpt lat="45.27872" lon="4.66724">
        <ele>571.59997558594</ele>
        <time>2022-01-26T10:29:50Z</time>
      </trkpt>
      <trkpt lat="45.27875" lon="4.66723">
        <ele>571.79998779297</ele>
        <time>2022-01-26T10:29:52Z</time>
      </trkpt>
      <trkpt lat="45.27888" lon="4.66722">
        <ele>574.20001220703</ele>
        <time>2022-01-26T10:30:03Z</time>
      </trkpt>
      <trkpt lat="45.2789" lon="4.66722">
        <ele>574.79998779297</ele>
        <time>2022-01-26T10:30:39Z</time>
      </trkpt>
      <trkpt lat="45.27916" lon="4.66717">
        <ele>576.20001220703</ele>
        <time>2022-01-26T10:31:41Z</time>
      </trkpt>
      <trkpt lat="45.27935" lon="4.66712">
        <ele>578.20001220703</ele>
        <time>2022-01-26T10:31:50Z</time>
      </trkpt>
      <trkpt lat="45.27949" lon="4.66712">
        <ele>580</ele>
        <time>2022-01-26T10:31:57Z</time>
      </trkpt>
      <trkpt lat="45.2796" lon="4.66711">
        <ele>581.40002441406</ele>
        <time>2022-01-26T10:32:03Z</time>
      </trkpt>
      <trkpt lat="45.27967" lon="4.66712">
        <ele>582.59997558594</ele>
        <time>2022-01-26T10:32:07Z</time>
      </trkpt>
      <trkpt lat="45.27987" lon="4.6671">
        <ele>585.40002441406</ele>
        <time>2022-01-26T10:32:20Z</time>
      </trkpt>
      <trkpt lat="45.28003" lon="4.66703">
        <ele>587.59997558594</ele>
        <time>2022-01-26T10:32:31Z</time>
      </trkpt>
      <trkpt lat="45.28021" lon="4.66709">
        <ele>590</ele>
        <time>2022-01-26T10:32:44Z</time>
      </trkpt>
      <trkpt lat="45.28046" lon="4.66712">
        <ele>591.20001220703</ele>
        <time>2022-01-26T10:32:54Z</time>
      </trkpt>
      <trkpt lat="45.28067" lon="4.66721">
        <ele>592.79998779297</ele>
        <time>2022-01-26T10:33:06Z</time>
      </trkpt>
      <trkpt lat="45.28088" lon="4.66724">
        <ele>593.59997558594</ele>
        <time>2022-01-26T10:33:15Z</time>
      </trkpt>
      <trkpt lat="45.28119" lon="4.66719">
        <ele>595.20001220703</ele>
        <time>2022-01-26T10:33:26Z</time>
      </trkpt>
      <trkpt lat="45.28124" lon="4.66717">
        <ele>595.20001220703</ele>
        <time>2022-01-26T10:33:28Z</time>
      </trkpt>
      <trkpt lat="45.28146" lon="4.6669">
        <ele>595.79998779297</ele>
        <time>2022-01-26T10:33:38Z</time>
      </trkpt>
      <trkpt lat="45.28149" lon="4.66679">
        <ele>596.20001220703</ele>
        <time>2022-01-26T10:33:42Z</time>
      </trkpt>
      <trkpt lat="45.28176" lon="4.66642">
        <ele>598</ele>
        <time>2022-01-26T10:33:53Z</time>
      </trkpt>
      <trkpt lat="45.28178" lon="4.6664">
        <ele>598.20001220703</ele>
        <time>2022-01-26T10:33:54Z</time>
      </trkpt>
      <trkpt lat="45.28194" lon="4.66632">
        <ele>599.40002441406</ele>
        <time>2022-01-26T10:34:01Z</time>
      </trkpt>
      <trkpt lat="45.28217" lon="4.66631">
        <ele>601</ele>
        <time>2022-01-26T10:34:11Z</time>
      </trkpt>
      <trkpt lat="45.28246" lon="4.66623">
        <ele>603</ele>
        <time>2022-01-26T10:34:21Z</time>
      </trkpt>
      <trkpt lat="45.28271" lon="4.6661">
        <ele>604.40002441406</ele>
        <time>2022-01-26T10:34:30Z</time>
      </trkpt>
      <trkpt lat="45.28273" lon="4.66609">
        <ele>604.59997558594</ele>
        <time>2022-01-26T10:34:31Z</time>
      </trkpt>
      <trkpt lat="45.28284" lon="4.66605">
        <ele>605.20001220703</ele>
        <time>2022-01-26T10:34:36Z</time>
      </trkpt>
      <trkpt lat="45.28311" lon="4.66604">
        <ele>606.20001220703</ele>
        <time>2022-01-26T10:34:46Z</time>
      </trkpt>
      <trkpt lat="45.28316" lon="4.66602">
        <ele>606.40002441406</ele>
        <time>2022-01-26T10:34:48Z</time>
      </trkpt>
      <trkpt lat="45.28333" lon="4.66594">
        <ele>608</ele>
        <time>2022-01-26T10:34:53Z</time>
      </trkpt>
      <trkpt lat="45.28341" lon="4.66589">
        <ele>608.79998779297</ele>
        <time>2022-01-26T10:34:56Z</time>
      </trkpt>
      <trkpt lat="45.28354" lon="4.66598">
        <ele>609.59997558594</ele>
        <time>2022-01-26T10:35:01Z</time>
      </trkpt>
      <trkpt lat="45.28383" lon="4.66619">
        <ele>610.79998779297</ele>
        <time>2022-01-26T10:35:13Z</time>
      </trkpt>
      <trkpt lat="45.28417" lon="4.66629">
        <ele>612.59997558594</ele>
        <time>2022-01-26T10:35:27Z</time>
      </trkpt>
      <trkpt lat="45.28429" lon="4.6664">
        <ele>614.59997558594</ele>
        <time>2022-01-26T10:35:35Z</time>
      </trkpt>
      <trkpt lat="45.28433" lon="4.6666">
        <ele>616.59997558594</ele>
        <time>2022-01-26T10:35:43Z</time>
      </trkpt>
      <trkpt lat="45.28433" lon="4.66662">
        <ele>617.20001220703</ele>
        <time>2022-01-26T10:35:44Z</time>
      </trkpt>
      <trkpt lat="45.28434" lon="4.66665">
        <ele>617.40002441406</ele>
        <time>2022-01-26T10:35:45Z</time>
      </trkpt>
      <trkpt lat="45.28436" lon="4.66684">
        <ele>618.40002441406</ele>
        <time>2022-01-26T10:35:52Z</time>
      </trkpt>
      <trkpt lat="45.28443" lon="4.66716">
        <ele>620.59997558594</ele>
        <time>2022-01-26T10:36:06Z</time>
      </trkpt>
      <trkpt lat="45.28451" lon="4.66745">
        <ele>622.20001220703</ele>
        <time>2022-01-26T10:36:18Z</time>
      </trkpt>
      <trkpt lat="45.28457" lon="4.66763">
        <ele>623.20001220703</ele>
        <time>2022-01-26T10:36:25Z</time>
      </trkpt>
      <trkpt lat="45.28459" lon="4.6678">
        <ele>624.20001220703</ele>
        <time>2022-01-26T10:36:31Z</time>
      </trkpt>
      <trkpt lat="45.2846" lon="4.66782">
        <ele>624.20001220703</ele>
        <time>2022-01-26T10:36:32Z</time>
      </trkpt>
      <trkpt lat="45.28472" lon="4.66812">
        <ele>626.20001220703</ele>
        <time>2022-01-26T10:36:45Z</time>
      </trkpt>
      <trkpt lat="45.28479" lon="4.6683">
        <ele>628.40002441406</ele>
        <time>2022-01-26T10:36:55Z</time>
      </trkpt>
      <trkpt lat="45.2849" lon="4.66849">
        <ele>631</ele>
        <time>2022-01-26T10:37:06Z</time>
      </trkpt>
      <trkpt lat="45.28503" lon="4.66872">
        <ele>633.40002441406</ele>
        <time>2022-01-26T10:37:20Z</time>
      </trkpt>
      <trkpt lat="45.28507" lon="4.66878">
        <ele>633.79998779297</ele>
        <time>2022-01-26T10:37:23Z</time>
      </trkpt>
      <trkpt lat="45.28514" lon="4.66892">
        <ele>635.20001220703</ele>
        <time>2022-01-26T10:37:30Z</time>
      </trkpt>
      <trkpt lat="45.28522" lon="4.66908">
        <ele>636.59997558594</ele>
        <time>2022-01-26T10:37:37Z</time>
      </trkpt>
      <trkpt lat="45.2853" lon="4.66933">
        <ele>638.20001220703</ele>
        <time>2022-01-26T10:37:46Z</time>
      </trkpt>
      <trkpt lat="45.2854" lon="4.6695">
        <ele>639.40002441406</ele>
        <time>2022-01-26T10:37:53Z</time>
      </trkpt>
      <trkpt lat="45.28543" lon="4.66958">
        <ele>639.59997558594</ele>
        <time>2022-01-26T10:37:56Z</time>
      </trkpt>
      <trkpt lat="45.28556" lon="4.66988">
        <ele>641.59997558594</ele>
        <time>2022-01-26T10:38:09Z</time>
      </trkpt>
      <trkpt lat="45.28567" lon="4.67018">
        <ele>643.59997558594</ele>
        <time>2022-01-26T10:38:21Z</time>
      </trkpt>
      <trkpt lat="45.28577" lon="4.67043">
        <ele>645.20001220703</ele>
        <time>2022-01-26T10:38:33Z</time>
      </trkpt>
      <trkpt lat="45.28593" lon="4.67066">
        <ele>647.59997558594</ele>
        <time>2022-01-26T10:38:47Z</time>
      </trkpt>
      <trkpt lat="45.28595" lon="4.6707">
        <ele>648.20001220703</ele>
        <time>2022-01-26T10:38:49Z</time>
      </trkpt>
      <trkpt lat="45.28598" lon="4.67096">
        <ele>650.40002441406</ele>
        <time>2022-01-26T10:38:59Z</time>
      </trkpt>
      <trkpt lat="45.28604" lon="4.67125">
        <ele>652.40002441406</ele>
        <time>2022-01-26T10:39:09Z</time>
      </trkpt>
      <trkpt lat="45.2862" lon="4.67144">
        <ele>654.20001220703</ele>
        <time>2022-01-26T10:39:19Z</time>
      </trkpt>
      <trkpt lat="45.28644" lon="4.67175">
        <ele>655.79998779297</ele>
        <time>2022-01-26T10:39:31Z</time>
      </trkpt>
      <trkpt lat="45.28664" lon="4.67213">
        <ele>655.79998779297</ele>
        <time>2022-01-26T10:39:43Z</time>
      </trkpt>
      <trkpt lat="45.28672" lon="4.67243">
        <ele>655.20001220703</ele>
        <time>2022-01-26T10:39:49Z</time>
      </trkpt>
      <trkpt lat="45.28698" lon="4.67343">
        <ele>652.79998779297</ele>
        <time>2022-01-26T10:39:59Z</time>
      </trkpt>
      <trkpt lat="45.28701" lon="4.67355">
        <ele>652.59997558594</ele>
        <time>2022-01-26T10:40:00Z</time>
      </trkpt>
      <trkpt lat="45.28707" lon="4.67381">
        <ele>651.40002441406</ele>
        <time>2022-01-26T10:40:02Z</time>
      </trkpt>
      <trkpt lat="45.28712" lon="4.67422">
        <ele>648.20001220703</ele>
        <time>2022-01-26T10:40:05Z</time>
      </trkpt>
      <trkpt lat="45.28714" lon="4.67436">
        <ele>646.79998779297</ele>
        <time>2022-01-26T10:40:06Z</time>
      </trkpt>
      <trkpt lat="45.28732" lon="4.67484">
        <ele>642.20001220703</ele>
        <time>2022-01-26T10:40:10Z</time>
      </trkpt>
      <trkpt lat="45.2875" lon="4.67521">
        <ele>638.79998779297</ele>
        <time>2022-01-26T10:40:13Z</time>
      </trkpt>
      <trkpt lat="45.28774" lon="4.67568">
        <ele>635.20001220703</ele>
        <time>2022-01-26T10:40:17Z</time>
      </trkpt>
      <trkpt lat="45.2881" lon="4.67604">
        <ele>632</ele>
        <time>2022-01-26T10:40:22Z</time>
      </trkpt>
      <trkpt lat="45.28812" lon="4.67614">
        <ele>631.79998779297</ele>
        <time>2022-01-26T10:40:23Z</time>
      </trkpt>
      <trkpt lat="45.28815" lon="4.67627">
        <ele>631.40002441406</ele>
        <time>2022-01-26T10:40:25Z</time>
      </trkpt>
      <trkpt lat="45.28817" lon="4.67637">
        <ele>631.59997558594</ele>
        <time>2022-01-26T10:40:27Z</time>
      </trkpt>
      <trkpt lat="45.28833" lon="4.67678">
        <ele>632.59997558594</ele>
        <time>2022-01-26T10:40:37Z</time>
      </trkpt>
      <trkpt lat="45.28857" lon="4.67729">
        <ele>631.79998779297</ele>
        <time>2022-01-26T10:40:46Z</time>
      </trkpt>
      <trkpt lat="45.28867" lon="4.67754">
        <ele>630.59997558594</ele>
        <time>2022-01-26T10:40:51Z</time>
      </trkpt>
      <trkpt lat="45.2887" lon="4.67763">
        <ele>629.40002441406</ele>
        <time>2022-01-26T10:40:55Z</time>
      </trkpt>
      <trkpt lat="45.28872" lon="4.67767">
        <ele>629.40002441406</ele>
        <time>2022-01-26T10:40:56Z</time>
      </trkpt>
      <trkpt lat="45.28887" lon="4.67807">
        <ele>628.40002441406</ele>
        <time>2022-01-26T10:41:03Z</time>
      </trkpt>
      <trkpt lat="45.2889" lon="4.67808">
        <ele>628.20001220703</ele>
        <time>2022-01-26T10:41:04Z</time>
      </trkpt>
      <trkpt lat="45.28912" lon="4.67816">
        <ele>627.79998779297</ele>
        <time>2022-01-26T10:41:13Z</time>
      </trkpt>
      <trkpt lat="45.28946" lon="4.6783">
        <ele>629.20001220703</ele>
        <time>2022-01-26T10:41:28Z</time>
      </trkpt>
      <trkpt lat="45.28986" lon="4.67845">
        <ele>630.59997558594</ele>
        <time>2022-01-26T10:41:43Z</time>
      </trkpt>
      <trkpt lat="45.29034" lon="4.67864">
        <ele>632</ele>
        <time>2022-01-26T10:42:00Z</time>
      </trkpt>
      <trkpt lat="45.29052" lon="4.67872">
        <ele>633</ele>
        <time>2022-01-26T10:42:06Z</time>
      </trkpt>
      <trkpt lat="45.29061" lon="4.67876">
        <ele>633.79998779297</ele>
        <time>2022-01-26T10:42:10Z</time>
      </trkpt>
      <trkpt lat="45.29062" lon="4.67879">
        <ele>634.20001220703</ele>
        <time>2022-01-26T10:42:12Z</time>
      </trkpt>
      <trkpt lat="45.29072" lon="4.67871">
        <ele>635</ele>
        <time>2022-01-26T10:42:17Z</time>
      </trkpt>
      <trkpt lat="45.29072" lon="4.67863">
        <ele>635.79998779297</ele>
        <time>2022-01-26T10:42:20Z</time>
      </trkpt>
      <trkpt lat="45.2907" lon="4.67841">
        <ele>636.59997558594</ele>
        <time>2022-01-26T10:42:27Z</time>
      </trkpt>
      <trkpt lat="45.29076" lon="4.67814">
        <ele>637.59997558594</ele>
        <time>2022-01-26T10:42:35Z</time>
      </trkpt>
      <trkpt lat="45.29093" lon="4.67809">
        <ele>639.40002441406</ele>
        <time>2022-01-26T10:42:43Z</time>
      </trkpt>
      <trkpt lat="45.29121" lon="4.67809">
        <ele>639.79998779297</ele>
        <time>2022-01-26T10:42:52Z</time>
      </trkpt>
      <trkpt lat="45.29152" lon="4.67788">
        <ele>639.20001220703</ele>
        <time>2022-01-26T10:42:59Z</time>
      </trkpt>
      <trkpt lat="45.29172" lon="4.67761">
        <ele>638.20001220703</ele>
        <time>2022-01-26T10:43:03Z</time>
      </trkpt>
      <trkpt lat="45.29191" lon="4.67691">
        <ele>635</ele>
        <time>2022-01-26T10:43:11Z</time>
      </trkpt>
      <trkpt lat="45.29191" lon="4.6768">
        <ele>634.59997558594</ele>
        <time>2022-01-26T10:43:12Z</time>
      </trkpt>
      <trkpt lat="45.29192" lon="4.67657">
        <ele>634</ele>
        <time>2022-01-26T10:43:14Z</time>
      </trkpt>
      <trkpt lat="45.292" lon="4.67603">
        <ele>631.40002441406</ele>
        <time>2022-01-26T10:43:19Z</time>
      </trkpt>
      <trkpt lat="45.29221" lon="4.67596">
        <ele>629.79998779297</ele>
        <time>2022-01-26T10:43:24Z</time>
      </trkpt>
      <trkpt lat="45.29225" lon="4.67596">
        <ele>629.79998779297</ele>
        <time>2022-01-26T10:43:25Z</time>
      </trkpt>
      <trkpt lat="45.29231" lon="4.67597">
        <ele>629.59997558594</ele>
        <time>2022-01-26T10:43:26Z</time>
      </trkpt>
      <trkpt lat="45.29261" lon="4.67607">
        <ele>629</ele>
        <time>2022-01-26T10:43:33Z</time>
      </trkpt>
      <trkpt lat="45.29305" lon="4.67643">
        <ele>627.40002441406</ele>
        <time>2022-01-26T10:43:42Z</time>
      </trkpt>
      <trkpt lat="45.29326" lon="4.6765">
        <ele>626.79998779297</ele>
        <time>2022-01-26T10:43:46Z</time>
      </trkpt>
      <trkpt lat="45.29368" lon="4.67657">
        <ele>625.20001220703</ele>
        <time>2022-01-26T10:43:54Z</time>
      </trkpt>
      <trkpt lat="45.29394" lon="4.67666">
        <ele>624.20001220703</ele>
        <time>2022-01-26T10:43:58Z</time>
      </trkpt>
      <trkpt lat="45.29401" lon="4.67666">
        <ele>624</ele>
        <time>2022-01-26T10:43:59Z</time>
      </trkpt>
      <trkpt lat="45.29427" lon="4.67658">
        <ele>623.20001220703</ele>
        <time>2022-01-26T10:44:03Z</time>
      </trkpt>
      <trkpt lat="45.29448" lon="4.67649">
        <ele>623</ele>
        <time>2022-01-26T10:44:07Z</time>
      </trkpt>
      <trkpt lat="45.29468" lon="4.67628">
        <ele>623</ele>
        <time>2022-01-26T10:44:13Z</time>
      </trkpt>
      <trkpt lat="45.29472" lon="4.67624">
        <ele>623</ele>
        <time>2022-01-26T10:44:14Z</time>
      </trkpt>
      <trkpt lat="45.29505" lon="4.67608">
        <ele>625.20001220703</ele>
        <time>2022-01-26T10:44:24Z</time>
      </trkpt>
      <trkpt lat="45.29522" lon="4.6761">
        <ele>627.59997558594</ele>
        <time>2022-01-26T10:44:32Z</time>
      </trkpt>
      <trkpt lat="45.29545" lon="4.67603">
        <ele>629.79998779297</ele>
        <time>2022-01-26T10:44:42Z</time>
      </trkpt>
      <trkpt lat="45.29564" lon="4.67586">
        <ele>631.40002441406</ele>
        <time>2022-01-26T10:44:50Z</time>
      </trkpt>
      <trkpt lat="45.29565" lon="4.67585">
        <ele>631.40002441406</ele>
        <time>2022-01-26T10:44:51Z</time>
      </trkpt>
      <trkpt lat="45.29588" lon="4.67596">
        <ele>632</ele>
        <time>2022-01-26T10:44:58Z</time>
      </trkpt>
      <trkpt lat="45.29597" lon="4.676">
        <ele>632.59997558594</ele>
        <time>2022-01-26T10:45:01Z</time>
      </trkpt>
      <trkpt lat="45.29612" lon="4.67617">
        <ele>633.40002441406</ele>
        <time>2022-01-26T10:45:08Z</time>
      </trkpt>
      <trkpt lat="45.2963" lon="4.67634">
        <ele>636</ele>
        <time>2022-01-26T10:45:19Z</time>
      </trkpt>
      <trkpt lat="45.29637" lon="4.6764">
        <ele>636.59997558594</ele>
        <time>2022-01-26T10:45:23Z</time>
      </trkpt>
      <trkpt lat="45.29665" lon="4.67669">
        <ele>639.20001220703</ele>
        <time>2022-01-26T10:45:40Z</time>
      </trkpt>
      <trkpt lat="45.29685" lon="4.67683">
        <ele>641.59997558594</ele>
        <time>2022-01-26T10:45:52Z</time>
      </trkpt>
      <trkpt lat="45.29703" lon="4.67692">
        <ele>643.59997558594</ele>
        <time>2022-01-26T10:46:03Z</time>
      </trkpt>
      <trkpt lat="45.29724" lon="4.67704">
        <ele>646.59997558594</ele>
        <time>2022-01-26T10:46:15Z</time>
      </trkpt>
      <trkpt lat="45.29744" lon="4.67711">
        <ele>649</ele>
        <time>2022-01-26T10:46:27Z</time>
      </trkpt>
      <trkpt lat="45.29762" lon="4.67714">
        <ele>652</ele>
        <time>2022-01-26T10:46:38Z</time>
      </trkpt>
      <trkpt lat="45.29777" lon="4.67717">
        <ele>654</ele>
        <time>2022-01-26T10:46:48Z</time>
      </trkpt>
      <trkpt lat="45.29795" lon="4.67724">
        <ele>655.59997558594</ele>
        <time>2022-01-26T10:46:57Z</time>
      </trkpt>
      <trkpt lat="45.29813" lon="4.6773">
        <ele>657.20001220703</ele>
        <time>2022-01-26T10:47:06Z</time>
      </trkpt>
      <trkpt lat="45.29823" lon="4.67735">
        <ele>657.79998779297</ele>
        <time>2022-01-26T10:47:12Z</time>
      </trkpt>
      <trkpt lat="45.29842" lon="4.6774">
        <ele>659.79998779297</ele>
        <time>2022-01-26T10:47:22Z</time>
      </trkpt>
      <trkpt lat="45.29864" lon="4.67746">
        <ele>661.79998779297</ele>
        <time>2022-01-26T10:47:34Z</time>
      </trkpt>
      <trkpt lat="45.29891" lon="4.67757">
        <ele>663.20001220703</ele>
        <time>2022-01-26T10:47:46Z</time>
      </trkpt>
      <trkpt lat="45.29905" lon="4.67764">
        <ele>663.59997558594</ele>
        <time>2022-01-26T10:47:50Z</time>
      </trkpt>
      <trkpt lat="45.29909" lon="4.67766">
        <ele>663.79998779297</ele>
        <time>2022-01-26T10:47:51Z</time>
      </trkpt>
      <trkpt lat="45.29926" lon="4.67777">
        <ele>664</ele>
        <time>2022-01-26T10:47:55Z</time>
      </trkpt>
      <trkpt lat="45.2994" lon="4.67785">
        <ele>664</ele>
        <time>2022-01-26T10:47:58Z</time>
      </trkpt>
      <trkpt lat="45.29957" lon="4.67796">
        <ele>663.40002441406</ele>
        <time>2022-01-26T10:48:02Z</time>
      </trkpt>
      <trkpt lat="45.29986" lon="4.67832">
        <ele>662.79998779297</ele>
        <time>2022-01-26T10:48:13Z</time>
      </trkpt>
      <trkpt lat="45.30017" lon="4.67884">
        <ele>664.79998779297</ele>
        <time>2022-01-26T10:48:30Z</time>
      </trkpt>
      <trkpt lat="45.30033" lon="4.67914">
        <ele>666.79998779297</ele>
        <time>2022-01-26T10:48:39Z</time>
      </trkpt>
      <trkpt lat="45.30042" lon="4.6795">
        <ele>667.79998779297</ele>
        <time>2022-01-26T10:48:47Z</time>
      </trkpt>
      <trkpt lat="45.30054" lon="4.67985">
        <ele>668.40002441406</ele>
        <time>2022-01-26T10:48:53Z</time>
      </trkpt>
      <trkpt lat="45.30061" lon="4.67996">
        <ele>668.59997558594</ele>
        <time>2022-01-26T10:48:56Z</time>
      </trkpt>
      <trkpt lat="45.30078" lon="4.68016">
        <ele>669.79998779297</ele>
        <time>2022-01-26T10:49:03Z</time>
      </trkpt>
      <trkpt lat="45.30082" lon="4.68019">
        <ele>670</ele>
        <time>2022-01-26T10:49:05Z</time>
      </trkpt>
      <trkpt lat="45.30115" lon="4.68029">
        <ele>671</ele>
        <time>2022-01-26T10:49:16Z</time>
      </trkpt>
      <trkpt lat="45.3017" lon="4.68052">
        <ele>669</ele>
        <time>2022-01-26T10:49:25Z</time>
      </trkpt>
      <trkpt lat="45.30223" lon="4.68071">
        <ele>665.40002441406</ele>
        <time>2022-01-26T10:49:32Z</time>
      </trkpt>
      <trkpt lat="45.30244" lon="4.68074">
        <ele>663.20001220703</ele>
        <time>2022-01-26T10:49:35Z</time>
      </trkpt>
      <trkpt lat="45.30271" lon="4.68079">
        <ele>660.40002441406</ele>
        <time>2022-01-26T10:49:39Z</time>
      </trkpt>
      <trkpt lat="45.30295" lon="4.68089">
        <ele>656.59997558594</ele>
        <time>2022-01-26T10:49:42Z</time>
      </trkpt>
      <trkpt lat="45.3032" lon="4.68096">
        <ele>653.40002441406</ele>
        <time>2022-01-26T10:49:45Z</time>
      </trkpt>
      <trkpt lat="45.30336" lon="4.68102">
        <ele>650.20001220703</ele>
        <time>2022-01-26T10:49:47Z</time>
      </trkpt>
      <trkpt lat="45.30375" lon="4.68116">
        <ele>645.40002441406</ele>
        <time>2022-01-26T10:49:51Z</time>
      </trkpt>
      <trkpt lat="45.304" lon="4.68124">
        <ele>641.40002441406</ele>
        <time>2022-01-26T10:49:54Z</time>
      </trkpt>
      <trkpt lat="45.30407" lon="4.68127">
        <ele>640.79998779297</ele>
        <time>2022-01-26T10:49:55Z</time>
      </trkpt>
      <trkpt lat="45.30432" lon="4.68131">
        <ele>637.79998779297</ele>
        <time>2022-01-26T10:49:58Z</time>
      </trkpt>
      <trkpt lat="45.30448" lon="4.6813">
        <ele>635.79998779297</ele>
        <time>2022-01-26T10:50:00Z</time>
      </trkpt>
      <trkpt lat="45.30483" lon="4.68106">
        <ele>632.79998779297</ele>
        <time>2022-01-26T10:50:05Z</time>
      </trkpt>
      <trkpt lat="45.30495" lon="4.681">
        <ele>632</ele>
        <time>2022-01-26T10:50:07Z</time>
      </trkpt>
      <trkpt lat="45.305" lon="4.681">
        <ele>631.79998779297</ele>
        <time>2022-01-26T10:50:08Z</time>
      </trkpt>
      <trkpt lat="45.3051" lon="4.68096">
        <ele>631.59997558594</ele>
        <time>2022-01-26T10:50:11Z</time>
      </trkpt>
      <trkpt lat="45.30515" lon="4.68077">
        <ele>631.59997558594</ele>
        <time>2022-01-26T10:50:15Z</time>
      </trkpt>
      <trkpt lat="45.30522" lon="4.68031">
        <ele>633.40002441406</ele>
        <time>2022-01-26T10:50:24Z</time>
      </trkpt>
      <trkpt lat="45.30558" lon="4.67957">
        <ele>633</ele>
        <time>2022-01-26T10:50:37Z</time>
      </trkpt>
      <trkpt lat="45.30591" lon="4.67898">
        <ele>631</ele>
        <time>2022-01-26T10:50:45Z</time>
      </trkpt>
      <trkpt lat="45.30596" lon="4.67891">
        <ele>631</ele>
        <time>2022-01-26T10:50:46Z</time>
      </trkpt>
      <trkpt lat="45.30603" lon="4.67883">
        <ele>628.79998779297</ele>
        <time>2022-01-26T10:50:48Z</time>
      </trkpt>
      <trkpt lat="45.30627" lon="4.67887">
        <ele>625.59997558594</ele>
        <time>2022-01-26T10:50:53Z</time>
      </trkpt>
      <trkpt lat="45.30676" lon="4.67919">
        <ele>622.40002441406</ele>
        <time>2022-01-26T10:51:02Z</time>
      </trkpt>
      <trkpt lat="45.30686" lon="4.67926">
        <ele>622</ele>
        <time>2022-01-26T10:51:04Z</time>
      </trkpt>
      <trkpt lat="45.30739" lon="4.67944">
        <ele>620.59997558594</ele>
        <time>2022-01-26T10:51:14Z</time>
      </trkpt>
      <trkpt lat="45.30808" lon="4.67965">
        <ele>618.59997558594</ele>
        <time>2022-01-26T10:51:26Z</time>
      </trkpt>
      <trkpt lat="45.30826" lon="4.68013">
        <ele>617.59997558594</ele>
        <time>2022-01-26T10:51:33Z</time>
      </trkpt>
      <trkpt lat="45.30826" lon="4.68054">
        <ele>617.20001220703</ele>
        <time>2022-01-26T10:51:38Z</time>
      </trkpt>
      <trkpt lat="45.30843" lon="4.68141">
        <ele>619.20001220703</ele>
        <time>2022-01-26T10:51:53Z</time>
      </trkpt>
      <trkpt lat="45.30838" lon="4.68185">
        <ele>621</ele>
        <time>2022-01-26T10:52:03Z</time>
      </trkpt>
      <trkpt lat="45.30835" lon="4.68215">
        <ele>622.40002441406</ele>
        <time>2022-01-26T10:52:10Z</time>
      </trkpt>
      <trkpt lat="45.30841" lon="4.68232">
        <ele>623.20001220703</ele>
        <time>2022-01-26T10:52:14Z</time>
      </trkpt>
      <trkpt lat="45.30848" lon="4.68244">
        <ele>623.40002441406</ele>
        <time>2022-01-26T10:52:17Z</time>
      </trkpt>
      <trkpt lat="45.30863" lon="4.68265">
        <ele>624</ele>
        <time>2022-01-26T10:52:22Z</time>
      </trkpt>
      <trkpt lat="45.30871" lon="4.68287">
        <ele>624.40002441406</ele>
        <time>2022-01-26T10:52:26Z</time>
      </trkpt>
      <trkpt lat="45.3088" lon="4.68335">
        <ele>624.79998779297</ele>
        <time>2022-01-26T10:52:34Z</time>
      </trkpt>
      <trkpt lat="45.30877" lon="4.68348">
        <ele>624.79998779297</ele>
        <time>2022-01-26T10:52:36Z</time>
      </trkpt>
      <trkpt lat="45.30874" lon="4.68362">
        <ele>624.79998779297</ele>
        <time>2022-01-26T10:52:38Z</time>
      </trkpt>
      <trkpt lat="45.30872" lon="4.68397">
        <ele>624.79998779297</ele>
        <time>2022-01-26T10:52:43Z</time>
      </trkpt>
      <trkpt lat="45.30858" lon="4.68445">
        <ele>623.79998779297</ele>
        <time>2022-01-26T10:52:49Z</time>
      </trkpt>
      <trkpt lat="45.30829" lon="4.68525">
        <ele>621.59997558594</ele>
        <time>2022-01-26T10:53:00Z</time>
      </trkpt>
      <trkpt lat="45.30819" lon="4.68571">
        <ele>620.59997558594</ele>
        <time>2022-01-26T10:53:06Z</time>
      </trkpt>
      <trkpt lat="45.30807" lon="4.68617">
        <ele>619.40002441406</ele>
        <time>2022-01-26T10:53:14Z</time>
      </trkpt>
      <trkpt lat="45.30811" lon="4.68654">
        <ele>619.40002441406</ele>
        <time>2022-01-26T10:53:20Z</time>
      </trkpt>
      <trkpt lat="45.30812" lon="4.68702">
        <ele>621</ele>
        <time>2022-01-26T10:53:31Z</time>
      </trkpt>
      <trkpt lat="45.30793" lon="4.68724">
        <ele>624</ele>
        <time>2022-01-26T10:53:42Z</time>
      </trkpt>
      <trkpt lat="45.30778" lon="4.68744">
        <ele>626.59997558594</ele>
        <time>2022-01-26T10:53:51Z</time>
      </trkpt>
      <trkpt lat="45.30764" lon="4.68768">
        <ele>628.20001220703</ele>
        <time>2022-01-26T10:53:59Z</time>
      </trkpt>
      <trkpt lat="45.30757" lon="4.68791">
        <ele>629.40002441406</ele>
        <time>2022-01-26T10:54:07Z</time>
      </trkpt>
      <trkpt lat="45.30759" lon="4.68821">
        <ele>631.40002441406</ele>
        <time>2022-01-26T10:54:18Z</time>
      </trkpt>
      <trkpt lat="45.30762" lon="4.68851">
        <ele>633</ele>
        <time>2022-01-26T10:54:27Z</time>
      </trkpt>
      <trkpt lat="45.3077" lon="4.68889">
        <ele>634.59997558594</ele>
        <time>2022-01-26T10:54:37Z</time>
      </trkpt>
      <trkpt lat="45.30774" lon="4.68934">
        <ele>635</ele>
        <time>2022-01-26T10:54:45Z</time>
      </trkpt>
      <trkpt lat="45.30772" lon="4.6896">
        <ele>634.79998779297</ele>
        <time>2022-01-26T10:54:48Z</time>
      </trkpt>
      <trkpt lat="45.30749" lon="4.69033">
        <ele>632</ele>
        <time>2022-01-26T10:54:55Z</time>
      </trkpt>
      <trkpt lat="45.30739" lon="4.69087">
        <ele>628.79998779297</ele>
        <time>2022-01-26T10:54:59Z</time>
      </trkpt>
      <trkpt lat="45.30733" lon="4.69125">
        <ele>625.59997558594</ele>
        <time>2022-01-26T10:55:02Z</time>
      </trkpt>
      <trkpt lat="45.30732" lon="4.69136">
        <ele>625.20001220703</ele>
        <time>2022-01-26T10:55:03Z</time>
      </trkpt>
      <trkpt lat="45.3073" lon="4.69167">
        <ele>624.59997558594</ele>
        <time>2022-01-26T10:55:06Z</time>
      </trkpt>
      <trkpt lat="45.30727" lon="4.69215">
        <ele>624.40002441406</ele>
        <time>2022-01-26T10:55:12Z</time>
      </trkpt>
      <trkpt lat="45.30736" lon="4.69257">
        <ele>624</ele>
        <time>2022-01-26T10:55:17Z</time>
      </trkpt>
      <trkpt lat="45.30747" lon="4.69274">
        <ele>624</ele>
        <time>2022-01-26T10:55:20Z</time>
      </trkpt>
      <trkpt lat="45.30756" lon="4.69283">
        <ele>624.40002441406</ele>
        <time>2022-01-26T10:55:22Z</time>
      </trkpt>
      <trkpt lat="45.30768" lon="4.69302">
        <ele>624.20001220703</ele>
        <time>2022-01-26T10:55:26Z</time>
      </trkpt>
      <trkpt lat="45.30771" lon="4.69307">
        <ele>624.20001220703</ele>
        <time>2022-01-26T10:55:27Z</time>
      </trkpt>
      <trkpt lat="45.30779" lon="4.69317">
        <ele>624.40002441406</ele>
        <time>2022-01-26T10:55:29Z</time>
      </trkpt>
      <trkpt lat="45.30806" lon="4.69342">
        <ele>623.79998779297</ele>
        <time>2022-01-26T10:55:34Z</time>
      </trkpt>
      <trkpt lat="45.30816" lon="4.69354">
        <ele>623.59997558594</ele>
        <time>2022-01-26T10:55:36Z</time>
      </trkpt>
      <trkpt lat="45.30837" lon="4.69371">
        <ele>622.59997558594</ele>
        <time>2022-01-26T10:55:39Z</time>
      </trkpt>
      <trkpt lat="45.30864" lon="4.69404">
        <ele>620.79998779297</ele>
        <time>2022-01-26T10:55:43Z</time>
      </trkpt>
      <trkpt lat="45.30879" lon="4.69456">
        <ele>617.79998779297</ele>
        <time>2022-01-26T10:55:48Z</time>
      </trkpt>
      <trkpt lat="45.30882" lon="4.69506">
        <ele>615</ele>
        <time>2022-01-26T10:55:52Z</time>
      </trkpt>
      <trkpt lat="45.30883" lon="4.69519">
        <ele>614.59997558594</ele>
        <time>2022-01-26T10:55:53Z</time>
      </trkpt>
      <trkpt lat="45.30865" lon="4.69567">
        <ele>611.79998779297</ele>
        <time>2022-01-26T10:55:58Z</time>
      </trkpt>
      <trkpt lat="45.30856" lon="4.69573">
        <ele>611.59997558594</ele>
        <time>2022-01-26T10:55:59Z</time>
      </trkpt>
      <trkpt lat="45.30847" lon="4.69582">
        <ele>611.40002441406</ele>
        <time>2022-01-26T10:56:00Z</time>
      </trkpt>
      <trkpt lat="45.3084" lon="4.6959">
        <ele>611</ele>
        <time>2022-01-26T10:56:01Z</time>
      </trkpt>
      <trkpt lat="45.3088" lon="4.69617">
        <ele>610.40002441406</ele>
        <time>2022-01-26T10:56:04Z</time>
      </trkpt>
      <trkpt lat="45.30892" lon="4.69628">
        <ele>610.20001220703</ele>
        <time>2022-01-26T10:56:05Z</time>
      </trkpt>
      <trkpt lat="45.30908" lon="4.69644">
        <ele>610</ele>
        <time>2022-01-26T10:56:07Z</time>
      </trkpt>
      <trkpt lat="45.30924" lon="4.69691">
        <ele>609</ele>
        <time>2022-01-26T10:56:11Z</time>
      </trkpt>
      <trkpt lat="45.3094" lon="4.69733">
        <ele>607.40002441406</ele>
        <time>2022-01-26T10:56:15Z</time>
      </trkpt>
      <trkpt lat="45.30945" lon="4.69743">
        <ele>606.79998779297</ele>
        <time>2022-01-26T10:56:16Z</time>
      </trkpt>
      <trkpt lat="45.30949" lon="4.69754">
        <ele>605.59997558594</ele>
        <time>2022-01-26T10:56:17Z</time>
      </trkpt>
      <trkpt lat="45.30969" lon="4.69816">
        <ele>604</ele>
        <time>2022-01-26T10:56:22Z</time>
      </trkpt>
      <trkpt lat="45.30998" lon="4.69866">
        <ele>601.59997558594</ele>
        <time>2022-01-26T10:56:27Z</time>
      </trkpt>
      <trkpt lat="45.31003" lon="4.69876">
        <ele>601.40002441406</ele>
        <time>2022-01-26T10:56:28Z</time>
      </trkpt>
      <trkpt lat="45.31015" lon="4.69901">
        <ele>600</ele>
        <time>2022-01-26T10:56:31Z</time>
      </trkpt>
      <trkpt lat="45.31024" lon="4.69947">
        <ele>597.59997558594</ele>
        <time>2022-01-26T10:56:36Z</time>
      </trkpt>
      <trkpt lat="45.31027" lon="4.69962">
        <ele>597.20001220703</ele>
        <time>2022-01-26T10:56:38Z</time>
      </trkpt>
      <trkpt lat="45.31031" lon="4.69984">
        <ele>596.59997558594</ele>
        <time>2022-01-26T10:56:42Z</time>
      </trkpt>
      <trkpt lat="45.31041" lon="4.7">
        <ele>596.59997558594</ele>
        <time>2022-01-26T10:56:44Z</time>
      </trkpt>
      <trkpt lat="45.31047" lon="4.70012">
        <ele>596.59997558594</ele>
        <time>2022-01-26T10:56:46Z</time>
      </trkpt>
      <trkpt lat="45.31061" lon="4.70034">
        <ele>596.79998779297</ele>
        <time>2022-01-26T10:56:49Z</time>
      </trkpt>
      <trkpt lat="45.31064" lon="4.70056">
        <ele>596.79998779297</ele>
        <time>2022-01-26T10:56:52Z</time>
      </trkpt>
      <trkpt lat="45.31069" lon="4.70091">
        <ele>596.40002441406</ele>
        <time>2022-01-26T10:56:56Z</time>
      </trkpt>
      <trkpt lat="45.31076" lon="4.70113">
        <ele>596</ele>
        <time>2022-01-26T10:56:59Z</time>
      </trkpt>
      <trkpt lat="45.31091" lon="4.70148">
        <ele>595</ele>
        <time>2022-01-26T10:57:05Z</time>
      </trkpt>
      <trkpt lat="45.31096" lon="4.70181">
        <ele>594.40002441406</ele>
        <time>2022-01-26T10:57:12Z</time>
      </trkpt>
      <trkpt lat="45.31096" lon="4.70186">
        <ele>594.40002441406</ele>
        <time>2022-01-26T10:57:13Z</time>
      </trkpt>
      <trkpt lat="45.31096" lon="4.7019">
        <ele>594.59997558594</ele>
        <time>2022-01-26T10:57:14Z</time>
      </trkpt>
      <trkpt lat="45.31112" lon="4.70256">
        <ele>595.20001220703</ele>
        <time>2022-01-26T10:57:24Z</time>
      </trkpt>
      <trkpt lat="45.31117" lon="4.70264">
        <ele>595.20001220703</ele>
        <time>2022-01-26T10:57:25Z</time>
      </trkpt>
      <trkpt lat="45.3115" lon="4.70338">
        <ele>591.59997558594</ele>
        <time>2022-01-26T10:57:33Z</time>
      </trkpt>
      <trkpt lat="45.31167" lon="4.7038">
        <ele>589.40002441406</ele>
        <time>2022-01-26T10:57:37Z</time>
      </trkpt>
      <trkpt lat="45.31187" lon="4.70415">
        <ele>588</ele>
        <time>2022-01-26T10:57:41Z</time>
      </trkpt>
      <trkpt lat="45.31202" lon="4.70442">
        <ele>587</ele>
        <time>2022-01-26T10:57:44Z</time>
      </trkpt>
      <trkpt lat="45.31213" lon="4.70472">
        <ele>585.59997558594</ele>
        <time>2022-01-26T10:57:47Z</time>
      </trkpt>
      <trkpt lat="45.31221" lon="4.70494">
        <ele>585.20001220703</ele>
        <time>2022-01-26T10:57:49Z</time>
      </trkpt>
      <trkpt lat="45.31229" lon="4.70541">
        <ele>583.40002441406</ele>
        <time>2022-01-26T10:57:53Z</time>
      </trkpt>
      <trkpt lat="45.3123" lon="4.70616">
        <ele>580.40002441406</ele>
        <time>2022-01-26T10:57:59Z</time>
      </trkpt>
      <trkpt lat="45.31233" lon="4.70641">
        <ele>578.59997558594</ele>
        <time>2022-01-26T10:58:01Z</time>
      </trkpt>
      <trkpt lat="45.31235" lon="4.70652">
        <ele>578.40002441406</ele>
        <time>2022-01-26T10:58:02Z</time>
      </trkpt>
      <trkpt lat="45.31251" lon="4.70689">
        <ele>576.59997558594</ele>
        <time>2022-01-26T10:58:06Z</time>
      </trkpt>
      <trkpt lat="45.31255" lon="4.70718">
        <ele>572.79998779297</ele>
        <time>2022-01-26T10:58:10Z</time>
      </trkpt>
      <trkpt lat="45.31253" lon="4.70722">
        <ele>572.20001220703</ele>
        <time>2022-01-26T10:58:11Z</time>
      </trkpt>
      <trkpt lat="45.31249" lon="4.7073">
        <ele>569</ele>
        <time>2022-01-26T10:58:13Z</time>
      </trkpt>
      <trkpt lat="45.31235" lon="4.70755">
        <ele>565.59997558594</ele>
        <time>2022-01-26T10:58:19Z</time>
      </trkpt>
      <trkpt lat="45.31233" lon="4.7076">
        <ele>564.79998779297</ele>
        <time>2022-01-26T10:58:20Z</time>
      </trkpt>
      <trkpt lat="45.31229" lon="4.70765">
        <ele>564.59997558594</ele>
        <time>2022-01-26T10:58:21Z</time>
      </trkpt>
      <trkpt lat="45.31214" lon="4.70778">
        <ele>563</ele>
        <time>2022-01-26T10:58:24Z</time>
      </trkpt>
      <trkpt lat="45.31187" lon="4.70797">
        <ele>561.40002441406</ele>
        <time>2022-01-26T10:58:28Z</time>
      </trkpt>
      <trkpt lat="45.31163" lon="4.70801">
        <ele>558.20001220703</ele>
        <time>2022-01-26T10:58:32Z</time>
      </trkpt>
      <trkpt lat="45.31145" lon="4.70786">
        <ele>555.40002441406</ele>
        <time>2022-01-26T10:58:35Z</time>
      </trkpt>
      <trkpt lat="45.31141" lon="4.7078">
        <ele>554.40002441406</ele>
        <time>2022-01-26T10:58:36Z</time>
      </trkpt>
      <trkpt lat="45.31133" lon="4.70758">
        <ele>552.40002441406</ele>
        <time>2022-01-26T10:58:39Z</time>
      </trkpt>
      <trkpt lat="45.31116" lon="4.70683">
        <ele>551.20001220703</ele>
        <time>2022-01-26T10:58:48Z</time>
      </trkpt>
      <trkpt lat="45.31087" lon="4.70676">
        <ele>550.79998779297</ele>
        <time>2022-01-26T10:58:52Z</time>
      </trkpt>
      <trkpt lat="45.3108" lon="4.70677">
        <ele>550.59997558594</ele>
        <time>2022-01-26T10:58:53Z</time>
      </trkpt>
      <trkpt lat="45.31028" lon="4.70642">
        <ele>546.79998779297</ele>
        <time>2022-01-26T10:59:00Z</time>
      </trkpt>
      <trkpt lat="45.31021" lon="4.70638">
        <ele>546.40002441406</ele>
        <time>2022-01-26T10:59:01Z</time>
      </trkpt>
      <trkpt lat="45.30978" lon="4.70627">
        <ele>543.40002441406</ele>
        <time>2022-01-26T10:59:06Z</time>
      </trkpt>
      <trkpt lat="45.30953" lon="4.70599">
        <ele>540.59997558594</ele>
        <time>2022-01-26T10:59:10Z</time>
      </trkpt>
      <trkpt lat="45.30947" lon="4.70588">
        <ele>539.79998779297</ele>
        <time>2022-01-26T10:59:11Z</time>
      </trkpt>
      <trkpt lat="45.30915" lon="4.70577">
        <ele>537.40002441406</ele>
        <time>2022-01-26T10:59:17Z</time>
      </trkpt>
      <trkpt lat="45.30886" lon="4.70619">
        <ele>535.20001220703</ele>
        <time>2022-01-26T10:59:22Z</time>
      </trkpt>
      <trkpt lat="45.30883" lon="4.70658">
        <ele>532.59997558594</ele>
        <time>2022-01-26T10:59:26Z</time>
      </trkpt>
      <trkpt lat="45.30882" lon="4.70669">
        <ele>531.79998779297</ele>
        <time>2022-01-26T10:59:27Z</time>
      </trkpt>
      <trkpt lat="45.30881" lon="4.70677">
        <ele>531.40002441406</ele>
        <time>2022-01-26T10:59:28Z</time>
      </trkpt>
      <trkpt lat="45.30878" lon="4.70694">
        <ele>531.20001220703</ele>
        <time>2022-01-26T10:59:30Z</time>
      </trkpt>
      <trkpt lat="45.30857" lon="4.70716">
        <ele>530.59997558594</ele>
        <time>2022-01-26T10:59:34Z</time>
      </trkpt>
      <trkpt lat="45.3085" lon="4.7072">
        <ele>530.20001220703</ele>
        <time>2022-01-26T10:59:35Z</time>
      </trkpt>
      <trkpt lat="45.30822" lon="4.70774">
        <ele>528.40002441406</ele>
        <time>2022-01-26T10:59:42Z</time>
      </trkpt>
      <trkpt lat="45.30819" lon="4.70785">
        <ele>528.20001220703</ele>
        <time>2022-01-26T10:59:43Z</time>
      </trkpt>
      <trkpt lat="45.30816" lon="4.70797">
        <ele>528</ele>
        <time>2022-01-26T10:59:44Z</time>
      </trkpt>
      <trkpt lat="45.30819" lon="4.70852">
        <ele>524.20001220703</ele>
        <time>2022-01-26T10:59:48Z</time>
      </trkpt>
      <trkpt lat="45.30815" lon="4.70894">
        <ele>521.79998779297</ele>
        <time>2022-01-26T10:59:52Z</time>
      </trkpt>
      <trkpt lat="45.30816" lon="4.70906">
        <ele>519.59997558594</ele>
        <time>2022-01-26T10:59:53Z</time>
      </trkpt>
      <trkpt lat="45.30806" lon="4.70942">
        <ele>516.40002441406</ele>
        <time>2022-01-26T10:59:56Z</time>
      </trkpt>
      <trkpt lat="45.30779" lon="4.70963">
        <ele>512.79998779297</ele>
        <time>2022-01-26T11:00:00Z</time>
      </trkpt>
      <trkpt lat="45.30773" lon="4.70964">
        <ele>511.60000610352</ele>
        <time>2022-01-26T11:00:01Z</time>
      </trkpt>
      <trkpt lat="45.30756" lon="4.70974">
        <ele>510.39999389648</ele>
        <time>2022-01-26T11:00:03Z</time>
      </trkpt>
      <trkpt lat="45.30719" lon="4.70999">
        <ele>507.60000610352</ele>
        <time>2022-01-26T11:00:07Z</time>
      </trkpt>
      <trkpt lat="45.30688" lon="4.71038">
        <ele>504.60000610352</ele>
        <time>2022-01-26T11:00:12Z</time>
      </trkpt>
      <trkpt lat="45.30685" lon="4.71044">
        <ele>504.39999389648</ele>
        <time>2022-01-26T11:00:13Z</time>
      </trkpt>
      <trkpt lat="45.30678" lon="4.7106">
        <ele>503.79998779297</ele>
        <time>2022-01-26T11:00:15Z</time>
      </trkpt>
      <trkpt lat="45.30672" lon="4.71075">
        <ele>503.20001220703</ele>
        <time>2022-01-26T11:00:17Z</time>
      </trkpt>
      <trkpt lat="45.30666" lon="4.71111">
        <ele>502.79998779297</ele>
        <time>2022-01-26T11:00:21Z</time>
      </trkpt>
      <trkpt lat="45.30668" lon="4.71141">
        <ele>502</ele>
        <time>2022-01-26T11:00:24Z</time>
      </trkpt>
      <trkpt lat="45.30664" lon="4.71168">
        <ele>500.39999389648</ele>
        <time>2022-01-26T11:00:27Z</time>
      </trkpt>
      <trkpt lat="45.30645" lon="4.71211">
        <ele>499</ele>
        <time>2022-01-26T11:00:32Z</time>
      </trkpt>
      <trkpt lat="45.30641" lon="4.71219">
        <ele>498.60000610352</ele>
        <time>2022-01-26T11:00:33Z</time>
      </trkpt>
      <trkpt lat="45.30622" lon="4.71243">
        <ele>496.39999389648</ele>
        <time>2022-01-26T11:00:37Z</time>
      </trkpt>
      <trkpt lat="45.30617" lon="4.71248">
        <ele>495.20001220703</ele>
        <time>2022-01-26T11:00:38Z</time>
      </trkpt>
      <trkpt lat="45.30613" lon="4.71253">
        <ele>495</ele>
        <time>2022-01-26T11:00:39Z</time>
      </trkpt>
      <trkpt lat="45.3061" lon="4.71281">
        <ele>493.39999389648</ele>
        <time>2022-01-26T11:00:43Z</time>
      </trkpt>
      <trkpt lat="45.3061" lon="4.71288">
        <ele>493.39999389648</ele>
        <time>2022-01-26T11:00:44Z</time>
      </trkpt>
      <trkpt lat="45.30603" lon="4.71314">
        <ele>493</ele>
        <time>2022-01-26T11:00:48Z</time>
      </trkpt>
      <trkpt lat="45.30592" lon="4.71347">
        <ele>493</ele>
        <time>2022-01-26T11:00:53Z</time>
      </trkpt>
      <trkpt lat="45.30578" lon="4.71384">
        <ele>492</ele>
        <time>2022-01-26T11:00:57Z</time>
      </trkpt>
      <trkpt lat="45.30563" lon="4.7141">
        <ele>490.79998779297</ele>
        <time>2022-01-26T11:01:00Z</time>
      </trkpt>
      <trkpt lat="45.30531" lon="4.71466">
        <ele>488.39999389648</ele>
        <time>2022-01-26T11:01:07Z</time>
      </trkpt>
      <trkpt lat="45.30523" lon="4.71491">
        <ele>487.39999389648</ele>
        <time>2022-01-26T11:01:10Z</time>
      </trkpt>
      <trkpt lat="45.30523" lon="4.71511">
        <ele>487</ele>
        <time>2022-01-26T11:01:12Z</time>
      </trkpt>
      <trkpt lat="45.30523" lon="4.71531">
        <ele>486.20001220703</ele>
        <time>2022-01-26T11:01:14Z</time>
      </trkpt>
      <trkpt lat="45.30533" lon="4.7157">
        <ele>482.60000610352</ele>
        <time>2022-01-26T11:01:18Z</time>
      </trkpt>
      <trkpt lat="45.30548" lon="4.71598">
        <ele>479.60000610352</ele>
        <time>2022-01-26T11:01:22Z</time>
      </trkpt>
      <trkpt lat="45.30551" lon="4.71605">
        <ele>479.39999389648</ele>
        <time>2022-01-26T11:01:23Z</time>
      </trkpt>
      <trkpt lat="45.30553" lon="4.71639">
        <ele>475.60000610352</ele>
        <time>2022-01-26T11:01:27Z</time>
      </trkpt>
      <trkpt lat="45.3055" lon="4.71645">
        <ele>475.20001220703</ele>
        <time>2022-01-26T11:01:28Z</time>
      </trkpt>
      <trkpt lat="45.30543" lon="4.7166">
        <ele>474.20001220703</ele>
        <time>2022-01-26T11:01:30Z</time>
      </trkpt>
      <trkpt lat="45.30534" lon="4.71674">
        <ele>472.39999389648</ele>
        <time>2022-01-26T11:01:32Z</time>
      </trkpt>
      <trkpt lat="45.3052" lon="4.717">
        <ele>468.79998779297</ele>
        <time>2022-01-26T11:01:36Z</time>
      </trkpt>
      <trkpt lat="45.30512" lon="4.71739">
        <ele>466</ele>
        <time>2022-01-26T11:01:41Z</time>
      </trkpt>
      <trkpt lat="45.30519" lon="4.71774">
        <ele>462.39999389648</ele>
        <time>2022-01-26T11:01:45Z</time>
      </trkpt>
      <trkpt lat="45.30522" lon="4.71781">
        <ele>460.79998779297</ele>
        <time>2022-01-26T11:01:46Z</time>
      </trkpt>
      <trkpt lat="45.30529" lon="4.71792">
        <ele>459</ele>
        <time>2022-01-26T11:01:48Z</time>
      </trkpt>
      <trkpt lat="45.30532" lon="4.71799">
        <ele>458.79998779297</ele>
        <time>2022-01-26T11:01:49Z</time>
      </trkpt>
      <trkpt lat="45.30533" lon="4.71828">
        <ele>455.79998779297</ele>
        <time>2022-01-26T11:01:53Z</time>
      </trkpt>
      <trkpt lat="45.30529" lon="4.71832">
        <ele>455.39999389648</ele>
        <time>2022-01-26T11:01:54Z</time>
      </trkpt>
      <trkpt lat="45.30512" lon="4.71855">
        <ele>453.20001220703</ele>
        <time>2022-01-26T11:01:58Z</time>
      </trkpt>
      <trkpt lat="45.30499" lon="4.71888">
        <ele>451.60000610352</ele>
        <time>2022-01-26T11:02:02Z</time>
      </trkpt>
      <trkpt lat="45.30493" lon="4.71907">
        <ele>450.60000610352</ele>
        <time>2022-01-26T11:02:04Z</time>
      </trkpt>
      <trkpt lat="45.30456" lon="4.71969">
        <ele>447.79998779297</ele>
        <time>2022-01-26T11:02:11Z</time>
      </trkpt>
      <trkpt lat="45.30452" lon="4.7198">
        <ele>446.39999389648</ele>
        <time>2022-01-26T11:02:12Z</time>
      </trkpt>
      <trkpt lat="45.30439" lon="4.72017">
        <ele>443.20001220703</ele>
        <time>2022-01-26T11:02:16Z</time>
      </trkpt>
      <trkpt lat="45.30427" lon="4.72042">
        <ele>442.20001220703</ele>
        <time>2022-01-26T11:02:19Z</time>
      </trkpt>
      <trkpt lat="45.30412" lon="4.7206">
        <ele>441.60000610352</ele>
        <time>2022-01-26T11:02:21Z</time>
      </trkpt>
      <trkpt lat="45.30409" lon="4.72097">
        <ele>439.79998779297</ele>
        <time>2022-01-26T11:02:25Z</time>
      </trkpt>
      <trkpt lat="45.30407" lon="4.72108">
        <ele>439.39999389648</ele>
        <time>2022-01-26T11:02:26Z</time>
      </trkpt>
      <trkpt lat="45.3041" lon="4.72144">
        <ele>438</ele>
        <time>2022-01-26T11:02:30Z</time>
      </trkpt>
      <trkpt lat="45.30409" lon="4.72159">
        <ele>436.60000610352</ele>
        <time>2022-01-26T11:02:32Z</time>
      </trkpt>
      <trkpt lat="45.30387" lon="4.72201">
        <ele>433.20001220703</ele>
        <time>2022-01-26T11:02:38Z</time>
      </trkpt>
      <trkpt lat="45.3038" lon="4.72202">
        <ele>432.39999389648</ele>
        <time>2022-01-26T11:02:39Z</time>
      </trkpt>
      <trkpt lat="45.30353" lon="4.72207">
        <ele>429.79998779297</ele>
        <time>2022-01-26T11:02:42Z</time>
      </trkpt>
      <trkpt lat="45.30315" lon="4.72209">
        <ele>426</ele>
        <time>2022-01-26T11:02:46Z</time>
      </trkpt>
      <trkpt lat="45.30292" lon="4.72226">
        <ele>422</ele>
        <time>2022-01-26T11:02:49Z</time>
      </trkpt>
      <trkpt lat="45.30285" lon="4.72269">
        <ele>418.20001220703</ele>
        <time>2022-01-26T11:02:53Z</time>
      </trkpt>
      <trkpt lat="45.30289" lon="4.72287">
        <ele>417.60000610352</ele>
        <time>2022-01-26T11:02:55Z</time>
      </trkpt>
      <trkpt lat="45.3029" lon="4.72295">
        <ele>417.39999389648</ele>
        <time>2022-01-26T11:02:56Z</time>
      </trkpt>
      <trkpt lat="45.30294" lon="4.72309">
        <ele>417.39999389648</ele>
        <time>2022-01-26T11:02:58Z</time>
      </trkpt>
      <trkpt lat="45.30295" lon="4.72323">
        <ele>417.39999389648</ele>
        <time>2022-01-26T11:03:00Z</time>
      </trkpt>
      <trkpt lat="45.30293" lon="4.72354">
        <ele>418</ele>
        <time>2022-01-26T11:03:05Z</time>
      </trkpt>
      <trkpt lat="45.3028" lon="4.72396">
        <ele>420.20001220703</ele>
        <time>2022-01-26T11:03:16Z</time>
      </trkpt>
      <trkpt lat="45.30276" lon="4.72402">
        <ele>420.60000610352</ele>
        <time>2022-01-26T11:03:18Z</time>
      </trkpt>
      <trkpt lat="45.30261" lon="4.72444">
        <ele>422.79998779297</ele>
        <time>2022-01-26T11:03:30Z</time>
      </trkpt>
      <trkpt lat="45.30253" lon="4.72458">
        <ele>422.79998779297</ele>
        <time>2022-01-26T11:03:33Z</time>
      </trkpt>
      <trkpt lat="45.30246" lon="4.72469">
        <ele>422.79998779297</ele>
        <time>2022-01-26T11:03:35Z</time>
      </trkpt>
      <trkpt lat="45.30233" lon="4.72492">
        <ele>422.20001220703</ele>
        <time>2022-01-26T11:03:38Z</time>
      </trkpt>
      <trkpt lat="45.30215" lon="4.72512">
        <ele>420.60000610352</ele>
        <time>2022-01-26T11:03:41Z</time>
      </trkpt>
      <trkpt lat="45.30182" lon="4.72535">
        <ele>418.60000610352</ele>
        <time>2022-01-26T11:03:46Z</time>
      </trkpt>
      <trkpt lat="45.30164" lon="4.72569">
        <ele>417</ele>
        <time>2022-01-26T11:03:51Z</time>
      </trkpt>
      <trkpt lat="45.30165" lon="4.72605">
        <ele>414.39999389648</ele>
        <time>2022-01-26T11:03:55Z</time>
      </trkpt>
      <trkpt lat="45.30167" lon="4.72613">
        <ele>414.20001220703</ele>
        <time>2022-01-26T11:03:56Z</time>
      </trkpt>
      <trkpt lat="45.30161" lon="4.72647">
        <ele>411.79998779297</ele>
        <time>2022-01-26T11:04:00Z</time>
      </trkpt>
      <trkpt lat="45.30152" lon="4.72678">
        <ele>409</ele>
        <time>2022-01-26T11:04:04Z</time>
      </trkpt>
      <trkpt lat="45.30149" lon="4.72694">
        <ele>407</ele>
        <time>2022-01-26T11:04:07Z</time>
      </trkpt>
      <trkpt lat="45.30132" lon="4.72696">
        <ele>403.20001220703</ele>
        <time>2022-01-26T11:04:11Z</time>
      </trkpt>
      <trkpt lat="45.30116" lon="4.72698">
        <ele>402.60000610352</ele>
        <time>2022-01-26T11:04:14Z</time>
      </trkpt>
      <trkpt lat="45.30085" lon="4.72709">
        <ele>401.60000610352</ele>
        <time>2022-01-26T11:04:20Z</time>
      </trkpt>
      <trkpt lat="45.29988" lon="4.72768">
        <ele>400.20001220703</ele>
        <time>2022-01-26T11:04:40Z</time>
      </trkpt>
      <trkpt lat="45.29934" lon="4.72794">
        <ele>399.79998779297</ele>
        <time>2022-01-26T11:04:51Z</time>
      </trkpt>
      <trkpt lat="45.29885" lon="4.7282">
        <ele>400</ele>
        <time>2022-01-26T11:05:01Z</time>
      </trkpt>
      <trkpt lat="45.29855" lon="4.72828">
        <ele>400.20001220703</ele>
        <time>2022-01-26T11:05:07Z</time>
      </trkpt>
      <trkpt lat="45.29808" lon="4.72842">
        <ele>400.79998779297</ele>
        <time>2022-01-26T11:05:16Z</time>
      </trkpt>
      <trkpt lat="45.29761" lon="4.72874">
        <ele>401</ele>
        <time>2022-01-26T11:05:26Z</time>
      </trkpt>
      <trkpt lat="45.29722" lon="4.72906">
        <ele>401.20001220703</ele>
        <time>2022-01-26T11:05:35Z</time>
      </trkpt>
      <trkpt lat="45.29683" lon="4.72943">
        <ele>401.60000610352</ele>
        <time>2022-01-26T11:05:44Z</time>
      </trkpt>
      <trkpt lat="45.29608" lon="4.72988">
        <ele>400.20001220703</ele>
        <time>2022-01-26T11:05:56Z</time>
      </trkpt>
      <trkpt lat="45.29561" lon="4.72997">
        <ele>399.20001220703</ele>
        <time>2022-01-26T11:06:02Z</time>
      </trkpt>
      <trkpt lat="45.29471" lon="4.73011">
        <ele>396.20001220703</ele>
        <time>2022-01-26T11:06:14Z</time>
      </trkpt>
      <trkpt lat="45.29425" lon="4.73019">
        <ele>395.79998779297</ele>
        <time>2022-01-26T11:06:21Z</time>
      </trkpt>
      <trkpt lat="45.29414" lon="4.73021">
        <ele>395.60000610352</ele>
        <time>2022-01-26T11:06:23Z</time>
      </trkpt>
      <trkpt lat="45.29386" lon="4.73018">
        <ele>395.60000610352</ele>
        <time>2022-01-26T11:06:29Z</time>
      </trkpt>
      <trkpt lat="45.29386" lon="4.73045">
        <ele>396.20001220703</ele>
        <time>2022-01-26T11:06:34Z</time>
      </trkpt>
      <trkpt lat="45.29399" lon="4.73127">
        <ele>395.39999389648</ele>
        <time>2022-01-26T11:06:44Z</time>
      </trkpt>
      <trkpt lat="45.294" lon="4.73188">
        <ele>393</ele>
        <time>2022-01-26T11:06:52Z</time>
      </trkpt>
      <trkpt lat="45.29395" lon="4.73194">
        <ele>392.60000610352</ele>
        <time>2022-01-26T11:06:53Z</time>
      </trkpt>
      <trkpt lat="45.29349" lon="4.73253">
        <ele>390.39999389648</ele>
        <time>2022-01-26T11:07:02Z</time>
      </trkpt>
      <trkpt lat="45.29343" lon="4.73259">
        <ele>390.20001220703</ele>
        <time>2022-01-26T11:07:03Z</time>
      </trkpt>
      <trkpt lat="45.29311" lon="4.73295">
        <ele>387.60000610352</ele>
        <time>2022-01-26T11:07:08Z</time>
      </trkpt>
      <trkpt lat="45.29275" lon="4.73336">
        <ele>385.79998779297</ele>
        <time>2022-01-26T11:07:14Z</time>
      </trkpt>
      <trkpt lat="45.29249" lon="4.7337">
        <ele>385</ele>
        <time>2022-01-26T11:07:19Z</time>
      </trkpt>
      <trkpt lat="45.29242" lon="4.73389">
        <ele>383</ele>
        <time>2022-01-26T11:07:25Z</time>
      </trkpt>
      <trkpt lat="45.29243" lon="4.73392">
        <ele>381.39999389648</ele>
        <time>2022-01-26T11:07:52Z</time>
      </trkpt>
      <trkpt lat="45.29257" lon="4.73429">
        <ele>381.79998779297</ele>
        <time>2022-01-26T11:08:09Z</time>
      </trkpt>
      <trkpt lat="45.29257" lon="4.73429">
        <ele>381.79998779297</ele>
        <time>2022-01-26T11:08:37Z</time>
      </trkpt>
      <trkpt lat="45.29257" lon="4.73429">
        <ele>381.39999389648</ele>
        <time>2022-01-26T11:09:27Z</time>
      </trkpt>
    </trkseg>
  </trk>
</gpx>